<?xml version="1.0" encoding="UTF-8" standalone="no" ?>
<gpx xmlns="http://www.topografix.com/GPX/1/1" xmlns:xsi="http://www.w3.org/2001/XMLSchema-instance" xsi:schemaLocation="http://www.topografix.com/GPX/1/1 http://www.topografix.com/GPX/1/1/gpx.xsd" version="1.1" creator="VisuGPX - https://www.visugpx.com">
  <metadata>
    <name>Randonnée Boos</name>
    <desc><![CDATA[Circuit au départ de Boos e passant par Quevreville la poterie. Ne pas oublier de tourner à droite avant la mare du Fresnay]]></desc>
  </metadata>
  <trk>
    <name><![CDATA[2012109-Boos]]></name>
    <trkseg>
      <trkpt lat="49.3891" lon="1.19977">
        <ele>163.3</ele>
        <time>2012-10-09T11:41:45Z</time>
      </trkpt>
      <trkpt lat="49.3891" lon="1.19977">
        <ele>163.3</ele>
        <time>2012-10-09T11:41:46Z</time>
      </trkpt>
      <trkpt lat="49.38906" lon="1.19968">
        <ele>160.3</ele>
        <time>2012-10-09T11:46:19Z</time>
      </trkpt>
      <trkpt lat="49.38896" lon="1.19964">
        <ele>160</ele>
        <time>2012-10-09T11:46:31Z</time>
      </trkpt>
      <trkpt lat="49.38891" lon="1.19963">
        <ele>160.1</ele>
        <time>2012-10-09T11:46:36Z</time>
      </trkpt>
      <trkpt lat="49.38885" lon="1.19963">
        <ele>160</ele>
        <time>2012-10-09T11:46:46Z</time>
      </trkpt>
      <trkpt lat="49.38879" lon="1.19963">
        <ele>160.8</ele>
        <time>2012-10-09T11:46:52Z</time>
      </trkpt>
      <trkpt lat="49.38873" lon="1.19962">
        <ele>161</ele>
        <time>2012-10-09T11:46:57Z</time>
      </trkpt>
      <trkpt lat="49.38868" lon="1.1996">
        <ele>160.8</ele>
        <time>2012-10-09T11:47:01Z</time>
      </trkpt>
      <trkpt lat="49.38863" lon="1.19954">
        <ele>159.8</ele>
        <time>2012-10-09T11:47:10Z</time>
      </trkpt>
      <trkpt lat="49.38865" lon="1.19947">
        <ele>157.3</ele>
        <time>2012-10-09T11:47:18Z</time>
      </trkpt>
      <trkpt lat="49.38864" lon="1.19937">
        <ele>157</ele>
        <time>2012-10-09T11:47:23Z</time>
      </trkpt>
      <trkpt lat="49.38864" lon="1.19936">
        <ele>156.8</ele>
        <time>2012-10-09T11:47:24Z</time>
      </trkpt>
      <trkpt lat="49.38855" lon="1.19927">
        <ele>156.8</ele>
        <time>2012-10-09T11:47:37Z</time>
      </trkpt>
      <trkpt lat="49.3885" lon="1.19924">
        <ele>157.5</ele>
        <time>2012-10-09T11:47:45Z</time>
      </trkpt>
      <trkpt lat="49.38844" lon="1.19922">
        <ele>157.1</ele>
        <time>2012-10-09T11:47:50Z</time>
      </trkpt>
      <trkpt lat="49.38839" lon="1.1992">
        <ele>157.1</ele>
        <time>2012-10-09T11:47:55Z</time>
      </trkpt>
      <trkpt lat="49.38833" lon="1.19919">
        <ele>157.5</ele>
        <time>2012-10-09T11:47:59Z</time>
      </trkpt>
      <trkpt lat="49.38827" lon="1.19919">
        <ele>158</ele>
        <time>2012-10-09T11:48:03Z</time>
      </trkpt>
      <trkpt lat="49.38821" lon="1.19919">
        <ele>159.1</ele>
        <time>2012-10-09T11:48:12Z</time>
      </trkpt>
      <trkpt lat="49.38816" lon="1.19917">
        <ele>158.6</ele>
        <time>2012-10-09T11:48:16Z</time>
      </trkpt>
      <trkpt lat="49.38811" lon="1.19917">
        <ele>158.1</ele>
        <time>2012-10-09T11:48:20Z</time>
      </trkpt>
      <trkpt lat="49.38805" lon="1.19917">
        <ele>158.3</ele>
        <time>2012-10-09T11:48:24Z</time>
      </trkpt>
      <trkpt lat="49.388" lon="1.19916">
        <ele>158.5</ele>
        <time>2012-10-09T11:48:29Z</time>
      </trkpt>
      <trkpt lat="49.38799" lon="1.19916">
        <ele>158.3</ele>
        <time>2012-10-09T11:48:30Z</time>
      </trkpt>
      <trkpt lat="49.38789" lon="1.19913">
        <ele>157.3</ele>
        <time>2012-10-09T11:48:38Z</time>
      </trkpt>
      <trkpt lat="49.38783" lon="1.19912">
        <ele>157.3</ele>
        <time>2012-10-09T11:48:44Z</time>
      </trkpt>
      <trkpt lat="49.38778" lon="1.19911">
        <ele>157.1</ele>
        <time>2012-10-09T11:48:48Z</time>
      </trkpt>
      <trkpt lat="49.38772" lon="1.19911">
        <ele>157.3</ele>
        <time>2012-10-09T11:48:51Z</time>
      </trkpt>
      <trkpt lat="49.38767" lon="1.1991">
        <ele>157.3</ele>
        <time>2012-10-09T11:48:55Z</time>
      </trkpt>
      <trkpt lat="49.38761" lon="1.1991">
        <ele>155.1</ele>
        <time>2012-10-09T11:49:02Z</time>
      </trkpt>
      <trkpt lat="49.38757" lon="1.19903">
        <ele>154.6</ele>
        <time>2012-10-09T11:49:08Z</time>
      </trkpt>
      <trkpt lat="49.38757" lon="1.19895">
        <ele>154.3</ele>
        <time>2012-10-09T11:49:13Z</time>
      </trkpt>
      <trkpt lat="49.38758" lon="1.19887">
        <ele>154.5</ele>
        <time>2012-10-09T11:49:17Z</time>
      </trkpt>
      <trkpt lat="49.38757" lon="1.19879">
        <ele>154.8</ele>
        <time>2012-10-09T11:49:23Z</time>
      </trkpt>
      <trkpt lat="49.38756" lon="1.19869">
        <ele>155.1</ele>
        <time>2012-10-09T11:49:28Z</time>
      </trkpt>
      <trkpt lat="49.38755" lon="1.19861">
        <ele>155.1</ele>
        <time>2012-10-09T11:49:32Z</time>
      </trkpt>
      <trkpt lat="49.38754" lon="1.19859">
        <ele>155.3</ele>
        <time>2012-10-09T11:49:33Z</time>
      </trkpt>
      <trkpt lat="49.38752" lon="1.19844">
        <ele>155.1</ele>
        <time>2012-10-09T11:49:41Z</time>
      </trkpt>
      <trkpt lat="49.38751" lon="1.19837">
        <ele>155.1</ele>
        <time>2012-10-09T11:49:45Z</time>
      </trkpt>
      <trkpt lat="49.38749" lon="1.19828">
        <ele>155.1</ele>
        <time>2012-10-09T11:49:49Z</time>
      </trkpt>
      <trkpt lat="49.38748" lon="1.1982">
        <ele>155.1</ele>
        <time>2012-10-09T11:49:53Z</time>
      </trkpt>
      <trkpt lat="49.38747" lon="1.19811">
        <ele>154.6</ele>
        <time>2012-10-09T11:49:58Z</time>
      </trkpt>
      <trkpt lat="49.38748" lon="1.19803">
        <ele>154.8</ele>
        <time>2012-10-09T11:50:03Z</time>
      </trkpt>
      <trkpt lat="49.38747" lon="1.19794">
        <ele>154.3</ele>
        <time>2012-10-09T11:50:08Z</time>
      </trkpt>
      <trkpt lat="49.38746" lon="1.19785">
        <ele>153.1</ele>
        <time>2012-10-09T11:50:18Z</time>
      </trkpt>
      <trkpt lat="49.38743" lon="1.19778">
        <ele>152.8</ele>
        <time>2012-10-09T11:50:23Z</time>
      </trkpt>
      <trkpt lat="49.38739" lon="1.19772">
        <ele>153.1</ele>
        <time>2012-10-09T11:50:27Z</time>
      </trkpt>
      <trkpt lat="49.38734" lon="1.19765">
        <ele>153.6</ele>
        <time>2012-10-09T11:50:32Z</time>
      </trkpt>
      <trkpt lat="49.38731" lon="1.19758">
        <ele>155.1</ele>
        <time>2012-10-09T11:50:37Z</time>
      </trkpt>
      <trkpt lat="49.3873" lon="1.19757">
        <ele>155.6</ele>
        <time>2012-10-09T11:50:38Z</time>
      </trkpt>
      <trkpt lat="49.38721" lon="1.19747">
        <ele>156.3</ele>
        <time>2012-10-09T11:50:46Z</time>
      </trkpt>
      <trkpt lat="49.38717" lon="1.19742">
        <ele>155.8</ele>
        <time>2012-10-09T11:50:51Z</time>
      </trkpt>
      <trkpt lat="49.38712" lon="1.19736">
        <ele>154.3</ele>
        <time>2012-10-09T11:50:56Z</time>
      </trkpt>
      <trkpt lat="49.38707" lon="1.19731">
        <ele>154.6</ele>
        <time>2012-10-09T11:51:01Z</time>
      </trkpt>
      <trkpt lat="49.38702" lon="1.19726">
        <ele>154.1</ele>
        <time>2012-10-09T11:51:05Z</time>
      </trkpt>
      <trkpt lat="49.38697" lon="1.19721">
        <ele>154.5</ele>
        <time>2012-10-09T11:51:10Z</time>
      </trkpt>
      <trkpt lat="49.38693" lon="1.19717">
        <ele>153.8</ele>
        <time>2012-10-09T11:51:14Z</time>
      </trkpt>
      <trkpt lat="49.38688" lon="1.19712">
        <ele>153.3</ele>
        <time>2012-10-09T11:51:20Z</time>
      </trkpt>
      <trkpt lat="49.38683" lon="1.19708">
        <ele>153.5</ele>
        <time>2012-10-09T11:51:24Z</time>
      </trkpt>
      <trkpt lat="49.38678" lon="1.19703">
        <ele>153.3</ele>
        <time>2012-10-09T11:51:28Z</time>
      </trkpt>
      <trkpt lat="49.38673" lon="1.19699">
        <ele>153.3</ele>
        <time>2012-10-09T11:51:33Z</time>
      </trkpt>
      <trkpt lat="49.38668" lon="1.19696">
        <ele>153.3</ele>
        <time>2012-10-09T11:51:38Z</time>
      </trkpt>
      <trkpt lat="49.38667" lon="1.19695">
        <ele>153.5</ele>
        <time>2012-10-09T11:51:39Z</time>
      </trkpt>
      <trkpt lat="49.3866" lon="1.19685">
        <ele>152.3</ele>
        <time>2012-10-09T11:51:49Z</time>
      </trkpt>
      <trkpt lat="49.38655" lon="1.19679">
        <ele>150.6</ele>
        <time>2012-10-09T11:51:57Z</time>
      </trkpt>
      <trkpt lat="49.38649" lon="1.19678">
        <ele>150.6</ele>
        <time>2012-10-09T11:52:02Z</time>
      </trkpt>
      <trkpt lat="49.38644" lon="1.19676">
        <ele>151.1</ele>
        <time>2012-10-09T11:52:06Z</time>
      </trkpt>
      <trkpt lat="49.38638" lon="1.19674">
        <ele>151.8</ele>
        <time>2012-10-09T11:52:11Z</time>
      </trkpt>
      <trkpt lat="49.38632" lon="1.19672">
        <ele>151.6</ele>
        <time>2012-10-09T11:52:16Z</time>
      </trkpt>
      <trkpt lat="49.38626" lon="1.1967">
        <ele>152.5</ele>
        <time>2012-10-09T11:52:22Z</time>
      </trkpt>
      <trkpt lat="49.38621" lon="1.19668">
        <ele>152.6</ele>
        <time>2012-10-09T11:52:26Z</time>
      </trkpt>
      <trkpt lat="49.38615" lon="1.19665">
        <ele>152.1</ele>
        <time>2012-10-09T11:52:30Z</time>
      </trkpt>
      <trkpt lat="49.3861" lon="1.19663">
        <ele>152.3</ele>
        <time>2012-10-09T11:52:34Z</time>
      </trkpt>
      <trkpt lat="49.38605" lon="1.1966">
        <ele>153</ele>
        <time>2012-10-09T11:52:39Z</time>
      </trkpt>
      <trkpt lat="49.38599" lon="1.19656">
        <ele>153.8</ele>
        <time>2012-10-09T11:52:45Z</time>
      </trkpt>
      <trkpt lat="49.38598" lon="1.19655">
        <ele>154</ele>
        <time>2012-10-09T11:52:46Z</time>
      </trkpt>
      <trkpt lat="49.3859" lon="1.19646">
        <ele>154</ele>
        <time>2012-10-09T11:52:54Z</time>
      </trkpt>
      <trkpt lat="49.38585" lon="1.19641">
        <ele>154.1</ele>
        <time>2012-10-09T11:53:00Z</time>
      </trkpt>
      <trkpt lat="49.38581" lon="1.19637">
        <ele>154.5</ele>
        <time>2012-10-09T11:53:05Z</time>
      </trkpt>
      <trkpt lat="49.38576" lon="1.19632">
        <ele>154.6</ele>
        <time>2012-10-09T11:53:10Z</time>
      </trkpt>
      <trkpt lat="49.38571" lon="1.19627">
        <ele>155.6</ele>
        <time>2012-10-09T11:53:15Z</time>
      </trkpt>
      <trkpt lat="49.38566" lon="1.19622">
        <ele>155.6</ele>
        <time>2012-10-09T11:53:21Z</time>
      </trkpt>
      <trkpt lat="49.38563" lon="1.19615">
        <ele>155.1</ele>
        <time>2012-10-09T11:53:25Z</time>
      </trkpt>
      <trkpt lat="49.3856" lon="1.1961">
        <ele>154.6</ele>
        <time>2012-10-09T11:53:28Z</time>
      </trkpt>
      <trkpt lat="49.38556" lon="1.19603">
        <ele>154.1</ele>
        <time>2012-10-09T11:53:32Z</time>
      </trkpt>
      <trkpt lat="49.38551" lon="1.19598">
        <ele>154.8</ele>
        <time>2012-10-09T11:53:36Z</time>
      </trkpt>
      <trkpt lat="49.38547" lon="1.19593">
        <ele>155.1</ele>
        <time>2012-10-09T11:53:40Z</time>
      </trkpt>
      <trkpt lat="49.38543" lon="1.19587">
        <ele>154.3</ele>
        <time>2012-10-09T11:53:44Z</time>
      </trkpt>
      <trkpt lat="49.38539" lon="1.19582">
        <ele>153.8</ele>
        <time>2012-10-09T11:53:48Z</time>
      </trkpt>
      <trkpt lat="49.38538" lon="1.19581">
        <ele>153.3</ele>
        <time>2012-10-09T11:53:49Z</time>
      </trkpt>
      <trkpt lat="49.3853" lon="1.19571">
        <ele>153.6</ele>
        <time>2012-10-09T11:53:56Z</time>
      </trkpt>
      <trkpt lat="49.38527" lon="1.19565">
        <ele>153.1</ele>
        <time>2012-10-09T11:54:00Z</time>
      </trkpt>
      <trkpt lat="49.38522" lon="1.19559">
        <ele>151.8</ele>
        <time>2012-10-09T11:54:05Z</time>
      </trkpt>
      <trkpt lat="49.38517" lon="1.19554">
        <ele>152.6</ele>
        <time>2012-10-09T11:54:10Z</time>
      </trkpt>
      <trkpt lat="49.38513" lon="1.19548">
        <ele>152.8</ele>
        <time>2012-10-09T11:54:16Z</time>
      </trkpt>
      <trkpt lat="49.38509" lon="1.19544">
        <ele>152.8</ele>
        <time>2012-10-09T11:54:20Z</time>
      </trkpt>
      <trkpt lat="49.38505" lon="1.1954">
        <ele>152.6</ele>
        <time>2012-10-09T11:54:24Z</time>
      </trkpt>
      <trkpt lat="49.38501" lon="1.19533">
        <ele>152.6</ele>
        <time>2012-10-09T11:54:30Z</time>
      </trkpt>
      <trkpt lat="49.38496" lon="1.19528">
        <ele>154</ele>
        <time>2012-10-09T11:54:38Z</time>
      </trkpt>
      <trkpt lat="49.38492" lon="1.1952">
        <ele>154.8</ele>
        <time>2012-10-09T11:54:43Z</time>
      </trkpt>
      <trkpt lat="49.3849" lon="1.19511">
        <ele>155.3</ele>
        <time>2012-10-09T11:54:52Z</time>
      </trkpt>
      <trkpt lat="49.38491" lon="1.19511">
        <ele>155.3</ele>
        <time>2012-10-09T11:54:53Z</time>
      </trkpt>
      <trkpt lat="49.38485" lon="1.19497">
        <ele>154.5</ele>
        <time>2012-10-09T11:55:01Z</time>
      </trkpt>
      <trkpt lat="49.38481" lon="1.19491">
        <ele>154.1</ele>
        <time>2012-10-09T11:55:05Z</time>
      </trkpt>
      <trkpt lat="49.38478" lon="1.19486">
        <ele>154.5</ele>
        <time>2012-10-09T11:55:09Z</time>
      </trkpt>
      <trkpt lat="49.38474" lon="1.19481">
        <ele>153.8</ele>
        <time>2012-10-09T11:55:12Z</time>
      </trkpt>
      <trkpt lat="49.38471" lon="1.19474">
        <ele>153.6</ele>
        <time>2012-10-09T11:55:16Z</time>
      </trkpt>
      <trkpt lat="49.38468" lon="1.19467">
        <ele>153</ele>
        <time>2012-10-09T11:55:20Z</time>
      </trkpt>
      <trkpt lat="49.38464" lon="1.19461">
        <ele>152</ele>
        <time>2012-10-09T11:55:23Z</time>
      </trkpt>
      <trkpt lat="49.3846" lon="1.19456">
        <ele>151.8</ele>
        <time>2012-10-09T11:55:26Z</time>
      </trkpt>
      <trkpt lat="49.38456" lon="1.1945">
        <ele>151</ele>
        <time>2012-10-09T11:55:29Z</time>
      </trkpt>
      <trkpt lat="49.38453" lon="1.19443">
        <ele>150.1</ele>
        <time>2012-10-09T11:55:33Z</time>
      </trkpt>
      <trkpt lat="49.3845" lon="1.19437">
        <ele>150.6</ele>
        <time>2012-10-09T11:55:37Z</time>
      </trkpt>
      <trkpt lat="49.38446" lon="1.19431">
        <ele>150.6</ele>
        <time>2012-10-09T11:55:41Z</time>
      </trkpt>
      <trkpt lat="49.38442" lon="1.19425">
        <ele>150.3</ele>
        <time>2012-10-09T11:55:45Z</time>
      </trkpt>
      <trkpt lat="49.38438" lon="1.19419">
        <ele>149.6</ele>
        <time>2012-10-09T11:55:49Z</time>
      </trkpt>
      <trkpt lat="49.38435" lon="1.19413">
        <ele>148.8</ele>
        <time>2012-10-09T11:55:52Z</time>
      </trkpt>
      <trkpt lat="49.38431" lon="1.19407">
        <ele>149.1</ele>
        <time>2012-10-09T11:55:56Z</time>
      </trkpt>
      <trkpt lat="49.3843" lon="1.19405">
        <ele>148.8</ele>
        <time>2012-10-09T11:55:57Z</time>
      </trkpt>
      <trkpt lat="49.38424" lon="1.19394">
        <ele>148</ele>
        <time>2012-10-09T11:56:04Z</time>
      </trkpt>
      <trkpt lat="49.3842" lon="1.19388">
        <ele>148.1</ele>
        <time>2012-10-09T11:56:10Z</time>
      </trkpt>
      <trkpt lat="49.38416" lon="1.19381">
        <ele>148.3</ele>
        <time>2012-10-09T11:56:14Z</time>
      </trkpt>
      <trkpt lat="49.38412" lon="1.19374">
        <ele>147.3</ele>
        <time>2012-10-09T11:56:18Z</time>
      </trkpt>
      <trkpt lat="49.38408" lon="1.19369">
        <ele>146.6</ele>
        <time>2012-10-09T11:56:22Z</time>
      </trkpt>
      <trkpt lat="49.38404" lon="1.19363">
        <ele>146.1</ele>
        <time>2012-10-09T11:56:26Z</time>
      </trkpt>
      <trkpt lat="49.384" lon="1.19357">
        <ele>145.8</ele>
        <time>2012-10-09T11:56:30Z</time>
      </trkpt>
      <trkpt lat="49.38396" lon="1.19351">
        <ele>146.5</ele>
        <time>2012-10-09T11:56:34Z</time>
      </trkpt>
      <trkpt lat="49.38392" lon="1.19345">
        <ele>146.5</ele>
        <time>2012-10-09T11:56:38Z</time>
      </trkpt>
      <trkpt lat="49.38389" lon="1.19339">
        <ele>146.8</ele>
        <time>2012-10-09T11:56:42Z</time>
      </trkpt>
      <trkpt lat="49.38386" lon="1.19333">
        <ele>147.8</ele>
        <time>2012-10-09T11:56:46Z</time>
      </trkpt>
      <trkpt lat="49.38383" lon="1.19327">
        <ele>148.1</ele>
        <time>2012-10-09T11:56:50Z</time>
      </trkpt>
      <trkpt lat="49.38379" lon="1.19321">
        <ele>148.1</ele>
        <time>2012-10-09T11:56:54Z</time>
      </trkpt>
      <trkpt lat="49.38375" lon="1.19314">
        <ele>148.6</ele>
        <time>2012-10-09T11:57:00Z</time>
      </trkpt>
      <trkpt lat="49.38374" lon="1.19312">
        <ele>148.6</ele>
        <time>2012-10-09T11:57:01Z</time>
      </trkpt>
      <trkpt lat="49.38367" lon="1.19301">
        <ele>148.3</ele>
        <time>2012-10-09T11:57:08Z</time>
      </trkpt>
      <trkpt lat="49.38363" lon="1.19294">
        <ele>148</ele>
        <time>2012-10-09T11:57:13Z</time>
      </trkpt>
      <trkpt lat="49.3836" lon="1.19288">
        <ele>147.6</ele>
        <time>2012-10-09T11:57:17Z</time>
      </trkpt>
      <trkpt lat="49.38357" lon="1.19281">
        <ele>147.8</ele>
        <time>2012-10-09T11:57:21Z</time>
      </trkpt>
      <trkpt lat="49.38353" lon="1.19274">
        <ele>147.1</ele>
        <time>2012-10-09T11:57:26Z</time>
      </trkpt>
      <trkpt lat="49.38349" lon="1.19267">
        <ele>147</ele>
        <time>2012-10-09T11:57:31Z</time>
      </trkpt>
      <trkpt lat="49.38344" lon="1.19261">
        <ele>146.1</ele>
        <time>2012-10-09T11:57:35Z</time>
      </trkpt>
      <trkpt lat="49.38341" lon="1.19255">
        <ele>146</ele>
        <time>2012-10-09T11:57:39Z</time>
      </trkpt>
      <trkpt lat="49.38337" lon="1.19249">
        <ele>145.8</ele>
        <time>2012-10-09T11:57:43Z</time>
      </trkpt>
      <trkpt lat="49.38334" lon="1.19243">
        <ele>145.8</ele>
        <time>2012-10-09T11:57:47Z</time>
      </trkpt>
      <trkpt lat="49.3833" lon="1.19237">
        <ele>145.3</ele>
        <time>2012-10-09T11:57:51Z</time>
      </trkpt>
      <trkpt lat="49.38327" lon="1.1923">
        <ele>145</ele>
        <time>2012-10-09T11:57:55Z</time>
      </trkpt>
      <trkpt lat="49.38322" lon="1.19224">
        <ele>144.6</ele>
        <time>2012-10-09T11:57:59Z</time>
      </trkpt>
      <trkpt lat="49.38319" lon="1.19217">
        <ele>144.1</ele>
        <time>2012-10-09T11:58:03Z</time>
      </trkpt>
      <trkpt lat="49.38319" lon="1.19216">
        <ele>144.1</ele>
        <time>2012-10-09T11:58:04Z</time>
      </trkpt>
      <trkpt lat="49.38312" lon="1.19204">
        <ele>143.6</ele>
        <time>2012-10-09T11:58:12Z</time>
      </trkpt>
      <trkpt lat="49.38308" lon="1.19197">
        <ele>144</ele>
        <time>2012-10-09T11:58:17Z</time>
      </trkpt>
      <trkpt lat="49.38304" lon="1.19191">
        <ele>144.3</ele>
        <time>2012-10-09T11:58:23Z</time>
      </trkpt>
      <trkpt lat="49.383" lon="1.19185">
        <ele>144.3</ele>
        <time>2012-10-09T11:58:27Z</time>
      </trkpt>
      <trkpt lat="49.38296" lon="1.19179">
        <ele>144.3</ele>
        <time>2012-10-09T11:58:31Z</time>
      </trkpt>
      <trkpt lat="49.38293" lon="1.19171">
        <ele>144.3</ele>
        <time>2012-10-09T11:58:36Z</time>
      </trkpt>
      <trkpt lat="49.3829" lon="1.19165">
        <ele>143.5</ele>
        <time>2012-10-09T11:58:40Z</time>
      </trkpt>
      <trkpt lat="49.38286" lon="1.19159">
        <ele>143.3</ele>
        <time>2012-10-09T11:58:44Z</time>
      </trkpt>
      <trkpt lat="49.38282" lon="1.19153">
        <ele>142.8</ele>
        <time>2012-10-09T11:58:49Z</time>
      </trkpt>
      <trkpt lat="49.38278" lon="1.19146">
        <ele>142.6</ele>
        <time>2012-10-09T11:58:53Z</time>
      </trkpt>
      <trkpt lat="49.38274" lon="1.1914">
        <ele>142.6</ele>
        <time>2012-10-09T11:58:57Z</time>
      </trkpt>
      <trkpt lat="49.3827" lon="1.19135">
        <ele>142.1</ele>
        <time>2012-10-09T11:59:01Z</time>
      </trkpt>
      <trkpt lat="49.38266" lon="1.19127">
        <ele>141.3</ele>
        <time>2012-10-09T11:59:06Z</time>
      </trkpt>
      <trkpt lat="49.38265" lon="1.19126">
        <ele>141</ele>
        <time>2012-10-09T11:59:07Z</time>
      </trkpt>
      <trkpt lat="49.38259" lon="1.19115">
        <ele>141.1</ele>
        <time>2012-10-09T11:59:16Z</time>
      </trkpt>
      <trkpt lat="49.38256" lon="1.19107">
        <ele>141.1</ele>
        <time>2012-10-09T11:59:20Z</time>
      </trkpt>
      <trkpt lat="49.38253" lon="1.191">
        <ele>141.6</ele>
        <time>2012-10-09T11:59:24Z</time>
      </trkpt>
      <trkpt lat="49.38249" lon="1.19093">
        <ele>141.5</ele>
        <time>2012-10-09T11:59:29Z</time>
      </trkpt>
      <trkpt lat="49.38247" lon="1.19086">
        <ele>141.6</ele>
        <time>2012-10-09T11:59:33Z</time>
      </trkpt>
      <trkpt lat="49.38244" lon="1.19078">
        <ele>141.6</ele>
        <time>2012-10-09T11:59:37Z</time>
      </trkpt>
      <trkpt lat="49.38241" lon="1.19071">
        <ele>141.3</ele>
        <time>2012-10-09T11:59:41Z</time>
      </trkpt>
      <trkpt lat="49.38239" lon="1.19063">
        <ele>141.8</ele>
        <time>2012-10-09T11:59:45Z</time>
      </trkpt>
      <trkpt lat="49.38236" lon="1.19056">
        <ele>141.3</ele>
        <time>2012-10-09T11:59:49Z</time>
      </trkpt>
      <trkpt lat="49.38233" lon="1.19048">
        <ele>141.1</ele>
        <time>2012-10-09T11:59:53Z</time>
      </trkpt>
      <trkpt lat="49.38229" lon="1.19041">
        <ele>141.1</ele>
        <time>2012-10-09T11:59:57Z</time>
      </trkpt>
      <trkpt lat="49.38227" lon="1.19034">
        <ele>141.8</ele>
        <time>2012-10-09T12:00:01Z</time>
      </trkpt>
      <trkpt lat="49.38224" lon="1.19027">
        <ele>142.3</ele>
        <time>2012-10-09T12:00:05Z</time>
      </trkpt>
      <trkpt lat="49.38221" lon="1.1902">
        <ele>142</ele>
        <time>2012-10-09T12:00:09Z</time>
      </trkpt>
      <trkpt lat="49.3822" lon="1.19018">
        <ele>142</ele>
        <time>2012-10-09T12:00:10Z</time>
      </trkpt>
      <trkpt lat="49.38215" lon="1.19004">
        <ele>142.3</ele>
        <time>2012-10-09T12:00:18Z</time>
      </trkpt>
      <trkpt lat="49.38213" lon="1.18995">
        <ele>141.6</ele>
        <time>2012-10-09T12:00:22Z</time>
      </trkpt>
      <trkpt lat="49.3821" lon="1.18987">
        <ele>141.3</ele>
        <time>2012-10-09T12:00:26Z</time>
      </trkpt>
      <trkpt lat="49.38208" lon="1.18979">
        <ele>140.8</ele>
        <time>2012-10-09T12:00:30Z</time>
      </trkpt>
      <trkpt lat="49.38205" lon="1.18972">
        <ele>140.5</ele>
        <time>2012-10-09T12:00:33Z</time>
      </trkpt>
      <trkpt lat="49.38202" lon="1.18964">
        <ele>140.1</ele>
        <time>2012-10-09T12:00:37Z</time>
      </trkpt>
      <trkpt lat="49.38199" lon="1.18957">
        <ele>140.5</ele>
        <time>2012-10-09T12:00:41Z</time>
      </trkpt>
      <trkpt lat="49.38197" lon="1.18949">
        <ele>141.1</ele>
        <time>2012-10-09T12:00:45Z</time>
      </trkpt>
      <trkpt lat="49.38194" lon="1.18941">
        <ele>141.3</ele>
        <time>2012-10-09T12:00:50Z</time>
      </trkpt>
      <trkpt lat="49.38192" lon="1.18933">
        <ele>141.8</ele>
        <time>2012-10-09T12:00:55Z</time>
      </trkpt>
      <trkpt lat="49.3819" lon="1.18924">
        <ele>142.1</ele>
        <time>2012-10-09T12:01:00Z</time>
      </trkpt>
      <trkpt lat="49.38188" lon="1.18917">
        <ele>141.6</ele>
        <time>2012-10-09T12:01:04Z</time>
      </trkpt>
      <trkpt lat="49.38185" lon="1.18908">
        <ele>141.5</ele>
        <time>2012-10-09T12:01:10Z</time>
      </trkpt>
      <trkpt lat="49.38183" lon="1.18899">
        <ele>141.3</ele>
        <time>2012-10-09T12:01:14Z</time>
      </trkpt>
      <trkpt lat="49.38182" lon="1.18898">
        <ele>141.8</ele>
        <time>2012-10-09T12:01:15Z</time>
      </trkpt>
      <trkpt lat="49.3818" lon="1.18883">
        <ele>142.3</ele>
        <time>2012-10-09T12:01:26Z</time>
      </trkpt>
      <trkpt lat="49.38178" lon="1.18876">
        <ele>141.8</ele>
        <time>2012-10-09T12:01:29Z</time>
      </trkpt>
      <trkpt lat="49.38176" lon="1.1887">
        <ele>141.6</ele>
        <time>2012-10-09T12:01:32Z</time>
      </trkpt>
      <trkpt lat="49.38174" lon="1.18862">
        <ele>141.1</ele>
        <time>2012-10-09T12:01:35Z</time>
      </trkpt>
      <trkpt lat="49.38171" lon="1.18854">
        <ele>140.8</ele>
        <time>2012-10-09T12:01:39Z</time>
      </trkpt>
      <trkpt lat="49.38168" lon="1.18846">
        <ele>140</ele>
        <time>2012-10-09T12:01:43Z</time>
      </trkpt>
      <trkpt lat="49.38166" lon="1.18838">
        <ele>139.8</ele>
        <time>2012-10-09T12:01:47Z</time>
      </trkpt>
      <trkpt lat="49.38165" lon="1.1883">
        <ele>139.1</ele>
        <time>2012-10-09T12:01:51Z</time>
      </trkpt>
      <trkpt lat="49.38163" lon="1.18823">
        <ele>139.1</ele>
        <time>2012-10-09T12:01:55Z</time>
      </trkpt>
      <trkpt lat="49.38159" lon="1.18815">
        <ele>138.6</ele>
        <time>2012-10-09T12:01:59Z</time>
      </trkpt>
      <trkpt lat="49.38156" lon="1.18809">
        <ele>138</ele>
        <time>2012-10-09T12:02:03Z</time>
      </trkpt>
      <trkpt lat="49.38152" lon="1.18803">
        <ele>137.8</ele>
        <time>2012-10-09T12:02:07Z</time>
      </trkpt>
      <trkpt lat="49.38148" lon="1.18797">
        <ele>137.3</ele>
        <time>2012-10-09T12:02:11Z</time>
      </trkpt>
      <trkpt lat="49.38144" lon="1.18792">
        <ele>137.8</ele>
        <time>2012-10-09T12:02:15Z</time>
      </trkpt>
      <trkpt lat="49.38139" lon="1.18787">
        <ele>137.5</ele>
        <time>2012-10-09T12:02:19Z</time>
      </trkpt>
      <trkpt lat="49.38138" lon="1.18786">
        <ele>137.1</ele>
        <time>2012-10-09T12:02:20Z</time>
      </trkpt>
      <trkpt lat="49.38131" lon="1.18779">
        <ele>136.8</ele>
        <time>2012-10-09T12:02:27Z</time>
      </trkpt>
      <trkpt lat="49.38126" lon="1.18776">
        <ele>136.3</ele>
        <time>2012-10-09T12:02:31Z</time>
      </trkpt>
      <trkpt lat="49.38121" lon="1.18771">
        <ele>136.1</ele>
        <time>2012-10-09T12:02:35Z</time>
      </trkpt>
      <trkpt lat="49.38116" lon="1.18764">
        <ele>136.5</ele>
        <time>2012-10-09T12:02:40Z</time>
      </trkpt>
      <trkpt lat="49.38111" lon="1.18758">
        <ele>136.5</ele>
        <time>2012-10-09T12:02:46Z</time>
      </trkpt>
      <trkpt lat="49.38107" lon="1.18752">
        <ele>136.3</ele>
        <time>2012-10-09T12:02:52Z</time>
      </trkpt>
      <trkpt lat="49.38103" lon="1.18747">
        <ele>135.6</ele>
        <time>2012-10-09T12:02:59Z</time>
      </trkpt>
      <trkpt lat="49.38098" lon="1.18746">
        <ele>135.6</ele>
        <time>2012-10-09T12:03:03Z</time>
      </trkpt>
      <trkpt lat="49.38092" lon="1.18747">
        <ele>135.8</ele>
        <time>2012-10-09T12:03:09Z</time>
      </trkpt>
      <trkpt lat="49.38086" lon="1.18749">
        <ele>136.3</ele>
        <time>2012-10-09T12:03:24Z</time>
      </trkpt>
      <trkpt lat="49.38084" lon="1.1875">
        <ele>136.3</ele>
        <time>2012-10-09T12:03:25Z</time>
      </trkpt>
      <trkpt lat="49.38075" lon="1.18752">
        <ele>136.8</ele>
        <time>2012-10-09T12:03:31Z</time>
      </trkpt>
      <trkpt lat="49.38069" lon="1.18751">
        <ele>136.5</ele>
        <time>2012-10-09T12:03:39Z</time>
      </trkpt>
      <trkpt lat="49.38063" lon="1.18751">
        <ele>137.6</ele>
        <time>2012-10-09T12:03:45Z</time>
      </trkpt>
      <trkpt lat="49.38058" lon="1.1875">
        <ele>137.6</ele>
        <time>2012-10-09T12:03:49Z</time>
      </trkpt>
      <trkpt lat="49.38053" lon="1.18748">
        <ele>138.1</ele>
        <time>2012-10-09T12:03:53Z</time>
      </trkpt>
      <trkpt lat="49.38047" lon="1.18746">
        <ele>138.6</ele>
        <time>2012-10-09T12:03:58Z</time>
      </trkpt>
      <trkpt lat="49.38041" lon="1.18744">
        <ele>139</ele>
        <time>2012-10-09T12:04:05Z</time>
      </trkpt>
      <trkpt lat="49.38036" lon="1.18744">
        <ele>140.1</ele>
        <time>2012-10-09T12:04:13Z</time>
      </trkpt>
      <trkpt lat="49.38031" lon="1.18745">
        <ele>140.6</ele>
        <time>2012-10-09T12:04:16Z</time>
      </trkpt>
      <trkpt lat="49.38026" lon="1.18745">
        <ele>141.3</ele>
        <time>2012-10-09T12:04:20Z</time>
      </trkpt>
      <trkpt lat="49.3802" lon="1.18747">
        <ele>141.1</ele>
        <time>2012-10-09T12:04:26Z</time>
      </trkpt>
      <trkpt lat="49.38019" lon="1.18747">
        <ele>140.8</ele>
        <time>2012-10-09T12:04:27Z</time>
      </trkpt>
      <trkpt lat="49.38008" lon="1.1875">
        <ele>141.1</ele>
        <time>2012-10-09T12:04:35Z</time>
      </trkpt>
      <trkpt lat="49.38002" lon="1.18752">
        <ele>141.8</ele>
        <time>2012-10-09T12:04:41Z</time>
      </trkpt>
      <trkpt lat="49.37997" lon="1.18753">
        <ele>142.3</ele>
        <time>2012-10-09T12:04:45Z</time>
      </trkpt>
      <trkpt lat="49.37992" lon="1.18757">
        <ele>142.1</ele>
        <time>2012-10-09T12:04:49Z</time>
      </trkpt>
      <trkpt lat="49.37986" lon="1.1876">
        <ele>142.1</ele>
        <time>2012-10-09T12:04:53Z</time>
      </trkpt>
      <trkpt lat="49.37982" lon="1.18762">
        <ele>141.6</ele>
        <time>2012-10-09T12:04:56Z</time>
      </trkpt>
      <trkpt lat="49.37977" lon="1.18765">
        <ele>142.3</ele>
        <time>2012-10-09T12:05:00Z</time>
      </trkpt>
      <trkpt lat="49.37971" lon="1.18767">
        <ele>142.1</ele>
        <time>2012-10-09T12:05:05Z</time>
      </trkpt>
      <trkpt lat="49.37966" lon="1.18771">
        <ele>142.3</ele>
        <time>2012-10-09T12:05:12Z</time>
      </trkpt>
      <trkpt lat="49.37962" lon="1.18773">
        <ele>142.1</ele>
        <time>2012-10-09T12:05:17Z</time>
      </trkpt>
      <trkpt lat="49.37956" lon="1.18777">
        <ele>142.6</ele>
        <time>2012-10-09T12:05:21Z</time>
      </trkpt>
      <trkpt lat="49.37952" lon="1.18781">
        <ele>142.5</ele>
        <time>2012-10-09T12:05:26Z</time>
      </trkpt>
      <trkpt lat="49.37947" lon="1.18787">
        <ele>143.1</ele>
        <time>2012-10-09T12:05:31Z</time>
      </trkpt>
      <trkpt lat="49.37946" lon="1.18788">
        <ele>143.5</ele>
        <time>2012-10-09T12:05:32Z</time>
      </trkpt>
      <trkpt lat="49.37938" lon="1.18793">
        <ele>143.1</ele>
        <time>2012-10-09T12:05:38Z</time>
      </trkpt>
      <trkpt lat="49.37932" lon="1.18796">
        <ele>143.3</ele>
        <time>2012-10-09T12:05:42Z</time>
      </trkpt>
      <trkpt lat="49.37926" lon="1.188">
        <ele>142.8</ele>
        <time>2012-10-09T12:05:46Z</time>
      </trkpt>
      <trkpt lat="49.37922" lon="1.18805">
        <ele>143.1</ele>
        <time>2012-10-09T12:05:50Z</time>
      </trkpt>
      <trkpt lat="49.37918" lon="1.18811">
        <ele>142.5</ele>
        <time>2012-10-09T12:05:54Z</time>
      </trkpt>
      <trkpt lat="49.37914" lon="1.18818">
        <ele>143.1</ele>
        <time>2012-10-09T12:05:58Z</time>
      </trkpt>
      <trkpt lat="49.37911" lon="1.18826">
        <ele>142.5</ele>
        <time>2012-10-09T12:06:03Z</time>
      </trkpt>
      <trkpt lat="49.37907" lon="1.18833">
        <ele>142.8</ele>
        <time>2012-10-09T12:06:09Z</time>
      </trkpt>
      <trkpt lat="49.37903" lon="1.18839">
        <ele>143.6</ele>
        <time>2012-10-09T12:06:14Z</time>
      </trkpt>
      <trkpt lat="49.37899" lon="1.18844">
        <ele>144.3</ele>
        <time>2012-10-09T12:06:20Z</time>
      </trkpt>
      <trkpt lat="49.37894" lon="1.1885">
        <ele>144.3</ele>
        <time>2012-10-09T12:06:27Z</time>
      </trkpt>
      <trkpt lat="49.3789" lon="1.18855">
        <ele>144</ele>
        <time>2012-10-09T12:06:31Z</time>
      </trkpt>
      <trkpt lat="49.37886" lon="1.18861">
        <ele>143.6</ele>
        <time>2012-10-09T12:06:35Z</time>
      </trkpt>
      <trkpt lat="49.37884" lon="1.18862">
        <ele>143.1</ele>
        <time>2012-10-09T12:06:36Z</time>
      </trkpt>
      <trkpt lat="49.37876" lon="1.18868">
        <ele>143.1</ele>
        <time>2012-10-09T12:06:43Z</time>
      </trkpt>
      <trkpt lat="49.37872" lon="1.18872">
        <ele>143.3</ele>
        <time>2012-10-09T12:06:47Z</time>
      </trkpt>
      <trkpt lat="49.37866" lon="1.18877">
        <ele>142.5</ele>
        <time>2012-10-09T12:06:51Z</time>
      </trkpt>
      <trkpt lat="49.37861" lon="1.1888">
        <ele>142.5</ele>
        <time>2012-10-09T12:06:55Z</time>
      </trkpt>
      <trkpt lat="49.37856" lon="1.18884">
        <ele>142.6</ele>
        <time>2012-10-09T12:06:59Z</time>
      </trkpt>
      <trkpt lat="49.37851" lon="1.18888">
        <ele>143.6</ele>
        <time>2012-10-09T12:07:03Z</time>
      </trkpt>
      <trkpt lat="49.37847" lon="1.18894">
        <ele>144.1</ele>
        <time>2012-10-09T12:07:08Z</time>
      </trkpt>
      <trkpt lat="49.37842" lon="1.18901">
        <ele>144.1</ele>
        <time>2012-10-09T12:07:13Z</time>
      </trkpt>
      <trkpt lat="49.37837" lon="1.18905">
        <ele>144.1</ele>
        <time>2012-10-09T12:07:18Z</time>
      </trkpt>
      <trkpt lat="49.37832" lon="1.18911">
        <ele>145.6</ele>
        <time>2012-10-09T12:07:23Z</time>
      </trkpt>
      <trkpt lat="49.37829" lon="1.18917">
        <ele>145.5</ele>
        <time>2012-10-09T12:07:27Z</time>
      </trkpt>
      <trkpt lat="49.37824" lon="1.18924">
        <ele>146.1</ele>
        <time>2012-10-09T12:07:32Z</time>
      </trkpt>
      <trkpt lat="49.37821" lon="1.18932">
        <ele>146.3</ele>
        <time>2012-10-09T12:07:37Z</time>
      </trkpt>
      <trkpt lat="49.3782" lon="1.18933">
        <ele>146.5</ele>
        <time>2012-10-09T12:07:38Z</time>
      </trkpt>
      <trkpt lat="49.37814" lon="1.18946">
        <ele>146.6</ele>
        <time>2012-10-09T12:07:47Z</time>
      </trkpt>
      <trkpt lat="49.37811" lon="1.18953">
        <ele>146.1</ele>
        <time>2012-10-09T12:07:51Z</time>
      </trkpt>
      <trkpt lat="49.37808" lon="1.1896">
        <ele>145.5</ele>
        <time>2012-10-09T12:07:55Z</time>
      </trkpt>
      <trkpt lat="49.37805" lon="1.18967">
        <ele>145.3</ele>
        <time>2012-10-09T12:07:59Z</time>
      </trkpt>
      <trkpt lat="49.37802" lon="1.18976">
        <ele>145</ele>
        <time>2012-10-09T12:08:24Z</time>
      </trkpt>
      <trkpt lat="49.37797" lon="1.18971">
        <ele>144.3</ele>
        <time>2012-10-09T12:08:31Z</time>
      </trkpt>
      <trkpt lat="49.37794" lon="1.18962">
        <ele>144.3</ele>
        <time>2012-10-09T12:08:36Z</time>
      </trkpt>
      <trkpt lat="49.37792" lon="1.18954">
        <ele>144.1</ele>
        <time>2012-10-09T12:08:43Z</time>
      </trkpt>
      <trkpt lat="49.37792" lon="1.18953">
        <ele>144.3</ele>
        <time>2012-10-09T12:08:44Z</time>
      </trkpt>
      <trkpt lat="49.37785" lon="1.18941">
        <ele>144.3</ele>
        <time>2012-10-09T12:09:14Z</time>
      </trkpt>
      <trkpt lat="49.3778" lon="1.18937">
        <ele>144.1</ele>
        <time>2012-10-09T12:09:19Z</time>
      </trkpt>
      <trkpt lat="49.37775" lon="1.18932">
        <ele>143.5</ele>
        <time>2012-10-09T12:09:24Z</time>
      </trkpt>
      <trkpt lat="49.37771" lon="1.18927">
        <ele>143.3</ele>
        <time>2012-10-09T12:09:30Z</time>
      </trkpt>
      <trkpt lat="49.37767" lon="1.18923">
        <ele>143.6</ele>
        <time>2012-10-09T12:09:34Z</time>
      </trkpt>
      <trkpt lat="49.37763" lon="1.18918">
        <ele>143.6</ele>
        <time>2012-10-09T12:09:38Z</time>
      </trkpt>
      <trkpt lat="49.37758" lon="1.18913">
        <ele>143.5</ele>
        <time>2012-10-09T12:09:42Z</time>
      </trkpt>
      <trkpt lat="49.37754" lon="1.18909">
        <ele>143.3</ele>
        <time>2012-10-09T12:09:46Z</time>
      </trkpt>
      <trkpt lat="49.37752" lon="1.18907">
        <ele>143.5</ele>
        <time>2012-10-09T12:09:47Z</time>
      </trkpt>
      <trkpt lat="49.37745" lon="1.18899">
        <ele>143.3</ele>
        <time>2012-10-09T12:09:54Z</time>
      </trkpt>
      <trkpt lat="49.3774" lon="1.18894">
        <ele>143.1</ele>
        <time>2012-10-09T12:10:00Z</time>
      </trkpt>
      <trkpt lat="49.37735" lon="1.1889">
        <ele>143.3</ele>
        <time>2012-10-09T12:10:04Z</time>
      </trkpt>
      <trkpt lat="49.3773" lon="1.18885">
        <ele>143.3</ele>
        <time>2012-10-09T12:10:10Z</time>
      </trkpt>
      <trkpt lat="49.37726" lon="1.18881">
        <ele>144</ele>
        <time>2012-10-09T12:10:14Z</time>
      </trkpt>
      <trkpt lat="49.37721" lon="1.18878">
        <ele>143.3</ele>
        <time>2012-10-09T12:10:18Z</time>
      </trkpt>
      <trkpt lat="49.37717" lon="1.18873">
        <ele>142.8</ele>
        <time>2012-10-09T12:10:21Z</time>
      </trkpt>
      <trkpt lat="49.37713" lon="1.18869">
        <ele>142.1</ele>
        <time>2012-10-09T12:10:24Z</time>
      </trkpt>
      <trkpt lat="49.37709" lon="1.18865">
        <ele>142.6</ele>
        <time>2012-10-09T12:10:28Z</time>
      </trkpt>
      <trkpt lat="49.37705" lon="1.18859">
        <ele>142</ele>
        <time>2012-10-09T12:10:32Z</time>
      </trkpt>
      <trkpt lat="49.37701" lon="1.18854">
        <ele>141.8</ele>
        <time>2012-10-09T12:10:37Z</time>
      </trkpt>
      <trkpt lat="49.37697" lon="1.18849">
        <ele>141.8</ele>
        <time>2012-10-09T12:10:41Z</time>
      </trkpt>
      <trkpt lat="49.37692" lon="1.18844">
        <ele>141.6</ele>
        <time>2012-10-09T12:10:45Z</time>
      </trkpt>
      <trkpt lat="49.37688" lon="1.18838">
        <ele>141.6</ele>
        <time>2012-10-09T12:10:49Z</time>
      </trkpt>
      <trkpt lat="49.37687" lon="1.18837">
        <ele>141.5</ele>
        <time>2012-10-09T12:10:50Z</time>
      </trkpt>
      <trkpt lat="49.37679" lon="1.18826">
        <ele>141.8</ele>
        <time>2012-10-09T12:11:00Z</time>
      </trkpt>
      <trkpt lat="49.37675" lon="1.18821">
        <ele>142.1</ele>
        <time>2012-10-09T12:11:06Z</time>
      </trkpt>
      <trkpt lat="49.37671" lon="1.18815">
        <ele>142</ele>
        <time>2012-10-09T12:11:10Z</time>
      </trkpt>
      <trkpt lat="49.37667" lon="1.18808">
        <ele>141.6</ele>
        <time>2012-10-09T12:11:15Z</time>
      </trkpt>
      <trkpt lat="49.37664" lon="1.18803">
        <ele>141.8</ele>
        <time>2012-10-09T12:11:19Z</time>
      </trkpt>
      <trkpt lat="49.3766" lon="1.18797">
        <ele>141.3</ele>
        <time>2012-10-09T12:11:22Z</time>
      </trkpt>
      <trkpt lat="49.37657" lon="1.18792">
        <ele>141.6</ele>
        <time>2012-10-09T12:11:25Z</time>
      </trkpt>
      <trkpt lat="49.37652" lon="1.18786">
        <ele>140.8</ele>
        <time>2012-10-09T12:11:29Z</time>
      </trkpt>
      <trkpt lat="49.37648" lon="1.1878">
        <ele>140.8</ele>
        <time>2012-10-09T12:11:33Z</time>
      </trkpt>
      <trkpt lat="49.37644" lon="1.18774">
        <ele>140.8</ele>
        <time>2012-10-09T12:11:38Z</time>
      </trkpt>
      <trkpt lat="49.3764" lon="1.18767">
        <ele>141</ele>
        <time>2012-10-09T12:11:43Z</time>
      </trkpt>
      <trkpt lat="49.37636" lon="1.18761">
        <ele>140.8</ele>
        <time>2012-10-09T12:11:48Z</time>
      </trkpt>
      <trkpt lat="49.37632" lon="1.18755">
        <ele>140.3</ele>
        <time>2012-10-09T12:11:55Z</time>
      </trkpt>
      <trkpt lat="49.37631" lon="1.18754">
        <ele>140.5</ele>
        <time>2012-10-09T12:11:56Z</time>
      </trkpt>
      <trkpt lat="49.37623" lon="1.18745">
        <ele>140.6</ele>
        <time>2012-10-09T12:12:03Z</time>
      </trkpt>
      <trkpt lat="49.3762" lon="1.18738">
        <ele>140.5</ele>
        <time>2012-10-09T12:12:08Z</time>
      </trkpt>
      <trkpt lat="49.37616" lon="1.18733">
        <ele>140.8</ele>
        <time>2012-10-09T12:12:12Z</time>
      </trkpt>
      <trkpt lat="49.37611" lon="1.18727">
        <ele>140.6</ele>
        <time>2012-10-09T12:12:19Z</time>
      </trkpt>
      <trkpt lat="49.37607" lon="1.18721">
        <ele>140.6</ele>
        <time>2012-10-09T12:12:26Z</time>
      </trkpt>
      <trkpt lat="49.37603" lon="1.18713">
        <ele>140.8</ele>
        <time>2012-10-09T12:12:44Z</time>
      </trkpt>
      <trkpt lat="49.37599" lon="1.18707">
        <ele>140.8</ele>
        <time>2012-10-09T12:12:49Z</time>
      </trkpt>
      <trkpt lat="49.37595" lon="1.18701">
        <ele>140.6</ele>
        <time>2012-10-09T12:12:55Z</time>
      </trkpt>
      <trkpt lat="49.37591" lon="1.18696">
        <ele>140.5</ele>
        <time>2012-10-09T12:13:00Z</time>
      </trkpt>
      <trkpt lat="49.3759" lon="1.18695">
        <ele>140.5</ele>
        <time>2012-10-09T12:13:01Z</time>
      </trkpt>
      <trkpt lat="49.37582" lon="1.18686">
        <ele>140.1</ele>
        <time>2012-10-09T12:13:08Z</time>
      </trkpt>
      <trkpt lat="49.37578" lon="1.1868">
        <ele>140.3</ele>
        <time>2012-10-09T12:13:12Z</time>
      </trkpt>
      <trkpt lat="49.37574" lon="1.18675">
        <ele>140.3</ele>
        <time>2012-10-09T12:13:16Z</time>
      </trkpt>
      <trkpt lat="49.37569" lon="1.18669">
        <ele>139.6</ele>
        <time>2012-10-09T12:13:20Z</time>
      </trkpt>
      <trkpt lat="49.37564" lon="1.18664">
        <ele>139.6</ele>
        <time>2012-10-09T12:13:25Z</time>
      </trkpt>
      <trkpt lat="49.3756" lon="1.18659">
        <ele>139.8</ele>
        <time>2012-10-09T12:13:29Z</time>
      </trkpt>
      <trkpt lat="49.37555" lon="1.18653">
        <ele>139.8</ele>
        <time>2012-10-09T12:13:34Z</time>
      </trkpt>
      <trkpt lat="49.37551" lon="1.18649">
        <ele>140.1</ele>
        <time>2012-10-09T12:13:38Z</time>
      </trkpt>
      <trkpt lat="49.37546" lon="1.18645">
        <ele>139.1</ele>
        <time>2012-10-09T12:13:42Z</time>
      </trkpt>
      <trkpt lat="49.37542" lon="1.1864">
        <ele>138.8</ele>
        <time>2012-10-09T12:13:47Z</time>
      </trkpt>
      <trkpt lat="49.37537" lon="1.18635">
        <ele>138.3</ele>
        <time>2012-10-09T12:13:53Z</time>
      </trkpt>
      <trkpt lat="49.37533" lon="1.1863">
        <ele>137.3</ele>
        <time>2012-10-09T12:13:59Z</time>
      </trkpt>
      <trkpt lat="49.37529" lon="1.18623">
        <ele>137.1</ele>
        <time>2012-10-09T12:14:09Z</time>
      </trkpt>
      <trkpt lat="49.37528" lon="1.18622">
        <ele>136.8</ele>
        <time>2012-10-09T12:14:10Z</time>
      </trkpt>
      <trkpt lat="49.3752" lon="1.1861">
        <ele>138.1</ele>
        <time>2012-10-09T12:15:50Z</time>
      </trkpt>
      <trkpt lat="49.37519" lon="1.1861">
        <ele>137.8</ele>
        <time>2012-10-09T12:15:51Z</time>
      </trkpt>
      <trkpt lat="49.37509" lon="1.18603">
        <ele>138</ele>
        <time>2012-10-09T12:16:40Z</time>
      </trkpt>
      <trkpt lat="49.37505" lon="1.18596">
        <ele>139.1</ele>
        <time>2012-10-09T12:16:47Z</time>
      </trkpt>
      <trkpt lat="49.375" lon="1.18591">
        <ele>139.1</ele>
        <time>2012-10-09T12:16:55Z</time>
      </trkpt>
      <trkpt lat="49.37499" lon="1.18589">
        <ele>139</ele>
        <time>2012-10-09T12:16:56Z</time>
      </trkpt>
      <trkpt lat="49.3749" lon="1.1858">
        <ele>140.1</ele>
        <time>2012-10-09T12:17:07Z</time>
      </trkpt>
      <trkpt lat="49.37487" lon="1.18574">
        <ele>140.8</ele>
        <time>2012-10-09T12:17:13Z</time>
      </trkpt>
      <trkpt lat="49.37483" lon="1.18569">
        <ele>140.8</ele>
        <time>2012-10-09T12:17:17Z</time>
      </trkpt>
      <trkpt lat="49.37479" lon="1.18563">
        <ele>140.6</ele>
        <time>2012-10-09T12:17:21Z</time>
      </trkpt>
      <trkpt lat="49.37475" lon="1.18556">
        <ele>140.6</ele>
        <time>2012-10-09T12:17:25Z</time>
      </trkpt>
      <trkpt lat="49.37471" lon="1.18551">
        <ele>140.3</ele>
        <time>2012-10-09T12:17:28Z</time>
      </trkpt>
      <trkpt lat="49.37466" lon="1.18546">
        <ele>140.8</ele>
        <time>2012-10-09T12:17:32Z</time>
      </trkpt>
      <trkpt lat="49.37462" lon="1.18541">
        <ele>142</ele>
        <time>2012-10-09T12:17:40Z</time>
      </trkpt>
      <trkpt lat="49.37456" lon="1.18537">
        <ele>140.8</ele>
        <time>2012-10-09T12:17:44Z</time>
      </trkpt>
      <trkpt lat="49.37451" lon="1.18531">
        <ele>140.8</ele>
        <time>2012-10-09T12:17:48Z</time>
      </trkpt>
      <trkpt lat="49.37447" lon="1.18525">
        <ele>141.1</ele>
        <time>2012-10-09T12:17:52Z</time>
      </trkpt>
      <trkpt lat="49.37443" lon="1.1852">
        <ele>141.6</ele>
        <time>2012-10-09T12:17:57Z</time>
      </trkpt>
      <trkpt lat="49.37442" lon="1.18519">
        <ele>142.1</ele>
        <time>2012-10-09T12:17:58Z</time>
      </trkpt>
      <trkpt lat="49.37433" lon="1.1851">
        <ele>141.3</ele>
        <time>2012-10-09T12:18:06Z</time>
      </trkpt>
      <trkpt lat="49.37428" lon="1.18504">
        <ele>140.6</ele>
        <time>2012-10-09T12:18:10Z</time>
      </trkpt>
      <trkpt lat="49.37424" lon="1.18499">
        <ele>141.6</ele>
        <time>2012-10-09T12:18:15Z</time>
      </trkpt>
      <trkpt lat="49.37421" lon="1.18492">
        <ele>142.1</ele>
        <time>2012-10-09T12:18:24Z</time>
      </trkpt>
      <trkpt lat="49.37417" lon="1.18486">
        <ele>141.6</ele>
        <time>2012-10-09T12:18:30Z</time>
      </trkpt>
      <trkpt lat="49.37415" lon="1.1848">
        <ele>143.6</ele>
        <time>2012-10-09T12:18:38Z</time>
      </trkpt>
      <trkpt lat="49.3741" lon="1.18476">
        <ele>143.1</ele>
        <time>2012-10-09T12:18:42Z</time>
      </trkpt>
      <trkpt lat="49.37406" lon="1.18469">
        <ele>142.1</ele>
        <time>2012-10-09T12:18:46Z</time>
      </trkpt>
      <trkpt lat="49.37403" lon="1.18464">
        <ele>142</ele>
        <time>2012-10-09T12:18:50Z</time>
      </trkpt>
      <trkpt lat="49.37398" lon="1.18457">
        <ele>141.3</ele>
        <time>2012-10-09T12:18:54Z</time>
      </trkpt>
      <trkpt lat="49.37393" lon="1.18453">
        <ele>141.8</ele>
        <time>2012-10-09T12:18:58Z</time>
      </trkpt>
      <trkpt lat="49.37389" lon="1.18449">
        <ele>141.6</ele>
        <time>2012-10-09T12:19:02Z</time>
      </trkpt>
      <trkpt lat="49.37387" lon="1.18447">
        <ele>141.8</ele>
        <time>2012-10-09T12:19:03Z</time>
      </trkpt>
      <trkpt lat="49.37379" lon="1.18439">
        <ele>143.1</ele>
        <time>2012-10-09T12:19:13Z</time>
      </trkpt>
      <trkpt lat="49.37375" lon="1.18435">
        <ele>143.8</ele>
        <time>2012-10-09T12:19:17Z</time>
      </trkpt>
      <trkpt lat="49.37371" lon="1.18429">
        <ele>141.8</ele>
        <time>2012-10-09T12:19:21Z</time>
      </trkpt>
      <trkpt lat="49.37367" lon="1.18425">
        <ele>140.8</ele>
        <time>2012-10-09T12:19:24Z</time>
      </trkpt>
      <trkpt lat="49.37362" lon="1.18422">
        <ele>140.3</ele>
        <time>2012-10-09T12:19:28Z</time>
      </trkpt>
      <trkpt lat="49.37357" lon="1.18421">
        <ele>141.5</ele>
        <time>2012-10-09T12:19:38Z</time>
      </trkpt>
      <trkpt lat="49.37352" lon="1.18417">
        <ele>140.6</ele>
        <time>2012-10-09T12:19:42Z</time>
      </trkpt>
      <trkpt lat="49.37347" lon="1.18415">
        <ele>139.6</ele>
        <time>2012-10-09T12:19:47Z</time>
      </trkpt>
      <trkpt lat="49.37342" lon="1.18411">
        <ele>139.6</ele>
        <time>2012-10-09T12:19:51Z</time>
      </trkpt>
      <trkpt lat="49.37336" lon="1.18407">
        <ele>137.6</ele>
        <time>2012-10-09T12:19:59Z</time>
      </trkpt>
      <trkpt lat="49.37331" lon="1.18407">
        <ele>137.6</ele>
        <time>2012-10-09T12:20:05Z</time>
      </trkpt>
      <trkpt lat="49.37329" lon="1.18408">
        <ele>138</ele>
        <time>2012-10-09T12:20:06Z</time>
      </trkpt>
      <trkpt lat="49.3732" lon="1.18411">
        <ele>137.6</ele>
        <time>2012-10-09T12:20:11Z</time>
      </trkpt>
      <trkpt lat="49.37315" lon="1.18415">
        <ele>137.6</ele>
        <time>2012-10-09T12:20:15Z</time>
      </trkpt>
      <trkpt lat="49.37311" lon="1.18414">
        <ele>137.6</ele>
        <time>2012-10-09T12:20:17Z</time>
      </trkpt>
      <trkpt lat="49.37305" lon="1.18413">
        <ele>136.8</ele>
        <time>2012-10-09T12:20:20Z</time>
      </trkpt>
      <trkpt lat="49.37301" lon="1.18417">
        <ele>137.6</ele>
        <time>2012-10-09T12:20:26Z</time>
      </trkpt>
      <trkpt lat="49.37296" lon="1.18417">
        <ele>137.6</ele>
        <time>2012-10-09T12:20:28Z</time>
      </trkpt>
      <trkpt lat="49.37292" lon="1.1842">
        <ele>137.6</ele>
        <time>2012-10-09T12:20:31Z</time>
      </trkpt>
      <trkpt lat="49.37288" lon="1.18424">
        <ele>135.6</ele>
        <time>2012-10-09T12:20:34Z</time>
      </trkpt>
      <trkpt lat="49.37283" lon="1.18429">
        <ele>135.6</ele>
        <time>2012-10-09T12:20:37Z</time>
      </trkpt>
      <trkpt lat="49.37279" lon="1.18435">
        <ele>134</ele>
        <time>2012-10-09T12:20:40Z</time>
      </trkpt>
      <trkpt lat="49.37274" lon="1.18439">
        <ele>134</ele>
        <time>2012-10-09T12:20:44Z</time>
      </trkpt>
      <trkpt lat="49.3727" lon="1.18442">
        <ele>133.5</ele>
        <time>2012-10-09T12:20:47Z</time>
      </trkpt>
      <trkpt lat="49.37264" lon="1.18446">
        <ele>133.1</ele>
        <time>2012-10-09T12:20:51Z</time>
      </trkpt>
      <trkpt lat="49.37258" lon="1.18449">
        <ele>132.1</ele>
        <time>2012-10-09T12:20:58Z</time>
      </trkpt>
      <trkpt lat="49.37252" lon="1.1845">
        <ele>132</ele>
        <time>2012-10-09T12:21:03Z</time>
      </trkpt>
      <trkpt lat="49.37247" lon="1.18447">
        <ele>132.5</ele>
        <time>2012-10-09T12:21:07Z</time>
      </trkpt>
      <trkpt lat="49.37245" lon="1.18447">
        <ele>132.6</ele>
        <time>2012-10-09T12:21:08Z</time>
      </trkpt>
      <trkpt lat="49.37235" lon="1.18449">
        <ele>132.8</ele>
        <time>2012-10-09T12:21:17Z</time>
      </trkpt>
      <trkpt lat="49.3723" lon="1.18448">
        <ele>133.6</ele>
        <time>2012-10-09T12:21:24Z</time>
      </trkpt>
      <trkpt lat="49.37225" lon="1.18447">
        <ele>133.8</ele>
        <time>2012-10-09T12:21:26Z</time>
      </trkpt>
      <trkpt lat="49.3722" lon="1.18446">
        <ele>133.8</ele>
        <time>2012-10-09T12:21:33Z</time>
      </trkpt>
      <trkpt lat="49.37214" lon="1.18445">
        <ele>133.3</ele>
        <time>2012-10-09T12:21:36Z</time>
      </trkpt>
      <trkpt lat="49.37209" lon="1.18446">
        <ele>134.1</ele>
        <time>2012-10-09T12:21:39Z</time>
      </trkpt>
      <trkpt lat="49.37204" lon="1.18447">
        <ele>132.6</ele>
        <time>2012-10-09T12:21:42Z</time>
      </trkpt>
      <trkpt lat="49.37198" lon="1.18448">
        <ele>131.6</ele>
        <time>2012-10-09T12:21:46Z</time>
      </trkpt>
      <trkpt lat="49.37192" lon="1.18447">
        <ele>130.3</ele>
        <time>2012-10-09T12:21:53Z</time>
      </trkpt>
      <trkpt lat="49.37186" lon="1.18447">
        <ele>127.8</ele>
        <time>2012-10-09T12:21:58Z</time>
      </trkpt>
      <trkpt lat="49.3718" lon="1.18447">
        <ele>124.6</ele>
        <time>2012-10-09T12:22:05Z</time>
      </trkpt>
      <trkpt lat="49.37174" lon="1.18445">
        <ele>123</ele>
        <time>2012-10-09T12:22:09Z</time>
      </trkpt>
      <trkpt lat="49.37172" lon="1.18444">
        <ele>122</ele>
        <time>2012-10-09T12:22:10Z</time>
      </trkpt>
      <trkpt lat="49.37163" lon="1.18442">
        <ele>117.8</ele>
        <time>2012-10-09T12:22:20Z</time>
      </trkpt>
      <trkpt lat="49.37158" lon="1.18439">
        <ele>117.1</ele>
        <time>2012-10-09T12:22:24Z</time>
      </trkpt>
      <trkpt lat="49.37152" lon="1.18437">
        <ele>116.8</ele>
        <time>2012-10-09T12:22:30Z</time>
      </trkpt>
      <trkpt lat="49.37148" lon="1.18435">
        <ele>115.9</ele>
        <time>2012-10-09T12:22:33Z</time>
      </trkpt>
      <trkpt lat="49.37142" lon="1.18433">
        <ele>115.3</ele>
        <time>2012-10-09T12:22:37Z</time>
      </trkpt>
      <trkpt lat="49.37136" lon="1.18431">
        <ele>115</ele>
        <time>2012-10-09T12:22:44Z</time>
      </trkpt>
      <trkpt lat="49.37131" lon="1.1843">
        <ele>114.1</ele>
        <time>2012-10-09T12:22:47Z</time>
      </trkpt>
      <trkpt lat="49.37126" lon="1.18428">
        <ele>113.5</ele>
        <time>2012-10-09T12:22:50Z</time>
      </trkpt>
      <trkpt lat="49.37122" lon="1.18427">
        <ele>113.9</ele>
        <time>2012-10-09T12:22:54Z</time>
      </trkpt>
      <trkpt lat="49.37117" lon="1.18425">
        <ele>112.9</ele>
        <time>2012-10-09T12:22:57Z</time>
      </trkpt>
      <trkpt lat="49.37111" lon="1.18422">
        <ele>112.1</ele>
        <time>2012-10-09T12:23:00Z</time>
      </trkpt>
      <trkpt lat="49.37105" lon="1.1842">
        <ele>111.9</ele>
        <time>2012-10-09T12:23:04Z</time>
      </trkpt>
      <trkpt lat="49.37099" lon="1.18418">
        <ele>111.9</ele>
        <time>2012-10-09T12:23:08Z</time>
      </trkpt>
      <trkpt lat="49.37094" lon="1.18416">
        <ele>111.1</ele>
        <time>2012-10-09T12:23:12Z</time>
      </trkpt>
      <trkpt lat="49.37093" lon="1.18416">
        <ele>111</ele>
        <time>2012-10-09T12:23:13Z</time>
      </trkpt>
      <trkpt lat="49.37083" lon="1.18415">
        <ele>110.1</ele>
        <time>2012-10-09T12:23:21Z</time>
      </trkpt>
      <trkpt lat="49.37078" lon="1.18416">
        <ele>109.5</ele>
        <time>2012-10-09T12:23:25Z</time>
      </trkpt>
      <trkpt lat="49.37072" lon="1.18416">
        <ele>108.8</ele>
        <time>2012-10-09T12:23:30Z</time>
      </trkpt>
      <trkpt lat="49.37067" lon="1.18417">
        <ele>108.8</ele>
        <time>2012-10-09T12:23:34Z</time>
      </trkpt>
      <trkpt lat="49.37061" lon="1.1842">
        <ele>108.6</ele>
        <time>2012-10-09T12:23:39Z</time>
      </trkpt>
      <trkpt lat="49.37055" lon="1.18421">
        <ele>108.5</ele>
        <time>2012-10-09T12:23:43Z</time>
      </trkpt>
      <trkpt lat="49.37049" lon="1.18422">
        <ele>109.1</ele>
        <time>2012-10-09T12:23:48Z</time>
      </trkpt>
      <trkpt lat="49.37043" lon="1.18425">
        <ele>108.5</ele>
        <time>2012-10-09T12:23:53Z</time>
      </trkpt>
      <trkpt lat="49.37038" lon="1.1843">
        <ele>107.5</ele>
        <time>2012-10-09T12:23:58Z</time>
      </trkpt>
      <trkpt lat="49.37033" lon="1.18435">
        <ele>108</ele>
        <time>2012-10-09T12:24:03Z</time>
      </trkpt>
      <trkpt lat="49.37028" lon="1.18439">
        <ele>107.4</ele>
        <time>2012-10-09T12:24:08Z</time>
      </trkpt>
      <trkpt lat="49.37022" lon="1.18439">
        <ele>107.8</ele>
        <time>2012-10-09T12:24:16Z</time>
      </trkpt>
      <trkpt lat="49.37021" lon="1.18438">
        <ele>107.8</ele>
        <time>2012-10-09T12:24:17Z</time>
      </trkpt>
      <trkpt lat="49.37015" lon="1.18426">
        <ele>108.5</ele>
        <time>2012-10-09T12:24:29Z</time>
      </trkpt>
      <trkpt lat="49.37011" lon="1.1842">
        <ele>107.9</ele>
        <time>2012-10-09T12:24:37Z</time>
      </trkpt>
      <trkpt lat="49.37006" lon="1.18414">
        <ele>107.4</ele>
        <time>2012-10-09T12:24:43Z</time>
      </trkpt>
      <trkpt lat="49.37002" lon="1.18408">
        <ele>107.5</ele>
        <time>2012-10-09T12:24:55Z</time>
      </trkpt>
      <trkpt lat="49.36998" lon="1.18402">
        <ele>107.9</ele>
        <time>2012-10-09T12:25:03Z</time>
      </trkpt>
      <trkpt lat="49.36995" lon="1.18395">
        <ele>108.1</ele>
        <time>2012-10-09T12:25:09Z</time>
      </trkpt>
      <trkpt lat="49.3699" lon="1.1839">
        <ele>108.8</ele>
        <time>2012-10-09T12:25:13Z</time>
      </trkpt>
      <trkpt lat="49.36988" lon="1.18381">
        <ele>109</ele>
        <time>2012-10-09T12:25:18Z</time>
      </trkpt>
      <trkpt lat="49.36987" lon="1.18379">
        <ele>109.8</ele>
        <time>2012-10-09T12:25:19Z</time>
      </trkpt>
      <trkpt lat="49.36981" lon="1.18365">
        <ele>110.9</ele>
        <time>2012-10-09T12:25:27Z</time>
      </trkpt>
      <trkpt lat="49.36978" lon="1.18359">
        <ele>110.5</ele>
        <time>2012-10-09T12:25:34Z</time>
      </trkpt>
      <trkpt lat="49.36974" lon="1.18353">
        <ele>111.3</ele>
        <time>2012-10-09T12:25:43Z</time>
      </trkpt>
      <trkpt lat="49.36971" lon="1.18347">
        <ele>112</ele>
        <time>2012-10-09T12:25:47Z</time>
      </trkpt>
      <trkpt lat="49.36967" lon="1.18341">
        <ele>113.4</ele>
        <time>2012-10-09T12:25:52Z</time>
      </trkpt>
      <trkpt lat="49.36963" lon="1.18335">
        <ele>114.4</ele>
        <time>2012-10-09T12:25:57Z</time>
      </trkpt>
      <trkpt lat="49.36959" lon="1.18329">
        <ele>114.6</ele>
        <time>2012-10-09T12:26:01Z</time>
      </trkpt>
      <trkpt lat="49.36955" lon="1.18323">
        <ele>116.5</ele>
        <time>2012-10-09T12:26:06Z</time>
      </trkpt>
      <trkpt lat="49.3695" lon="1.18316">
        <ele>118</ele>
        <time>2012-10-09T12:26:10Z</time>
      </trkpt>
      <trkpt lat="49.36948" lon="1.18309">
        <ele>118.8</ele>
        <time>2012-10-09T12:26:18Z</time>
      </trkpt>
      <trkpt lat="49.36944" lon="1.18302">
        <ele>118.1</ele>
        <time>2012-10-09T12:26:45Z</time>
      </trkpt>
      <trkpt lat="49.36944" lon="1.18301">
        <ele>118.1</ele>
        <time>2012-10-09T12:26:46Z</time>
      </trkpt>
      <trkpt lat="49.3694" lon="1.18285">
        <ele>119.5</ele>
        <time>2012-10-09T12:27:01Z</time>
      </trkpt>
      <trkpt lat="49.36937" lon="1.18277">
        <ele>120</ele>
        <time>2012-10-09T12:27:09Z</time>
      </trkpt>
      <trkpt lat="49.36934" lon="1.18269">
        <ele>121</ele>
        <time>2012-10-09T12:27:14Z</time>
      </trkpt>
      <trkpt lat="49.36931" lon="1.18263">
        <ele>121.1</ele>
        <time>2012-10-09T12:27:19Z</time>
      </trkpt>
      <trkpt lat="49.36928" lon="1.18256">
        <ele>122.3</ele>
        <time>2012-10-09T12:27:26Z</time>
      </trkpt>
      <trkpt lat="49.36924" lon="1.18249">
        <ele>122.8</ele>
        <time>2012-10-09T12:27:30Z</time>
      </trkpt>
      <trkpt lat="49.3692" lon="1.18241">
        <ele>123.3</ele>
        <time>2012-10-09T12:27:35Z</time>
      </trkpt>
      <trkpt lat="49.36917" lon="1.18234">
        <ele>124.8</ele>
        <time>2012-10-09T12:27:42Z</time>
      </trkpt>
      <trkpt lat="49.36913" lon="1.18226">
        <ele>126.1</ele>
        <time>2012-10-09T12:27:50Z</time>
      </trkpt>
      <trkpt lat="49.36912" lon="1.18225">
        <ele>126.4</ele>
        <time>2012-10-09T12:27:51Z</time>
      </trkpt>
      <trkpt lat="49.36904" lon="1.18214">
        <ele>128</ele>
        <time>2012-10-09T12:28:01Z</time>
      </trkpt>
      <trkpt lat="49.369" lon="1.18209">
        <ele>128.1</ele>
        <time>2012-10-09T12:28:07Z</time>
      </trkpt>
      <trkpt lat="49.36896" lon="1.18201">
        <ele>128.8</ele>
        <time>2012-10-09T12:28:11Z</time>
      </trkpt>
      <trkpt lat="49.36891" lon="1.18197">
        <ele>129.1</ele>
        <time>2012-10-09T12:28:16Z</time>
      </trkpt>
      <trkpt lat="49.36886" lon="1.18193">
        <ele>129.1</ele>
        <time>2012-10-09T12:28:21Z</time>
      </trkpt>
      <trkpt lat="49.3688" lon="1.1819">
        <ele>129.6</ele>
        <time>2012-10-09T12:32:46Z</time>
      </trkpt>
      <trkpt lat="49.3688" lon="1.1819">
        <ele>129.8</ele>
        <time>2012-10-09T12:32:47Z</time>
      </trkpt>
      <trkpt lat="49.36869" lon="1.1819">
        <ele>131</ele>
        <time>2012-10-09T12:33:02Z</time>
      </trkpt>
      <trkpt lat="49.36864" lon="1.18191">
        <ele>130.8</ele>
        <time>2012-10-09T12:33:06Z</time>
      </trkpt>
      <trkpt lat="49.36859" lon="1.18191">
        <ele>132</ele>
        <time>2012-10-09T12:33:11Z</time>
      </trkpt>
      <trkpt lat="49.36853" lon="1.18191">
        <ele>132</ele>
        <time>2012-10-09T12:33:15Z</time>
      </trkpt>
      <trkpt lat="49.36848" lon="1.18191">
        <ele>132.6</ele>
        <time>2012-10-09T12:33:19Z</time>
      </trkpt>
      <trkpt lat="49.36842" lon="1.18191">
        <ele>133.1</ele>
        <time>2012-10-09T12:33:23Z</time>
      </trkpt>
      <trkpt lat="49.36837" lon="1.1819">
        <ele>133.3</ele>
        <time>2012-10-09T12:33:26Z</time>
      </trkpt>
      <trkpt lat="49.36831" lon="1.18189">
        <ele>134.3</ele>
        <time>2012-10-09T12:33:30Z</time>
      </trkpt>
      <trkpt lat="49.36825" lon="1.18188">
        <ele>134.8</ele>
        <time>2012-10-09T12:33:34Z</time>
      </trkpt>
      <trkpt lat="49.3682" lon="1.18187">
        <ele>135.1</ele>
        <time>2012-10-09T12:33:38Z</time>
      </trkpt>
      <trkpt lat="49.36814" lon="1.18186">
        <ele>135.5</ele>
        <time>2012-10-09T12:33:42Z</time>
      </trkpt>
      <trkpt lat="49.36809" lon="1.18183">
        <ele>136.3</ele>
        <time>2012-10-09T12:33:46Z</time>
      </trkpt>
      <trkpt lat="49.36804" lon="1.18181">
        <ele>136.8</ele>
        <time>2012-10-09T12:33:50Z</time>
      </trkpt>
      <trkpt lat="49.36802" lon="1.1818">
        <ele>137.1</ele>
        <time>2012-10-09T12:33:51Z</time>
      </trkpt>
      <trkpt lat="49.36793" lon="1.18176">
        <ele>137.5</ele>
        <time>2012-10-09T12:33:58Z</time>
      </trkpt>
      <trkpt lat="49.36787" lon="1.18174">
        <ele>137.3</ele>
        <time>2012-10-09T12:34:03Z</time>
      </trkpt>
      <trkpt lat="49.36782" lon="1.18173">
        <ele>137.8</ele>
        <time>2012-10-09T12:34:08Z</time>
      </trkpt>
      <trkpt lat="49.36776" lon="1.18169">
        <ele>138.1</ele>
        <time>2012-10-09T12:34:14Z</time>
      </trkpt>
      <trkpt lat="49.36771" lon="1.18167">
        <ele>138.6</ele>
        <time>2012-10-09T12:34:22Z</time>
      </trkpt>
      <trkpt lat="49.36765" lon="1.18164">
        <ele>138.8</ele>
        <time>2012-10-09T12:34:28Z</time>
      </trkpt>
      <trkpt lat="49.3676" lon="1.1816">
        <ele>139</ele>
        <time>2012-10-09T12:34:32Z</time>
      </trkpt>
      <trkpt lat="49.36754" lon="1.18158">
        <ele>138.8</ele>
        <time>2012-10-09T12:34:36Z</time>
      </trkpt>
      <trkpt lat="49.36749" lon="1.18155">
        <ele>139.3</ele>
        <time>2012-10-09T12:34:40Z</time>
      </trkpt>
      <trkpt lat="49.36743" lon="1.18154">
        <ele>139.3</ele>
        <time>2012-10-09T12:34:44Z</time>
      </trkpt>
      <trkpt lat="49.36738" lon="1.18152">
        <ele>139.5</ele>
        <time>2012-10-09T12:34:48Z</time>
      </trkpt>
      <trkpt lat="49.36732" lon="1.1815">
        <ele>140.6</ele>
        <time>2012-10-09T12:34:52Z</time>
      </trkpt>
      <trkpt lat="49.36731" lon="1.18149">
        <ele>140.6</ele>
        <time>2012-10-09T12:34:53Z</time>
      </trkpt>
      <trkpt lat="49.36722" lon="1.18147">
        <ele>141.8</ele>
        <time>2012-10-09T12:35:00Z</time>
      </trkpt>
      <trkpt lat="49.36716" lon="1.18145">
        <ele>142.3</ele>
        <time>2012-10-09T12:35:04Z</time>
      </trkpt>
      <trkpt lat="49.36712" lon="1.18143">
        <ele>142.5</ele>
        <time>2012-10-09T12:35:08Z</time>
      </trkpt>
      <trkpt lat="49.36706" lon="1.18142">
        <ele>143.1</ele>
        <time>2012-10-09T12:35:12Z</time>
      </trkpt>
      <trkpt lat="49.36701" lon="1.1814">
        <ele>142.5</ele>
        <time>2012-10-09T12:35:16Z</time>
      </trkpt>
      <trkpt lat="49.36695" lon="1.18139">
        <ele>142.8</ele>
        <time>2012-10-09T12:35:21Z</time>
      </trkpt>
      <trkpt lat="49.3669" lon="1.18137">
        <ele>143</ele>
        <time>2012-10-09T12:35:25Z</time>
      </trkpt>
      <trkpt lat="49.36684" lon="1.18136">
        <ele>143.1</ele>
        <time>2012-10-09T12:35:31Z</time>
      </trkpt>
      <trkpt lat="49.36679" lon="1.18137">
        <ele>143</ele>
        <time>2012-10-09T12:35:35Z</time>
      </trkpt>
      <trkpt lat="49.36673" lon="1.18135">
        <ele>143.3</ele>
        <time>2012-10-09T12:35:39Z</time>
      </trkpt>
      <trkpt lat="49.36667" lon="1.18134">
        <ele>143.3</ele>
        <time>2012-10-09T12:35:43Z</time>
      </trkpt>
      <trkpt lat="49.36662" lon="1.18132">
        <ele>143.3</ele>
        <time>2012-10-09T12:35:47Z</time>
      </trkpt>
      <trkpt lat="49.36657" lon="1.18131">
        <ele>143.8</ele>
        <time>2012-10-09T12:35:51Z</time>
      </trkpt>
      <trkpt lat="49.36652" lon="1.18129">
        <ele>143.8</ele>
        <time>2012-10-09T12:35:55Z</time>
      </trkpt>
      <trkpt lat="49.36651" lon="1.18129">
        <ele>143.6</ele>
        <time>2012-10-09T12:35:56Z</time>
      </trkpt>
      <trkpt lat="49.36641" lon="1.18127">
        <ele>143.5</ele>
        <time>2012-10-09T12:36:04Z</time>
      </trkpt>
      <trkpt lat="49.36636" lon="1.18124">
        <ele>143.3</ele>
        <time>2012-10-09T12:36:08Z</time>
      </trkpt>
      <trkpt lat="49.36631" lon="1.18121">
        <ele>143</ele>
        <time>2012-10-09T12:36:12Z</time>
      </trkpt>
      <trkpt lat="49.36626" lon="1.1812">
        <ele>143.3</ele>
        <time>2012-10-09T12:36:17Z</time>
      </trkpt>
      <trkpt lat="49.36621" lon="1.18117">
        <ele>143.1</ele>
        <time>2012-10-09T12:36:21Z</time>
      </trkpt>
      <trkpt lat="49.36616" lon="1.18115">
        <ele>143.6</ele>
        <time>2012-10-09T12:36:25Z</time>
      </trkpt>
      <trkpt lat="49.3661" lon="1.18114">
        <ele>143.5</ele>
        <time>2012-10-09T12:36:30Z</time>
      </trkpt>
      <trkpt lat="49.36604" lon="1.18112">
        <ele>143.5</ele>
        <time>2012-10-09T12:36:34Z</time>
      </trkpt>
      <trkpt lat="49.36599" lon="1.1811">
        <ele>143.6</ele>
        <time>2012-10-09T12:36:38Z</time>
      </trkpt>
      <trkpt lat="49.36593" lon="1.18108">
        <ele>143.6</ele>
        <time>2012-10-09T12:36:43Z</time>
      </trkpt>
      <trkpt lat="49.36587" lon="1.18107">
        <ele>143.3</ele>
        <time>2012-10-09T12:36:48Z</time>
      </trkpt>
      <trkpt lat="49.36582" lon="1.18106">
        <ele>143.8</ele>
        <time>2012-10-09T12:36:52Z</time>
      </trkpt>
      <trkpt lat="49.36577" lon="1.18106">
        <ele>143.8</ele>
        <time>2012-10-09T12:36:56Z</time>
      </trkpt>
      <trkpt lat="49.36572" lon="1.18104">
        <ele>143.8</ele>
        <time>2012-10-09T12:37:00Z</time>
      </trkpt>
      <trkpt lat="49.36571" lon="1.18103">
        <ele>143.6</ele>
        <time>2012-10-09T12:37:01Z</time>
      </trkpt>
      <trkpt lat="49.36561" lon="1.18101">
        <ele>143.6</ele>
        <time>2012-10-09T12:37:09Z</time>
      </trkpt>
      <trkpt lat="49.36556" lon="1.181">
        <ele>143.1</ele>
        <time>2012-10-09T12:37:13Z</time>
      </trkpt>
      <trkpt lat="49.3655" lon="1.18098">
        <ele>142.8</ele>
        <time>2012-10-09T12:37:18Z</time>
      </trkpt>
      <trkpt lat="49.36543" lon="1.18098">
        <ele>142.6</ele>
        <time>2012-10-09T12:37:24Z</time>
      </trkpt>
      <trkpt lat="49.36538" lon="1.18096">
        <ele>141.8</ele>
        <time>2012-10-09T12:37:42Z</time>
      </trkpt>
      <trkpt lat="49.36532" lon="1.18095">
        <ele>142</ele>
        <time>2012-10-09T12:37:46Z</time>
      </trkpt>
      <trkpt lat="49.36527" lon="1.18093">
        <ele>141.8</ele>
        <time>2012-10-09T12:37:50Z</time>
      </trkpt>
      <trkpt lat="49.36522" lon="1.18093">
        <ele>141.8</ele>
        <time>2012-10-09T12:37:54Z</time>
      </trkpt>
      <trkpt lat="49.36516" lon="1.18092">
        <ele>141.6</ele>
        <time>2012-10-09T12:37:59Z</time>
      </trkpt>
      <trkpt lat="49.3651" lon="1.18091">
        <ele>141.8</ele>
        <time>2012-10-09T12:38:03Z</time>
      </trkpt>
      <trkpt lat="49.36509" lon="1.1809">
        <ele>141.5</ele>
        <time>2012-10-09T12:38:04Z</time>
      </trkpt>
      <trkpt lat="49.365" lon="1.18088">
        <ele>141</ele>
        <time>2012-10-09T12:38:11Z</time>
      </trkpt>
      <trkpt lat="49.36494" lon="1.18088">
        <ele>141.3</ele>
        <time>2012-10-09T12:38:15Z</time>
      </trkpt>
      <trkpt lat="49.36489" lon="1.18087">
        <ele>140.8</ele>
        <time>2012-10-09T12:38:19Z</time>
      </trkpt>
      <trkpt lat="49.36483" lon="1.18085">
        <ele>140.5</ele>
        <time>2012-10-09T12:38:24Z</time>
      </trkpt>
      <trkpt lat="49.36478" lon="1.18085">
        <ele>140.5</ele>
        <time>2012-10-09T12:38:28Z</time>
      </trkpt>
      <trkpt lat="49.36472" lon="1.18083">
        <ele>140.5</ele>
        <time>2012-10-09T12:38:33Z</time>
      </trkpt>
      <trkpt lat="49.36466" lon="1.18082">
        <ele>140.6</ele>
        <time>2012-10-09T12:38:38Z</time>
      </trkpt>
      <trkpt lat="49.3646" lon="1.18081">
        <ele>139.8</ele>
        <time>2012-10-09T12:38:43Z</time>
      </trkpt>
      <trkpt lat="49.36455" lon="1.18078">
        <ele>139.6</ele>
        <time>2012-10-09T12:38:48Z</time>
      </trkpt>
      <trkpt lat="49.3645" lon="1.18077">
        <ele>138.6</ele>
        <time>2012-10-09T12:38:52Z</time>
      </trkpt>
      <trkpt lat="49.36445" lon="1.18074">
        <ele>138.3</ele>
        <time>2012-10-09T12:38:56Z</time>
      </trkpt>
      <trkpt lat="49.3644" lon="1.18072">
        <ele>138.6</ele>
        <time>2012-10-09T12:39:00Z</time>
      </trkpt>
      <trkpt lat="49.36434" lon="1.1807">
        <ele>138.3</ele>
        <time>2012-10-09T12:39:05Z</time>
      </trkpt>
      <trkpt lat="49.36433" lon="1.18069">
        <ele>138.1</ele>
        <time>2012-10-09T12:39:06Z</time>
      </trkpt>
      <trkpt lat="49.36423" lon="1.18065">
        <ele>138.6</ele>
        <time>2012-10-09T12:39:15Z</time>
      </trkpt>
      <trkpt lat="49.36418" lon="1.18063">
        <ele>138.3</ele>
        <time>2012-10-09T12:39:19Z</time>
      </trkpt>
      <trkpt lat="49.36412" lon="1.18061">
        <ele>138.6</ele>
        <time>2012-10-09T12:39:23Z</time>
      </trkpt>
      <trkpt lat="49.36407" lon="1.18058">
        <ele>138.6</ele>
        <time>2012-10-09T12:39:27Z</time>
      </trkpt>
      <trkpt lat="49.36401" lon="1.18056">
        <ele>139</ele>
        <time>2012-10-09T12:39:32Z</time>
      </trkpt>
      <trkpt lat="49.36396" lon="1.18053">
        <ele>138.8</ele>
        <time>2012-10-09T12:39:36Z</time>
      </trkpt>
      <trkpt lat="49.3639" lon="1.1805">
        <ele>137.8</ele>
        <time>2012-10-09T12:39:41Z</time>
      </trkpt>
      <trkpt lat="49.36385" lon="1.18048">
        <ele>137.8</ele>
        <time>2012-10-09T12:39:47Z</time>
      </trkpt>
      <trkpt lat="49.36379" lon="1.18045">
        <ele>137.6</ele>
        <time>2012-10-09T12:39:52Z</time>
      </trkpt>
      <trkpt lat="49.36374" lon="1.18043">
        <ele>137.6</ele>
        <time>2012-10-09T12:39:56Z</time>
      </trkpt>
      <trkpt lat="49.36369" lon="1.18041">
        <ele>137.5</ele>
        <time>2012-10-09T12:40:00Z</time>
      </trkpt>
      <trkpt lat="49.36363" lon="1.18038">
        <ele>137.1</ele>
        <time>2012-10-09T12:40:05Z</time>
      </trkpt>
      <trkpt lat="49.36358" lon="1.18035">
        <ele>137.5</ele>
        <time>2012-10-09T12:40:09Z</time>
      </trkpt>
      <trkpt lat="49.36357" lon="1.18035">
        <ele>137.3</ele>
        <time>2012-10-09T12:40:10Z</time>
      </trkpt>
      <trkpt lat="49.36347" lon="1.1803">
        <ele>137.6</ele>
        <time>2012-10-09T12:40:18Z</time>
      </trkpt>
      <trkpt lat="49.36341" lon="1.18026">
        <ele>138.1</ele>
        <time>2012-10-09T12:40:23Z</time>
      </trkpt>
      <trkpt lat="49.36335" lon="1.18026">
        <ele>138.3</ele>
        <time>2012-10-09T12:40:28Z</time>
      </trkpt>
      <trkpt lat="49.3633" lon="1.18029">
        <ele>138.8</ele>
        <time>2012-10-09T12:40:33Z</time>
      </trkpt>
      <trkpt lat="49.36326" lon="1.18035">
        <ele>138.6</ele>
        <time>2012-10-09T12:40:37Z</time>
      </trkpt>
      <trkpt lat="49.36322" lon="1.18041">
        <ele>138.3</ele>
        <time>2012-10-09T12:40:41Z</time>
      </trkpt>
      <trkpt lat="49.3632" lon="1.18048">
        <ele>137.1</ele>
        <time>2012-10-09T12:40:45Z</time>
      </trkpt>
      <trkpt lat="49.36317" lon="1.18055">
        <ele>136.5</ele>
        <time>2012-10-09T12:40:49Z</time>
      </trkpt>
      <trkpt lat="49.36314" lon="1.18061">
        <ele>136.3</ele>
        <time>2012-10-09T12:40:53Z</time>
      </trkpt>
      <trkpt lat="49.36311" lon="1.18069">
        <ele>135.8</ele>
        <time>2012-10-09T12:40:58Z</time>
      </trkpt>
      <trkpt lat="49.36307" lon="1.18077">
        <ele>135.1</ele>
        <time>2012-10-09T12:41:03Z</time>
      </trkpt>
      <trkpt lat="49.36304" lon="1.18084">
        <ele>135</ele>
        <time>2012-10-09T12:41:08Z</time>
      </trkpt>
      <trkpt lat="49.36302" lon="1.18093">
        <ele>134.5</ele>
        <time>2012-10-09T12:41:13Z</time>
      </trkpt>
      <trkpt lat="49.36301" lon="1.18095">
        <ele>134.3</ele>
        <time>2012-10-09T12:41:14Z</time>
      </trkpt>
      <trkpt lat="49.36298" lon="1.18108">
        <ele>133.3</ele>
        <time>2012-10-09T12:41:21Z</time>
      </trkpt>
      <trkpt lat="49.36296" lon="1.18115">
        <ele>132.8</ele>
        <time>2012-10-09T12:41:25Z</time>
      </trkpt>
      <trkpt lat="49.36295" lon="1.18122">
        <ele>132.8</ele>
        <time>2012-10-09T12:41:29Z</time>
      </trkpt>
      <trkpt lat="49.36293" lon="1.1813">
        <ele>132.5</ele>
        <time>2012-10-09T12:41:33Z</time>
      </trkpt>
      <trkpt lat="49.36291" lon="1.18138">
        <ele>132.3</ele>
        <time>2012-10-09T12:41:37Z</time>
      </trkpt>
      <trkpt lat="49.36289" lon="1.18145">
        <ele>132</ele>
        <time>2012-10-09T12:41:41Z</time>
      </trkpt>
      <trkpt lat="49.36287" lon="1.18153">
        <ele>131.8</ele>
        <time>2012-10-09T12:41:45Z</time>
      </trkpt>
      <trkpt lat="49.36285" lon="1.18161">
        <ele>131.6</ele>
        <time>2012-10-09T12:41:49Z</time>
      </trkpt>
      <trkpt lat="49.36283" lon="1.18169">
        <ele>131.1</ele>
        <time>2012-10-09T12:41:53Z</time>
      </trkpt>
      <trkpt lat="49.36281" lon="1.18177">
        <ele>130.5</ele>
        <time>2012-10-09T12:41:58Z</time>
      </trkpt>
      <trkpt lat="49.36279" lon="1.18185">
        <ele>130.1</ele>
        <time>2012-10-09T12:42:03Z</time>
      </trkpt>
      <trkpt lat="49.36277" lon="1.18194">
        <ele>129.6</ele>
        <time>2012-10-09T12:42:08Z</time>
      </trkpt>
      <trkpt lat="49.36275" lon="1.18201">
        <ele>129.5</ele>
        <time>2012-10-09T12:42:18Z</time>
      </trkpt>
      <trkpt lat="49.36275" lon="1.18203">
        <ele>129.5</ele>
        <time>2012-10-09T12:42:19Z</time>
      </trkpt>
      <trkpt lat="49.3627" lon="1.18217">
        <ele>128.8</ele>
        <time>2012-10-09T12:42:27Z</time>
      </trkpt>
      <trkpt lat="49.36267" lon="1.18224">
        <ele>128.5</ele>
        <time>2012-10-09T12:42:31Z</time>
      </trkpt>
      <trkpt lat="49.36265" lon="1.18231">
        <ele>128.1</ele>
        <time>2012-10-09T12:42:35Z</time>
      </trkpt>
      <trkpt lat="49.36262" lon="1.18238">
        <ele>127.9</ele>
        <time>2012-10-09T12:42:39Z</time>
      </trkpt>
      <trkpt lat="49.36259" lon="1.18245">
        <ele>128.1</ele>
        <time>2012-10-09T12:42:43Z</time>
      </trkpt>
      <trkpt lat="49.36257" lon="1.18252">
        <ele>128.8</ele>
        <time>2012-10-09T12:42:47Z</time>
      </trkpt>
      <trkpt lat="49.36255" lon="1.18261">
        <ele>128.5</ele>
        <time>2012-10-09T12:42:52Z</time>
      </trkpt>
      <trkpt lat="49.36253" lon="1.18269">
        <ele>128.1</ele>
        <time>2012-10-09T12:43:13Z</time>
      </trkpt>
      <trkpt lat="49.36253" lon="1.18278">
        <ele>127.6</ele>
        <time>2012-10-09T12:43:18Z</time>
      </trkpt>
      <trkpt lat="49.36254" lon="1.18287">
        <ele>127</ele>
        <time>2012-10-09T12:43:50Z</time>
      </trkpt>
      <trkpt lat="49.36254" lon="1.18288">
        <ele>126.6</ele>
        <time>2012-10-09T12:43:51Z</time>
      </trkpt>
      <trkpt lat="49.36261" lon="1.18299">
        <ele>126.3</ele>
        <time>2012-10-09T12:44:03Z</time>
      </trkpt>
      <trkpt lat="49.36265" lon="1.18303">
        <ele>126</ele>
        <time>2012-10-09T12:44:07Z</time>
      </trkpt>
      <trkpt lat="49.3627" lon="1.18309">
        <ele>126</ele>
        <time>2012-10-09T12:44:11Z</time>
      </trkpt>
      <trkpt lat="49.36274" lon="1.18315">
        <ele>125.5</ele>
        <time>2012-10-09T12:44:23Z</time>
      </trkpt>
      <trkpt lat="49.36279" lon="1.18319">
        <ele>125.3</ele>
        <time>2012-10-09T12:44:27Z</time>
      </trkpt>
      <trkpt lat="49.36283" lon="1.18324">
        <ele>125.3</ele>
        <time>2012-10-09T12:44:31Z</time>
      </trkpt>
      <trkpt lat="49.36288" lon="1.18329">
        <ele>125</ele>
        <time>2012-10-09T12:44:36Z</time>
      </trkpt>
      <trkpt lat="49.36292" lon="1.18335">
        <ele>124.9</ele>
        <time>2012-10-09T12:44:49Z</time>
      </trkpt>
      <trkpt lat="49.36296" lon="1.18342">
        <ele>125</ele>
        <time>2012-10-09T12:44:54Z</time>
      </trkpt>
      <trkpt lat="49.36297" lon="1.18344">
        <ele>124.6</ele>
        <time>2012-10-09T12:44:55Z</time>
      </trkpt>
      <trkpt lat="49.36304" lon="1.18354">
        <ele>125.5</ele>
        <time>2012-10-09T12:45:04Z</time>
      </trkpt>
      <trkpt lat="49.36307" lon="1.18361">
        <ele>125.8</ele>
        <time>2012-10-09T12:45:10Z</time>
      </trkpt>
      <trkpt lat="49.3631" lon="1.18369">
        <ele>125.8</ele>
        <time>2012-10-09T12:45:16Z</time>
      </trkpt>
      <trkpt lat="49.36313" lon="1.18377">
        <ele>126</ele>
        <time>2012-10-09T12:45:56Z</time>
      </trkpt>
      <trkpt lat="49.36314" lon="1.18379">
        <ele>126.1</ele>
        <time>2012-10-09T12:45:57Z</time>
      </trkpt>
      <trkpt lat="49.36318" lon="1.18392">
        <ele>126.8</ele>
        <time>2012-10-09T12:46:04Z</time>
      </trkpt>
      <trkpt lat="49.3632" lon="1.18399">
        <ele>128.1</ele>
        <time>2012-10-09T12:46:08Z</time>
      </trkpt>
      <trkpt lat="49.36322" lon="1.18406">
        <ele>128.3</ele>
        <time>2012-10-09T12:46:12Z</time>
      </trkpt>
      <trkpt lat="49.36326" lon="1.18414">
        <ele>129.1</ele>
        <time>2012-10-09T12:46:17Z</time>
      </trkpt>
      <trkpt lat="49.36328" lon="1.18421">
        <ele>129.3</ele>
        <time>2012-10-09T12:46:21Z</time>
      </trkpt>
      <trkpt lat="49.36331" lon="1.18429">
        <ele>130.1</ele>
        <time>2012-10-09T12:46:25Z</time>
      </trkpt>
      <trkpt lat="49.36335" lon="1.18434">
        <ele>130.3</ele>
        <time>2012-10-09T12:46:29Z</time>
      </trkpt>
      <trkpt lat="49.36337" lon="1.18441">
        <ele>130.3</ele>
        <time>2012-10-09T12:46:33Z</time>
      </trkpt>
      <trkpt lat="49.3634" lon="1.18447">
        <ele>130.3</ele>
        <time>2012-10-09T12:46:36Z</time>
      </trkpt>
      <trkpt lat="49.36344" lon="1.18454">
        <ele>130.5</ele>
        <time>2012-10-09T12:46:40Z</time>
      </trkpt>
      <trkpt lat="49.36348" lon="1.18461">
        <ele>130.1</ele>
        <time>2012-10-09T12:46:44Z</time>
      </trkpt>
      <trkpt lat="49.36352" lon="1.18467">
        <ele>130.6</ele>
        <time>2012-10-09T12:46:48Z</time>
      </trkpt>
      <trkpt lat="49.36355" lon="1.18474">
        <ele>130.5</ele>
        <time>2012-10-09T12:46:52Z</time>
      </trkpt>
      <trkpt lat="49.36359" lon="1.18479">
        <ele>131.3</ele>
        <time>2012-10-09T12:46:56Z</time>
      </trkpt>
      <trkpt lat="49.36362" lon="1.18486">
        <ele>131.1</ele>
        <time>2012-10-09T12:47:00Z</time>
      </trkpt>
      <trkpt lat="49.36363" lon="1.18488">
        <ele>131</ele>
        <time>2012-10-09T12:47:01Z</time>
      </trkpt>
      <trkpt lat="49.36369" lon="1.18499">
        <ele>131</ele>
        <time>2012-10-09T12:47:08Z</time>
      </trkpt>
      <trkpt lat="49.36372" lon="1.18506">
        <ele>131.5</ele>
        <time>2012-10-09T12:47:12Z</time>
      </trkpt>
      <trkpt lat="49.36375" lon="1.18512">
        <ele>131.3</ele>
        <time>2012-10-09T12:47:16Z</time>
      </trkpt>
      <trkpt lat="49.36379" lon="1.18519">
        <ele>131.3</ele>
        <time>2012-10-09T12:47:20Z</time>
      </trkpt>
      <trkpt lat="49.36382" lon="1.18526">
        <ele>132.1</ele>
        <time>2012-10-09T12:47:24Z</time>
      </trkpt>
      <trkpt lat="49.36386" lon="1.18532">
        <ele>132.1</ele>
        <time>2012-10-09T12:47:28Z</time>
      </trkpt>
      <trkpt lat="49.3639" lon="1.18538">
        <ele>131.8</ele>
        <time>2012-10-09T12:47:32Z</time>
      </trkpt>
      <trkpt lat="49.36394" lon="1.18545">
        <ele>132.1</ele>
        <time>2012-10-09T12:47:36Z</time>
      </trkpt>
      <trkpt lat="49.36397" lon="1.18551">
        <ele>132.1</ele>
        <time>2012-10-09T12:47:40Z</time>
      </trkpt>
      <trkpt lat="49.364" lon="1.18559">
        <ele>131.6</ele>
        <time>2012-10-09T12:47:44Z</time>
      </trkpt>
      <trkpt lat="49.36404" lon="1.18566">
        <ele>131.6</ele>
        <time>2012-10-09T12:47:49Z</time>
      </trkpt>
      <trkpt lat="49.36406" lon="1.18573">
        <ele>132.1</ele>
        <time>2012-10-09T12:47:53Z</time>
      </trkpt>
      <trkpt lat="49.36409" lon="1.1858">
        <ele>131.8</ele>
        <time>2012-10-09T12:47:57Z</time>
      </trkpt>
      <trkpt lat="49.36411" lon="1.18587">
        <ele>132.6</ele>
        <time>2012-10-09T12:48:01Z</time>
      </trkpt>
      <trkpt lat="49.36413" lon="1.18595">
        <ele>132.8</ele>
        <time>2012-10-09T12:48:05Z</time>
      </trkpt>
      <trkpt lat="49.36414" lon="1.18596">
        <ele>132.6</ele>
        <time>2012-10-09T12:48:06Z</time>
      </trkpt>
      <trkpt lat="49.36417" lon="1.1861">
        <ele>133.5</ele>
        <time>2012-10-09T12:48:14Z</time>
      </trkpt>
      <trkpt lat="49.36418" lon="1.18617">
        <ele>132.6</ele>
        <time>2012-10-09T12:48:18Z</time>
      </trkpt>
      <trkpt lat="49.3642" lon="1.18625">
        <ele>132.6</ele>
        <time>2012-10-09T12:48:22Z</time>
      </trkpt>
      <trkpt lat="49.36421" lon="1.18634">
        <ele>133.5</ele>
        <time>2012-10-09T12:48:27Z</time>
      </trkpt>
      <trkpt lat="49.36423" lon="1.18643">
        <ele>133.5</ele>
        <time>2012-10-09T12:48:31Z</time>
      </trkpt>
      <trkpt lat="49.36424" lon="1.18652">
        <ele>133.6</ele>
        <time>2012-10-09T12:48:36Z</time>
      </trkpt>
      <trkpt lat="49.36424" lon="1.1866">
        <ele>133</ele>
        <time>2012-10-09T12:48:40Z</time>
      </trkpt>
      <trkpt lat="49.36425" lon="1.18668">
        <ele>132.6</ele>
        <time>2012-10-09T12:48:44Z</time>
      </trkpt>
      <trkpt lat="49.36426" lon="1.18677">
        <ele>131.6</ele>
        <time>2012-10-09T12:48:48Z</time>
      </trkpt>
      <trkpt lat="49.36428" lon="1.18685">
        <ele>131.1</ele>
        <time>2012-10-09T12:48:52Z</time>
      </trkpt>
      <trkpt lat="49.36428" lon="1.18695">
        <ele>130.5</ele>
        <time>2012-10-09T12:48:57Z</time>
      </trkpt>
      <trkpt lat="49.36429" lon="1.18704">
        <ele>130.3</ele>
        <time>2012-10-09T12:49:01Z</time>
      </trkpt>
      <trkpt lat="49.3643" lon="1.18712">
        <ele>130.3</ele>
        <time>2012-10-09T12:49:05Z</time>
      </trkpt>
      <trkpt lat="49.36431" lon="1.1872">
        <ele>130</ele>
        <time>2012-10-09T12:49:09Z</time>
      </trkpt>
      <trkpt lat="49.36431" lon="1.18723">
        <ele>130</ele>
        <time>2012-10-09T12:49:10Z</time>
      </trkpt>
      <trkpt lat="49.36433" lon="1.18738">
        <ele>129.5</ele>
        <time>2012-10-09T12:49:18Z</time>
      </trkpt>
      <trkpt lat="49.36435" lon="1.18747">
        <ele>129.5</ele>
        <time>2012-10-09T12:49:23Z</time>
      </trkpt>
      <trkpt lat="49.36436" lon="1.18755">
        <ele>130.5</ele>
        <time>2012-10-09T12:49:30Z</time>
      </trkpt>
      <trkpt lat="49.36439" lon="1.18764">
        <ele>132.3</ele>
        <time>2012-10-09T12:49:44Z</time>
      </trkpt>
      <trkpt lat="49.3644" lon="1.18772">
        <ele>132.6</ele>
        <time>2012-10-09T12:50:29Z</time>
      </trkpt>
      <trkpt lat="49.36441" lon="1.18773">
        <ele>132.6</ele>
        <time>2012-10-09T12:50:30Z</time>
      </trkpt>
      <trkpt lat="49.36444" lon="1.18788">
        <ele>131.8</ele>
        <time>2012-10-09T12:50:38Z</time>
      </trkpt>
      <trkpt lat="49.36444" lon="1.18797">
        <ele>130.1</ele>
        <time>2012-10-09T12:50:47Z</time>
      </trkpt>
      <trkpt lat="49.36444" lon="1.18805">
        <ele>129.6</ele>
        <time>2012-10-09T12:50:51Z</time>
      </trkpt>
      <trkpt lat="49.36445" lon="1.18813">
        <ele>128.8</ele>
        <time>2012-10-09T12:50:55Z</time>
      </trkpt>
      <trkpt lat="49.36446" lon="1.1882">
        <ele>128.6</ele>
        <time>2012-10-09T12:50:59Z</time>
      </trkpt>
      <trkpt lat="49.36448" lon="1.18828">
        <ele>128.8</ele>
        <time>2012-10-09T12:51:03Z</time>
      </trkpt>
      <trkpt lat="49.36449" lon="1.18837">
        <ele>128.6</ele>
        <time>2012-10-09T12:51:07Z</time>
      </trkpt>
      <trkpt lat="49.36449" lon="1.18846">
        <ele>128.1</ele>
        <time>2012-10-09T12:51:12Z</time>
      </trkpt>
      <trkpt lat="49.36451" lon="1.18854">
        <ele>128</ele>
        <time>2012-10-09T12:51:16Z</time>
      </trkpt>
      <trkpt lat="49.36452" lon="1.18863">
        <ele>127.9</ele>
        <time>2012-10-09T12:51:20Z</time>
      </trkpt>
      <trkpt lat="49.36454" lon="1.18872">
        <ele>127.9</ele>
        <time>2012-10-09T12:51:24Z</time>
      </trkpt>
      <trkpt lat="49.36455" lon="1.1888">
        <ele>127</ele>
        <time>2012-10-09T12:51:28Z</time>
      </trkpt>
      <trkpt lat="49.36459" lon="1.18888">
        <ele>126.4</ele>
        <time>2012-10-09T12:51:32Z</time>
      </trkpt>
      <trkpt lat="49.36459" lon="1.1889">
        <ele>126.5</ele>
        <time>2012-10-09T12:51:33Z</time>
      </trkpt>
      <trkpt lat="49.36459" lon="1.18905">
        <ele>126.5</ele>
        <time>2012-10-09T12:51:41Z</time>
      </trkpt>
      <trkpt lat="49.36461" lon="1.18914">
        <ele>126.5</ele>
        <time>2012-10-09T12:51:45Z</time>
      </trkpt>
      <trkpt lat="49.36463" lon="1.18921">
        <ele>126.5</ele>
        <time>2012-10-09T12:51:49Z</time>
      </trkpt>
      <trkpt lat="49.36464" lon="1.18929">
        <ele>125.5</ele>
        <time>2012-10-09T12:51:53Z</time>
      </trkpt>
      <trkpt lat="49.36465" lon="1.18938">
        <ele>125.8</ele>
        <time>2012-10-09T12:51:57Z</time>
      </trkpt>
      <trkpt lat="49.36465" lon="1.18946">
        <ele>126.1</ele>
        <time>2012-10-09T12:52:01Z</time>
      </trkpt>
      <trkpt lat="49.36465" lon="1.18954">
        <ele>125.4</ele>
        <time>2012-10-09T12:52:05Z</time>
      </trkpt>
      <trkpt lat="49.36464" lon="1.18962">
        <ele>124.8</ele>
        <time>2012-10-09T12:52:09Z</time>
      </trkpt>
      <trkpt lat="49.36464" lon="1.18971">
        <ele>124.8</ele>
        <time>2012-10-09T12:52:13Z</time>
      </trkpt>
      <trkpt lat="49.36463" lon="1.18979">
        <ele>125.9</ele>
        <time>2012-10-09T12:52:18Z</time>
      </trkpt>
      <trkpt lat="49.36459" lon="1.18985">
        <ele>126.4</ele>
        <time>2012-10-09T12:52:23Z</time>
      </trkpt>
      <trkpt lat="49.36456" lon="1.18992">
        <ele>126.9</ele>
        <time>2012-10-09T12:52:37Z</time>
      </trkpt>
      <trkpt lat="49.36455" lon="1.18993">
        <ele>126.5</ele>
        <time>2012-10-09T12:52:38Z</time>
      </trkpt>
      <trkpt lat="49.36451" lon="1.19008">
        <ele>126.3</ele>
        <time>2012-10-09T12:52:46Z</time>
      </trkpt>
      <trkpt lat="49.36449" lon="1.19016">
        <ele>126.9</ele>
        <time>2012-10-09T12:52:53Z</time>
      </trkpt>
      <trkpt lat="49.36447" lon="1.19023">
        <ele>127.6</ele>
        <time>2012-10-09T12:52:57Z</time>
      </trkpt>
      <trkpt lat="49.36445" lon="1.1903">
        <ele>127.9</ele>
        <time>2012-10-09T12:53:02Z</time>
      </trkpt>
      <trkpt lat="49.36445" lon="1.19038">
        <ele>128.8</ele>
        <time>2012-10-09T12:53:05Z</time>
      </trkpt>
      <trkpt lat="49.36445" lon="1.19047">
        <ele>129.6</ele>
        <time>2012-10-09T12:53:09Z</time>
      </trkpt>
      <trkpt lat="49.36445" lon="1.19056">
        <ele>130.1</ele>
        <time>2012-10-09T12:53:14Z</time>
      </trkpt>
      <trkpt lat="49.36443" lon="1.19064">
        <ele>129.1</ele>
        <time>2012-10-09T12:53:18Z</time>
      </trkpt>
      <trkpt lat="49.36445" lon="1.19071">
        <ele>128.8</ele>
        <time>2012-10-09T12:53:21Z</time>
      </trkpt>
      <trkpt lat="49.36445" lon="1.1908">
        <ele>129.1</ele>
        <time>2012-10-09T12:53:26Z</time>
      </trkpt>
      <trkpt lat="49.36446" lon="1.1909">
        <ele>129.1</ele>
        <time>2012-10-09T12:53:31Z</time>
      </trkpt>
      <trkpt lat="49.36447" lon="1.19098">
        <ele>129.3</ele>
        <time>2012-10-09T12:53:35Z</time>
      </trkpt>
      <trkpt lat="49.36448" lon="1.19107">
        <ele>130.1</ele>
        <time>2012-10-09T12:53:39Z</time>
      </trkpt>
      <trkpt lat="49.36448" lon="1.19109">
        <ele>130.3</ele>
        <time>2012-10-09T12:53:40Z</time>
      </trkpt>
      <trkpt lat="49.36447" lon="1.19124">
        <ele>132.5</ele>
        <time>2012-10-09T12:53:49Z</time>
      </trkpt>
      <trkpt lat="49.36446" lon="1.19133">
        <ele>131.8</ele>
        <time>2012-10-09T12:53:54Z</time>
      </trkpt>
      <trkpt lat="49.36448" lon="1.19141">
        <ele>132.8</ele>
        <time>2012-10-09T12:53:59Z</time>
      </trkpt>
      <trkpt lat="49.36444" lon="1.19148">
        <ele>133.3</ele>
        <time>2012-10-09T12:54:08Z</time>
      </trkpt>
      <trkpt lat="49.36439" lon="1.19152">
        <ele>133.3</ele>
        <time>2012-10-09T12:54:12Z</time>
      </trkpt>
      <trkpt lat="49.36436" lon="1.1916">
        <ele>133.6</ele>
        <time>2012-10-09T12:54:17Z</time>
      </trkpt>
      <trkpt lat="49.36433" lon="1.19168">
        <ele>134.1</ele>
        <time>2012-10-09T12:54:23Z</time>
      </trkpt>
      <trkpt lat="49.36429" lon="1.19175">
        <ele>133.8</ele>
        <time>2012-10-09T12:54:29Z</time>
      </trkpt>
      <trkpt lat="49.36425" lon="1.1918">
        <ele>133</ele>
        <time>2012-10-09T12:54:32Z</time>
      </trkpt>
      <trkpt lat="49.36421" lon="1.19185">
        <ele>133.5</ele>
        <time>2012-10-09T12:54:36Z</time>
      </trkpt>
      <trkpt lat="49.36417" lon="1.19192">
        <ele>133.8</ele>
        <time>2012-10-09T12:54:41Z</time>
      </trkpt>
      <trkpt lat="49.36416" lon="1.19194">
        <ele>133.6</ele>
        <time>2012-10-09T12:54:42Z</time>
      </trkpt>
      <trkpt lat="49.36409" lon="1.19203">
        <ele>132.5</ele>
        <time>2012-10-09T12:54:50Z</time>
      </trkpt>
      <trkpt lat="49.36405" lon="1.19209">
        <ele>132.6</ele>
        <time>2012-10-09T12:54:54Z</time>
      </trkpt>
      <trkpt lat="49.36401" lon="1.19215">
        <ele>132.3</ele>
        <time>2012-10-09T12:54:59Z</time>
      </trkpt>
      <trkpt lat="49.36395" lon="1.19218">
        <ele>133.1</ele>
        <time>2012-10-09T12:55:03Z</time>
      </trkpt>
      <trkpt lat="49.3639" lon="1.19224">
        <ele>132</ele>
        <time>2012-10-09T12:55:09Z</time>
      </trkpt>
      <trkpt lat="49.36385" lon="1.19228">
        <ele>131.6</ele>
        <time>2012-10-09T12:55:13Z</time>
      </trkpt>
      <trkpt lat="49.36381" lon="1.19233">
        <ele>131.8</ele>
        <time>2012-10-09T12:55:17Z</time>
      </trkpt>
      <trkpt lat="49.36377" lon="1.19238">
        <ele>131</ele>
        <time>2012-10-09T12:55:22Z</time>
      </trkpt>
      <trkpt lat="49.36372" lon="1.19242">
        <ele>131.6</ele>
        <time>2012-10-09T12:55:26Z</time>
      </trkpt>
      <trkpt lat="49.36367" lon="1.19246">
        <ele>130.6</ele>
        <time>2012-10-09T12:55:30Z</time>
      </trkpt>
      <trkpt lat="49.36362" lon="1.1925">
        <ele>130.3</ele>
        <time>2012-10-09T12:55:34Z</time>
      </trkpt>
      <trkpt lat="49.36357" lon="1.19254">
        <ele>131</ele>
        <time>2012-10-09T12:55:39Z</time>
      </trkpt>
      <trkpt lat="49.36351" lon="1.19257">
        <ele>130.8</ele>
        <time>2012-10-09T12:55:43Z</time>
      </trkpt>
      <trkpt lat="49.3635" lon="1.19257">
        <ele>131.1</ele>
        <time>2012-10-09T12:55:44Z</time>
      </trkpt>
      <trkpt lat="49.36342" lon="1.19264">
        <ele>130.3</ele>
        <time>2012-10-09T12:55:51Z</time>
      </trkpt>
      <trkpt lat="49.36337" lon="1.19268">
        <ele>130</ele>
        <time>2012-10-09T12:55:55Z</time>
      </trkpt>
      <trkpt lat="49.36333" lon="1.19274">
        <ele>130.1</ele>
        <time>2012-10-09T12:55:59Z</time>
      </trkpt>
      <trkpt lat="49.36328" lon="1.19278">
        <ele>130.3</ele>
        <time>2012-10-09T12:56:05Z</time>
      </trkpt>
      <trkpt lat="49.36323" lon="1.19282">
        <ele>129.6</ele>
        <time>2012-10-09T12:56:08Z</time>
      </trkpt>
      <trkpt lat="49.3632" lon="1.19289">
        <ele>129.1</ele>
        <time>2012-10-09T12:56:13Z</time>
      </trkpt>
      <trkpt lat="49.36315" lon="1.19294">
        <ele>129.8</ele>
        <time>2012-10-09T12:56:18Z</time>
      </trkpt>
      <trkpt lat="49.36311" lon="1.19299">
        <ele>129.8</ele>
        <time>2012-10-09T12:56:22Z</time>
      </trkpt>
      <trkpt lat="49.36307" lon="1.19305">
        <ele>129.8</ele>
        <time>2012-10-09T12:56:27Z</time>
      </trkpt>
      <trkpt lat="49.36302" lon="1.19311">
        <ele>128.8</ele>
        <time>2012-10-09T12:56:31Z</time>
      </trkpt>
      <trkpt lat="49.36298" lon="1.19316">
        <ele>128.6</ele>
        <time>2012-10-09T12:56:35Z</time>
      </trkpt>
      <trkpt lat="49.36294" lon="1.19321">
        <ele>128.3</ele>
        <time>2012-10-09T12:56:40Z</time>
      </trkpt>
      <trkpt lat="49.36289" lon="1.19328">
        <ele>127.8</ele>
        <time>2012-10-09T12:56:47Z</time>
      </trkpt>
      <trkpt lat="49.36288" lon="1.19329">
        <ele>127.9</ele>
        <time>2012-10-09T12:56:48Z</time>
      </trkpt>
      <trkpt lat="49.36281" lon="1.1934">
        <ele>127.1</ele>
        <time>2012-10-09T12:56:56Z</time>
      </trkpt>
      <trkpt lat="49.36276" lon="1.19346">
        <ele>127.1</ele>
        <time>2012-10-09T12:57:01Z</time>
      </trkpt>
      <trkpt lat="49.36272" lon="1.19352">
        <ele>127.1</ele>
        <time>2012-10-09T12:57:05Z</time>
      </trkpt>
      <trkpt lat="49.36269" lon="1.19359">
        <ele>127.4</ele>
        <time>2012-10-09T12:57:09Z</time>
      </trkpt>
      <trkpt lat="49.36265" lon="1.19365">
        <ele>127.8</ele>
        <time>2012-10-09T12:57:13Z</time>
      </trkpt>
      <trkpt lat="49.36262" lon="1.19371">
        <ele>128.8</ele>
        <time>2012-10-09T12:57:23Z</time>
      </trkpt>
      <trkpt lat="49.36258" lon="1.19378">
        <ele>130</ele>
        <time>2012-10-09T12:57:29Z</time>
      </trkpt>
      <trkpt lat="49.36255" lon="1.19385">
        <ele>130.5</ele>
        <time>2012-10-09T12:57:34Z</time>
      </trkpt>
      <trkpt lat="49.36252" lon="1.19393">
        <ele>130.5</ele>
        <time>2012-10-09T12:57:38Z</time>
      </trkpt>
      <trkpt lat="49.36249" lon="1.194">
        <ele>130.1</ele>
        <time>2012-10-09T12:57:44Z</time>
      </trkpt>
      <trkpt lat="49.36245" lon="1.19405">
        <ele>131.1</ele>
        <time>2012-10-09T12:57:48Z</time>
      </trkpt>
      <trkpt lat="49.36241" lon="1.19412">
        <ele>129.8</ele>
        <time>2012-10-09T12:58:03Z</time>
      </trkpt>
      <trkpt lat="49.36241" lon="1.19413">
        <ele>129.6</ele>
        <time>2012-10-09T12:58:04Z</time>
      </trkpt>
      <trkpt lat="49.36236" lon="1.19427">
        <ele>131</ele>
        <time>2012-10-09T12:58:18Z</time>
      </trkpt>
      <trkpt lat="49.36233" lon="1.19433">
        <ele>131.1</ele>
        <time>2012-10-09T12:58:20Z</time>
      </trkpt>
      <trkpt lat="49.3623" lon="1.19439">
        <ele>130.8</ele>
        <time>2012-10-09T12:58:23Z</time>
      </trkpt>
      <trkpt lat="49.36228" lon="1.19445">
        <ele>132.1</ele>
        <time>2012-10-09T12:58:26Z</time>
      </trkpt>
      <trkpt lat="49.36224" lon="1.19452">
        <ele>131.6</ele>
        <time>2012-10-09T12:58:33Z</time>
      </trkpt>
      <trkpt lat="49.36221" lon="1.19459">
        <ele>132.8</ele>
        <time>2012-10-09T12:58:38Z</time>
      </trkpt>
      <trkpt lat="49.36219" lon="1.19466">
        <ele>133.6</ele>
        <time>2012-10-09T12:58:41Z</time>
      </trkpt>
      <trkpt lat="49.36217" lon="1.19473">
        <ele>134.8</ele>
        <time>2012-10-09T12:58:45Z</time>
      </trkpt>
      <trkpt lat="49.36215" lon="1.19481">
        <ele>137.8</ele>
        <time>2012-10-09T12:58:48Z</time>
      </trkpt>
      <trkpt lat="49.36212" lon="1.19488">
        <ele>137.8</ele>
        <time>2012-10-09T12:58:52Z</time>
      </trkpt>
      <trkpt lat="49.3621" lon="1.19496">
        <ele>138.8</ele>
        <time>2012-10-09T12:58:55Z</time>
      </trkpt>
      <trkpt lat="49.36208" lon="1.19504">
        <ele>138.6</ele>
        <time>2012-10-09T12:59:01Z</time>
      </trkpt>
      <trkpt lat="49.36207" lon="1.19513">
        <ele>137.6</ele>
        <time>2012-10-09T12:59:05Z</time>
      </trkpt>
      <trkpt lat="49.36206" lon="1.19515">
        <ele>137.6</ele>
        <time>2012-10-09T12:59:06Z</time>
      </trkpt>
      <trkpt lat="49.36202" lon="1.19528">
        <ele>138.3</ele>
        <time>2012-10-09T12:59:14Z</time>
      </trkpt>
      <trkpt lat="49.362" lon="1.19535">
        <ele>138.6</ele>
        <time>2012-10-09T12:59:23Z</time>
      </trkpt>
      <trkpt lat="49.36198" lon="1.19543">
        <ele>138.8</ele>
        <time>2012-10-09T12:59:26Z</time>
      </trkpt>
      <trkpt lat="49.36194" lon="1.19549">
        <ele>140.1</ele>
        <time>2012-10-09T12:59:33Z</time>
      </trkpt>
      <trkpt lat="49.36191" lon="1.19557">
        <ele>139</ele>
        <time>2012-10-09T13:00:29Z</time>
      </trkpt>
      <trkpt lat="49.36191" lon="1.19559">
        <ele>138.6</ele>
        <time>2012-10-09T13:00:30Z</time>
      </trkpt>
      <trkpt lat="49.36188" lon="1.19572">
        <ele>136.6</ele>
        <time>2012-10-09T13:00:43Z</time>
      </trkpt>
      <trkpt lat="49.36185" lon="1.1958">
        <ele>136</ele>
        <time>2012-10-09T13:00:48Z</time>
      </trkpt>
      <trkpt lat="49.36182" lon="1.19586">
        <ele>134.8</ele>
        <time>2012-10-09T13:00:51Z</time>
      </trkpt>
      <trkpt lat="49.36179" lon="1.19594">
        <ele>134.6</ele>
        <time>2012-10-09T13:00:56Z</time>
      </trkpt>
      <trkpt lat="49.36177" lon="1.19601">
        <ele>134.1</ele>
        <time>2012-10-09T13:00:59Z</time>
      </trkpt>
      <trkpt lat="49.36174" lon="1.19609">
        <ele>133</ele>
        <time>2012-10-09T13:01:05Z</time>
      </trkpt>
      <trkpt lat="49.3617" lon="1.19615">
        <ele>131.8</ele>
        <time>2012-10-09T13:01:12Z</time>
      </trkpt>
      <trkpt lat="49.36167" lon="1.19622">
        <ele>131.8</ele>
        <time>2012-10-09T13:01:20Z</time>
      </trkpt>
      <trkpt lat="49.36164" lon="1.1963">
        <ele>131.3</ele>
        <time>2012-10-09T13:01:28Z</time>
      </trkpt>
      <trkpt lat="49.36161" lon="1.19639">
        <ele>131.8</ele>
        <time>2012-10-09T13:01:36Z</time>
      </trkpt>
      <trkpt lat="49.3616" lon="1.1964">
        <ele>131.6</ele>
        <time>2012-10-09T13:01:37Z</time>
      </trkpt>
      <trkpt lat="49.36155" lon="1.19653">
        <ele>130.3</ele>
        <time>2012-10-09T13:01:46Z</time>
      </trkpt>
      <trkpt lat="49.36151" lon="1.1966">
        <ele>128.6</ele>
        <time>2012-10-09T13:03:34Z</time>
      </trkpt>
      <trkpt lat="49.36151" lon="1.19662">
        <ele>128.3</ele>
        <time>2012-10-09T13:03:35Z</time>
      </trkpt>
      <trkpt lat="49.36145" lon="1.19675">
        <ele>127.5</ele>
        <time>2012-10-09T13:03:50Z</time>
      </trkpt>
      <trkpt lat="49.36142" lon="1.19682">
        <ele>126.8</ele>
        <time>2012-10-09T13:03:53Z</time>
      </trkpt>
      <trkpt lat="49.36139" lon="1.19688">
        <ele>125.4</ele>
        <time>2012-10-09T13:04:02Z</time>
      </trkpt>
      <trkpt lat="49.36137" lon="1.19696">
        <ele>125</ele>
        <time>2012-10-09T13:04:06Z</time>
      </trkpt>
      <trkpt lat="49.36136" lon="1.19705">
        <ele>124.3</ele>
        <time>2012-10-09T13:04:10Z</time>
      </trkpt>
      <trkpt lat="49.36133" lon="1.19713">
        <ele>124.4</ele>
        <time>2012-10-09T13:04:14Z</time>
      </trkpt>
      <trkpt lat="49.36131" lon="1.1972">
        <ele>124.4</ele>
        <time>2012-10-09T13:04:19Z</time>
      </trkpt>
      <trkpt lat="49.36128" lon="1.19727">
        <ele>124.3</ele>
        <time>2012-10-09T13:04:22Z</time>
      </trkpt>
      <trkpt lat="49.36127" lon="1.19735">
        <ele>124</ele>
        <time>2012-10-09T13:04:27Z</time>
      </trkpt>
      <trkpt lat="49.36127" lon="1.19743">
        <ele>124</ele>
        <time>2012-10-09T13:04:32Z</time>
      </trkpt>
      <trkpt lat="49.36126" lon="1.19752">
        <ele>123.5</ele>
        <time>2012-10-09T13:04:35Z</time>
      </trkpt>
      <trkpt lat="49.36127" lon="1.19759">
        <ele>123.8</ele>
        <time>2012-10-09T13:04:37Z</time>
      </trkpt>
      <trkpt lat="49.36127" lon="1.19761">
        <ele>123.8</ele>
        <time>2012-10-09T13:04:38Z</time>
      </trkpt>
      <trkpt lat="49.36128" lon="1.19775">
        <ele>124.3</ele>
        <time>2012-10-09T13:04:43Z</time>
      </trkpt>
      <trkpt lat="49.36129" lon="1.19784">
        <ele>124</ele>
        <time>2012-10-09T13:04:50Z</time>
      </trkpt>
      <trkpt lat="49.36129" lon="1.19792">
        <ele>123.4</ele>
        <time>2012-10-09T13:04:55Z</time>
      </trkpt>
      <trkpt lat="49.36131" lon="1.19801">
        <ele>121.5</ele>
        <time>2012-10-09T13:04:59Z</time>
      </trkpt>
      <trkpt lat="49.36131" lon="1.1981">
        <ele>119.6</ele>
        <time>2012-10-09T13:05:04Z</time>
      </trkpt>
      <trkpt lat="49.36134" lon="1.19818">
        <ele>116.9</ele>
        <time>2012-10-09T13:05:09Z</time>
      </trkpt>
      <trkpt lat="49.36136" lon="1.19827">
        <ele>114.5</ele>
        <time>2012-10-09T13:05:13Z</time>
      </trkpt>
      <trkpt lat="49.36138" lon="1.19835">
        <ele>112</ele>
        <time>2012-10-09T13:05:17Z</time>
      </trkpt>
      <trkpt lat="49.36139" lon="1.19844">
        <ele>110.1</ele>
        <time>2012-10-09T13:05:23Z</time>
      </trkpt>
      <trkpt lat="49.36138" lon="1.19852">
        <ele>111.1</ele>
        <time>2012-10-09T13:05:29Z</time>
      </trkpt>
      <trkpt lat="49.3614" lon="1.19861">
        <ele>111.4</ele>
        <time>2012-10-09T13:05:34Z</time>
      </trkpt>
      <trkpt lat="49.36141" lon="1.1987">
        <ele>111.5</ele>
        <time>2012-10-09T13:05:41Z</time>
      </trkpt>
      <trkpt lat="49.36142" lon="1.19872">
        <ele>111.5</ele>
        <time>2012-10-09T13:05:42Z</time>
      </trkpt>
      <trkpt lat="49.36144" lon="1.19886">
        <ele>112.5</ele>
        <time>2012-10-09T13:05:51Z</time>
      </trkpt>
      <trkpt lat="49.36148" lon="1.19894">
        <ele>111.5</ele>
        <time>2012-10-09T13:05:59Z</time>
      </trkpt>
      <trkpt lat="49.36152" lon="1.19899">
        <ele>110</ele>
        <time>2012-10-09T13:06:06Z</time>
      </trkpt>
      <trkpt lat="49.36154" lon="1.19907">
        <ele>107.5</ele>
        <time>2012-10-09T13:06:12Z</time>
      </trkpt>
      <trkpt lat="49.36158" lon="1.19913">
        <ele>106.5</ele>
        <time>2012-10-09T13:06:16Z</time>
      </trkpt>
      <trkpt lat="49.36162" lon="1.19918">
        <ele>107</ele>
        <time>2012-10-09T13:06:23Z</time>
      </trkpt>
      <trkpt lat="49.36167" lon="1.19924">
        <ele>107.4</ele>
        <time>2012-10-09T13:06:32Z</time>
      </trkpt>
      <trkpt lat="49.36169" lon="1.19932">
        <ele>107.1</ele>
        <time>2012-10-09T13:06:40Z</time>
      </trkpt>
      <trkpt lat="49.36171" lon="1.19941">
        <ele>107.4</ele>
        <time>2012-10-09T13:06:49Z</time>
      </trkpt>
      <trkpt lat="49.36171" lon="1.19942">
        <ele>107.8</ele>
        <time>2012-10-09T13:06:50Z</time>
      </trkpt>
      <trkpt lat="49.36171" lon="1.19958">
        <ele>106.1</ele>
        <time>2012-10-09T13:07:01Z</time>
      </trkpt>
      <trkpt lat="49.36173" lon="1.19967">
        <ele>105.5</ele>
        <time>2012-10-09T13:07:09Z</time>
      </trkpt>
      <trkpt lat="49.36171" lon="1.19976">
        <ele>104.5</ele>
        <time>2012-10-09T13:07:17Z</time>
      </trkpt>
      <trkpt lat="49.3617" lon="1.19986">
        <ele>103.6</ele>
        <time>2012-10-09T13:07:27Z</time>
      </trkpt>
      <trkpt lat="49.36173" lon="1.19994">
        <ele>100.5</ele>
        <time>2012-10-09T13:08:14Z</time>
      </trkpt>
      <trkpt lat="49.36173" lon="1.19995">
        <ele>100.3</ele>
        <time>2012-10-09T13:08:15Z</time>
      </trkpt>
      <trkpt lat="49.36177" lon="1.20011">
        <ele>97.4</ele>
        <time>2012-10-09T13:08:38Z</time>
      </trkpt>
      <trkpt lat="49.36179" lon="1.20018">
        <ele>96.5</ele>
        <time>2012-10-09T13:08:50Z</time>
      </trkpt>
      <trkpt lat="49.3618" lon="1.20027">
        <ele>95.5</ele>
        <time>2012-10-09T13:09:21Z</time>
      </trkpt>
      <trkpt lat="49.3618" lon="1.20028">
        <ele>95.1</ele>
        <time>2012-10-09T13:09:22Z</time>
      </trkpt>
      <trkpt lat="49.36181" lon="1.20018">
        <ele>91.8</ele>
        <time>2012-10-09T13:14:40Z</time>
      </trkpt>
      <trkpt lat="49.36182" lon="1.20002">
        <ele>91.1</ele>
        <time>2012-10-09T13:15:25Z</time>
      </trkpt>
      <trkpt lat="49.36182" lon="1.19993">
        <ele>91.3</ele>
        <time>2012-10-09T13:15:31Z</time>
      </trkpt>
      <trkpt lat="49.36184" lon="1.19984">
        <ele>91.5</ele>
        <time>2012-10-09T13:15:40Z</time>
      </trkpt>
      <trkpt lat="49.36183" lon="1.19974">
        <ele>91</ele>
        <time>2012-10-09T13:15:44Z</time>
      </trkpt>
      <trkpt lat="49.36183" lon="1.19972">
        <ele>90.9</ele>
        <time>2012-10-09T13:15:45Z</time>
      </trkpt>
      <trkpt lat="49.36184" lon="1.19957">
        <ele>92.6</ele>
        <time>2012-10-09T13:15:52Z</time>
      </trkpt>
      <trkpt lat="49.36183" lon="1.19949">
        <ele>92.6</ele>
        <time>2012-10-09T13:15:55Z</time>
      </trkpt>
      <trkpt lat="49.36181" lon="1.19943">
        <ele>93</ele>
        <time>2012-10-09T13:16:00Z</time>
      </trkpt>
      <trkpt lat="49.36177" lon="1.19936">
        <ele>95</ele>
        <time>2012-10-09T13:16:04Z</time>
      </trkpt>
      <trkpt lat="49.36172" lon="1.1993">
        <ele>97.8</ele>
        <time>2012-10-09T13:16:10Z</time>
      </trkpt>
      <trkpt lat="49.36168" lon="1.19924">
        <ele>99.4</ele>
        <time>2012-10-09T13:16:19Z</time>
      </trkpt>
      <trkpt lat="49.36164" lon="1.19917">
        <ele>100.5</ele>
        <time>2012-10-09T13:16:24Z</time>
      </trkpt>
      <trkpt lat="49.36159" lon="1.19915">
        <ele>99.3</ele>
        <time>2012-10-09T13:16:28Z</time>
      </trkpt>
      <trkpt lat="49.36156" lon="1.19909">
        <ele>99.6</ele>
        <time>2012-10-09T13:16:32Z</time>
      </trkpt>
      <trkpt lat="49.36151" lon="1.19903">
        <ele>100.8</ele>
        <time>2012-10-09T13:16:38Z</time>
      </trkpt>
      <trkpt lat="49.36149" lon="1.19894">
        <ele>103</ele>
        <time>2012-10-09T13:16:46Z</time>
      </trkpt>
      <trkpt lat="49.36149" lon="1.19892">
        <ele>102.8</ele>
        <time>2012-10-09T13:16:47Z</time>
      </trkpt>
      <trkpt lat="49.36145" lon="1.19878">
        <ele>103</ele>
        <time>2012-10-09T13:16:59Z</time>
      </trkpt>
      <trkpt lat="49.36144" lon="1.1987">
        <ele>102.5</ele>
        <time>2012-10-09T13:17:03Z</time>
      </trkpt>
      <trkpt lat="49.36142" lon="1.19863">
        <ele>102.5</ele>
        <time>2012-10-09T13:17:09Z</time>
      </trkpt>
      <trkpt lat="49.3614" lon="1.19855">
        <ele>102.4</ele>
        <time>2012-10-09T13:17:13Z</time>
      </trkpt>
      <trkpt lat="49.36136" lon="1.19848">
        <ele>104.4</ele>
        <time>2012-10-09T13:17:19Z</time>
      </trkpt>
      <trkpt lat="49.36133" lon="1.1984">
        <ele>103.6</ele>
        <time>2012-10-09T13:17:25Z</time>
      </trkpt>
      <trkpt lat="49.36129" lon="1.19832">
        <ele>103.4</ele>
        <time>2012-10-09T13:17:33Z</time>
      </trkpt>
      <trkpt lat="49.36124" lon="1.19832">
        <ele>102</ele>
        <time>2012-10-09T13:20:18Z</time>
      </trkpt>
      <trkpt lat="49.36123" lon="1.19832">
        <ele>101.1</ele>
        <time>2012-10-09T13:20:19Z</time>
      </trkpt>
      <trkpt lat="49.36113" lon="1.1984">
        <ele>100.1</ele>
        <time>2012-10-09T13:20:35Z</time>
      </trkpt>
      <trkpt lat="49.36108" lon="1.19846">
        <ele>100.6</ele>
        <time>2012-10-09T13:20:40Z</time>
      </trkpt>
      <trkpt lat="49.36104" lon="1.19852">
        <ele>99.5</ele>
        <time>2012-10-09T13:20:46Z</time>
      </trkpt>
      <trkpt lat="49.361" lon="1.19857">
        <ele>96.9</ele>
        <time>2012-10-09T13:20:54Z</time>
      </trkpt>
      <trkpt lat="49.36094" lon="1.19862">
        <ele>97.1</ele>
        <time>2012-10-09T13:21:04Z</time>
      </trkpt>
      <trkpt lat="49.36089" lon="1.19867">
        <ele>98.4</ele>
        <time>2012-10-09T13:21:09Z</time>
      </trkpt>
      <trkpt lat="49.36084" lon="1.19872">
        <ele>98</ele>
        <time>2012-10-09T13:21:16Z</time>
      </trkpt>
      <trkpt lat="49.36079" lon="1.19876">
        <ele>97.5</ele>
        <time>2012-10-09T13:21:24Z</time>
      </trkpt>
      <trkpt lat="49.36078" lon="1.19877">
        <ele>97.8</ele>
        <time>2012-10-09T13:21:25Z</time>
      </trkpt>
      <trkpt lat="49.36069" lon="1.19886">
        <ele>97</ele>
        <time>2012-10-09T13:21:38Z</time>
      </trkpt>
      <trkpt lat="49.36064" lon="1.19889">
        <ele>96.5</ele>
        <time>2012-10-09T13:21:44Z</time>
      </trkpt>
      <trkpt lat="49.36069" lon="1.19884">
        <ele>96</ele>
        <time>2012-10-09T13:22:46Z</time>
      </trkpt>
      <trkpt lat="49.3607" lon="1.19883">
        <ele>96</ele>
        <time>2012-10-09T13:22:47Z</time>
      </trkpt>
      <trkpt lat="49.36079" lon="1.19876">
        <ele>96.6</ele>
        <time>2012-10-09T13:23:40Z</time>
      </trkpt>
      <trkpt lat="49.36083" lon="1.1987">
        <ele>96.5</ele>
        <time>2012-10-09T13:23:46Z</time>
      </trkpt>
      <trkpt lat="49.36088" lon="1.19866">
        <ele>96.9</ele>
        <time>2012-10-09T13:24:02Z</time>
      </trkpt>
      <trkpt lat="49.36089" lon="1.19864">
        <ele>97</ele>
        <time>2012-10-09T13:24:03Z</time>
      </trkpt>
      <trkpt lat="49.36096" lon="1.19854">
        <ele>97.1</ele>
        <time>2012-10-09T13:24:15Z</time>
      </trkpt>
      <trkpt lat="49.36099" lon="1.19846">
        <ele>98.9</ele>
        <time>2012-10-09T13:24:21Z</time>
      </trkpt>
      <trkpt lat="49.36105" lon="1.19842">
        <ele>99.1</ele>
        <time>2012-10-09T13:24:25Z</time>
      </trkpt>
      <trkpt lat="49.3611" lon="1.19836">
        <ele>100.4</ele>
        <time>2012-10-09T13:24:29Z</time>
      </trkpt>
      <trkpt lat="49.36114" lon="1.19832">
        <ele>100.9</ele>
        <time>2012-10-09T13:24:32Z</time>
      </trkpt>
      <trkpt lat="49.36114" lon="1.19824">
        <ele>103</ele>
        <time>2012-10-09T13:24:44Z</time>
      </trkpt>
      <trkpt lat="49.36114" lon="1.19816">
        <ele>104.4</ele>
        <time>2012-10-09T13:24:48Z</time>
      </trkpt>
      <trkpt lat="49.36113" lon="1.19807">
        <ele>104.5</ele>
        <time>2012-10-09T13:24:52Z</time>
      </trkpt>
      <trkpt lat="49.36112" lon="1.19798">
        <ele>105.9</ele>
        <time>2012-10-09T13:24:57Z</time>
      </trkpt>
      <trkpt lat="49.36112" lon="1.1979">
        <ele>105.4</ele>
        <time>2012-10-09T13:25:01Z</time>
      </trkpt>
      <trkpt lat="49.36111" lon="1.19781">
        <ele>105.6</ele>
        <time>2012-10-09T13:25:05Z</time>
      </trkpt>
      <trkpt lat="49.36111" lon="1.19779">
        <ele>105.8</ele>
        <time>2012-10-09T13:25:06Z</time>
      </trkpt>
      <trkpt lat="49.36115" lon="1.19764">
        <ele>107.5</ele>
        <time>2012-10-09T13:25:16Z</time>
      </trkpt>
      <trkpt lat="49.36116" lon="1.19755">
        <ele>107.5</ele>
        <time>2012-10-09T13:25:21Z</time>
      </trkpt>
      <trkpt lat="49.36116" lon="1.19747">
        <ele>108.3</ele>
        <time>2012-10-09T13:25:24Z</time>
      </trkpt>
      <trkpt lat="49.36118" lon="1.19739">
        <ele>109.5</ele>
        <time>2012-10-09T13:25:28Z</time>
      </trkpt>
      <trkpt lat="49.3612" lon="1.19731">
        <ele>109</ele>
        <time>2012-10-09T13:25:32Z</time>
      </trkpt>
      <trkpt lat="49.36121" lon="1.19723">
        <ele>109</ele>
        <time>2012-10-09T13:25:36Z</time>
      </trkpt>
      <trkpt lat="49.36124" lon="1.19715">
        <ele>109.9</ele>
        <time>2012-10-09T13:25:40Z</time>
      </trkpt>
      <trkpt lat="49.36126" lon="1.19706">
        <ele>110.8</ele>
        <time>2012-10-09T13:25:45Z</time>
      </trkpt>
      <trkpt lat="49.36128" lon="1.19698">
        <ele>110</ele>
        <time>2012-10-09T13:25:49Z</time>
      </trkpt>
      <trkpt lat="49.36132" lon="1.19692">
        <ele>111.5</ele>
        <time>2012-10-09T13:25:53Z</time>
      </trkpt>
      <trkpt lat="49.36135" lon="1.19683">
        <ele>112</ele>
        <time>2012-10-09T13:25:59Z</time>
      </trkpt>
      <trkpt lat="49.36139" lon="1.19678">
        <ele>113.5</ele>
        <time>2012-10-09T13:26:04Z</time>
      </trkpt>
      <trkpt lat="49.3614" lon="1.19668">
        <ele>112.8</ele>
        <time>2012-10-09T13:26:09Z</time>
      </trkpt>
      <trkpt lat="49.36141" lon="1.19666">
        <ele>112.6</ele>
        <time>2012-10-09T13:26:10Z</time>
      </trkpt>
      <trkpt lat="49.36146" lon="1.19652">
        <ele>112.6</ele>
        <time>2012-10-09T13:26:21Z</time>
      </trkpt>
      <trkpt lat="49.3615" lon="1.19646">
        <ele>113.5</ele>
        <time>2012-10-09T13:26:26Z</time>
      </trkpt>
      <trkpt lat="49.36154" lon="1.1964">
        <ele>113.3</ele>
        <time>2012-10-09T13:26:31Z</time>
      </trkpt>
      <trkpt lat="49.36158" lon="1.19633">
        <ele>113.4</ele>
        <time>2012-10-09T13:26:36Z</time>
      </trkpt>
      <trkpt lat="49.36161" lon="1.19625">
        <ele>115</ele>
        <time>2012-10-09T13:26:45Z</time>
      </trkpt>
      <trkpt lat="49.36165" lon="1.19618">
        <ele>116.9</ele>
        <time>2012-10-09T13:26:50Z</time>
      </trkpt>
      <trkpt lat="49.36166" lon="1.1961">
        <ele>117.4</ele>
        <time>2012-10-09T13:26:55Z</time>
      </trkpt>
      <trkpt lat="49.3617" lon="1.19603">
        <ele>117.3</ele>
        <time>2012-10-09T13:27:00Z</time>
      </trkpt>
      <trkpt lat="49.36173" lon="1.19595">
        <ele>118.8</ele>
        <time>2012-10-09T13:27:05Z</time>
      </trkpt>
      <trkpt lat="49.36178" lon="1.1959">
        <ele>119.3</ele>
        <time>2012-10-09T13:27:12Z</time>
      </trkpt>
      <trkpt lat="49.36179" lon="1.1959">
        <ele>119.1</ele>
        <time>2012-10-09T13:27:13Z</time>
      </trkpt>
      <trkpt lat="49.36184" lon="1.19577">
        <ele>120.5</ele>
        <time>2012-10-09T13:27:19Z</time>
      </trkpt>
      <trkpt lat="49.36187" lon="1.1957">
        <ele>121</ele>
        <time>2012-10-09T13:27:23Z</time>
      </trkpt>
      <trkpt lat="49.36188" lon="1.19562">
        <ele>121</ele>
        <time>2012-10-09T13:27:27Z</time>
      </trkpt>
      <trkpt lat="49.36191" lon="1.19555">
        <ele>122.4</ele>
        <time>2012-10-09T13:27:31Z</time>
      </trkpt>
      <trkpt lat="49.36195" lon="1.19548">
        <ele>122.4</ele>
        <time>2012-10-09T13:27:36Z</time>
      </trkpt>
      <trkpt lat="49.36196" lon="1.1954">
        <ele>123.8</ele>
        <time>2012-10-09T13:27:40Z</time>
      </trkpt>
      <trkpt lat="49.36196" lon="1.19532">
        <ele>124.8</ele>
        <time>2012-10-09T13:27:43Z</time>
      </trkpt>
      <trkpt lat="49.36197" lon="1.19523">
        <ele>125.1</ele>
        <time>2012-10-09T13:27:48Z</time>
      </trkpt>
      <trkpt lat="49.362" lon="1.19515">
        <ele>126</ele>
        <time>2012-10-09T13:27:53Z</time>
      </trkpt>
      <trkpt lat="49.36202" lon="1.19509">
        <ele>126.3</ele>
        <time>2012-10-09T13:27:57Z</time>
      </trkpt>
      <trkpt lat="49.36203" lon="1.195">
        <ele>127</ele>
        <time>2012-10-09T13:28:02Z</time>
      </trkpt>
      <trkpt lat="49.36204" lon="1.1949">
        <ele>127.5</ele>
        <time>2012-10-09T13:28:08Z</time>
      </trkpt>
      <trkpt lat="49.36207" lon="1.19483">
        <ele>128.6</ele>
        <time>2012-10-09T13:28:16Z</time>
      </trkpt>
      <trkpt lat="49.36208" lon="1.19482">
        <ele>128.8</ele>
        <time>2012-10-09T13:28:17Z</time>
      </trkpt>
      <trkpt lat="49.36212" lon="1.19467">
        <ele>129.8</ele>
        <time>2012-10-09T13:28:25Z</time>
      </trkpt>
      <trkpt lat="49.36213" lon="1.19459">
        <ele>130.3</ele>
        <time>2012-10-09T13:28:29Z</time>
      </trkpt>
      <trkpt lat="49.36214" lon="1.19451">
        <ele>130.8</ele>
        <time>2012-10-09T13:28:33Z</time>
      </trkpt>
      <trkpt lat="49.36216" lon="1.19441">
        <ele>131</ele>
        <time>2012-10-09T13:28:37Z</time>
      </trkpt>
      <trkpt lat="49.3622" lon="1.19435">
        <ele>131.3</ele>
        <time>2012-10-09T13:28:41Z</time>
      </trkpt>
      <trkpt lat="49.36223" lon="1.19429">
        <ele>131.6</ele>
        <time>2012-10-09T13:28:45Z</time>
      </trkpt>
      <trkpt lat="49.36229" lon="1.19425">
        <ele>132</ele>
        <time>2012-10-09T13:28:50Z</time>
      </trkpt>
      <trkpt lat="49.36232" lon="1.19417">
        <ele>132.6</ele>
        <time>2012-10-09T13:28:54Z</time>
      </trkpt>
      <trkpt lat="49.36237" lon="1.19412">
        <ele>132</ele>
        <time>2012-10-09T13:28:59Z</time>
      </trkpt>
      <trkpt lat="49.3624" lon="1.19407">
        <ele>132.1</ele>
        <time>2012-10-09T13:29:03Z</time>
      </trkpt>
      <trkpt lat="49.36244" lon="1.19401">
        <ele>131.6</ele>
        <time>2012-10-09T13:29:07Z</time>
      </trkpt>
      <trkpt lat="49.36248" lon="1.19394">
        <ele>131.6</ele>
        <time>2012-10-09T13:29:13Z</time>
      </trkpt>
      <trkpt lat="49.3625" lon="1.19387">
        <ele>131.1</ele>
        <time>2012-10-09T13:29:17Z</time>
      </trkpt>
      <trkpt lat="49.36254" lon="1.1938">
        <ele>130.5</ele>
        <time>2012-10-09T13:29:21Z</time>
      </trkpt>
      <trkpt lat="49.36254" lon="1.19378">
        <ele>130.5</ele>
        <time>2012-10-09T13:29:22Z</time>
      </trkpt>
      <trkpt lat="49.3626" lon="1.19368">
        <ele>129.8</ele>
        <time>2012-10-09T13:29:28Z</time>
      </trkpt>
      <trkpt lat="49.36265" lon="1.19362">
        <ele>129.8</ele>
        <time>2012-10-09T13:29:32Z</time>
      </trkpt>
      <trkpt lat="49.3627" lon="1.19357">
        <ele>129.8</ele>
        <time>2012-10-09T13:29:37Z</time>
      </trkpt>
      <trkpt lat="49.36275" lon="1.19353">
        <ele>130.3</ele>
        <time>2012-10-09T13:29:41Z</time>
      </trkpt>
      <trkpt lat="49.36279" lon="1.19346">
        <ele>130.3</ele>
        <time>2012-10-09T13:29:46Z</time>
      </trkpt>
      <trkpt lat="49.36282" lon="1.1934">
        <ele>130.5</ele>
        <time>2012-10-09T13:29:50Z</time>
      </trkpt>
      <trkpt lat="49.36286" lon="1.19334">
        <ele>131.1</ele>
        <time>2012-10-09T13:29:55Z</time>
      </trkpt>
      <trkpt lat="49.36291" lon="1.1933">
        <ele>130.8</ele>
        <time>2012-10-09T13:30:06Z</time>
      </trkpt>
      <trkpt lat="49.36295" lon="1.19324">
        <ele>130.6</ele>
        <time>2012-10-09T13:30:10Z</time>
      </trkpt>
      <trkpt lat="49.36299" lon="1.19318">
        <ele>130.5</ele>
        <time>2012-10-09T13:30:17Z</time>
      </trkpt>
      <trkpt lat="49.36302" lon="1.19311">
        <ele>130</ele>
        <time>2012-10-09T13:30:21Z</time>
      </trkpt>
      <trkpt lat="49.36306" lon="1.19306">
        <ele>128.3</ele>
        <time>2012-10-09T13:30:26Z</time>
      </trkpt>
      <trkpt lat="49.36307" lon="1.19305">
        <ele>128.8</ele>
        <time>2012-10-09T13:30:27Z</time>
      </trkpt>
      <trkpt lat="49.36313" lon="1.19295">
        <ele>128.8</ele>
        <time>2012-10-09T13:30:34Z</time>
      </trkpt>
      <trkpt lat="49.36317" lon="1.19289">
        <ele>128.1</ele>
        <time>2012-10-09T13:30:38Z</time>
      </trkpt>
      <trkpt lat="49.36321" lon="1.19284">
        <ele>128</ele>
        <time>2012-10-09T13:30:42Z</time>
      </trkpt>
      <trkpt lat="49.36326" lon="1.19278">
        <ele>128.3</ele>
        <time>2012-10-09T13:30:46Z</time>
      </trkpt>
      <trkpt lat="49.36331" lon="1.19274">
        <ele>128.3</ele>
        <time>2012-10-09T13:30:50Z</time>
      </trkpt>
      <trkpt lat="49.36336" lon="1.19269">
        <ele>127.5</ele>
        <time>2012-10-09T13:30:55Z</time>
      </trkpt>
      <trkpt lat="49.36341" lon="1.19264">
        <ele>127.5</ele>
        <time>2012-10-09T13:30:59Z</time>
      </trkpt>
      <trkpt lat="49.36345" lon="1.1926">
        <ele>127.5</ele>
        <time>2012-10-09T13:31:03Z</time>
      </trkpt>
      <trkpt lat="49.3635" lon="1.19256">
        <ele>127.1</ele>
        <time>2012-10-09T13:31:07Z</time>
      </trkpt>
      <trkpt lat="49.36355" lon="1.19252">
        <ele>127.5</ele>
        <time>2012-10-09T13:31:11Z</time>
      </trkpt>
      <trkpt lat="49.36361" lon="1.19248">
        <ele>128.1</ele>
        <time>2012-10-09T13:31:16Z</time>
      </trkpt>
      <trkpt lat="49.36366" lon="1.19243">
        <ele>127.8</ele>
        <time>2012-10-09T13:31:23Z</time>
      </trkpt>
      <trkpt lat="49.36371" lon="1.19239">
        <ele>127.6</ele>
        <time>2012-10-09T13:31:27Z</time>
      </trkpt>
      <trkpt lat="49.36376" lon="1.19235">
        <ele>127.5</ele>
        <time>2012-10-09T13:31:32Z</time>
      </trkpt>
      <trkpt lat="49.36378" lon="1.19234">
        <ele>127</ele>
        <time>2012-10-09T13:31:33Z</time>
      </trkpt>
      <trkpt lat="49.36386" lon="1.19226">
        <ele>126.9</ele>
        <time>2012-10-09T13:31:41Z</time>
      </trkpt>
      <trkpt lat="49.36391" lon="1.19223">
        <ele>126.9</ele>
        <time>2012-10-09T13:31:45Z</time>
      </trkpt>
      <trkpt lat="49.36396" lon="1.19218">
        <ele>126.9</ele>
        <time>2012-10-09T13:31:49Z</time>
      </trkpt>
      <trkpt lat="49.36401" lon="1.19214">
        <ele>126.6</ele>
        <time>2012-10-09T13:31:53Z</time>
      </trkpt>
      <trkpt lat="49.36406" lon="1.19208">
        <ele>126.5</ele>
        <time>2012-10-09T13:31:58Z</time>
      </trkpt>
      <trkpt lat="49.3641" lon="1.19204">
        <ele>126.4</ele>
        <time>2012-10-09T13:32:02Z</time>
      </trkpt>
      <trkpt lat="49.36415" lon="1.19199">
        <ele>126.6</ele>
        <time>2012-10-09T13:32:06Z</time>
      </trkpt>
      <trkpt lat="49.3642" lon="1.19194">
        <ele>127.4</ele>
        <time>2012-10-09T13:32:10Z</time>
      </trkpt>
      <trkpt lat="49.36423" lon="1.19188">
        <ele>128</ele>
        <time>2012-10-09T13:32:14Z</time>
      </trkpt>
      <trkpt lat="49.36427" lon="1.19181">
        <ele>128.1</ele>
        <time>2012-10-09T13:32:19Z</time>
      </trkpt>
      <trkpt lat="49.36432" lon="1.19174">
        <ele>128.6</ele>
        <time>2012-10-09T13:32:25Z</time>
      </trkpt>
      <trkpt lat="49.36435" lon="1.19168">
        <ele>129.1</ele>
        <time>2012-10-09T13:32:30Z</time>
      </trkpt>
      <trkpt lat="49.36439" lon="1.1916">
        <ele>129.8</ele>
        <time>2012-10-09T13:32:35Z</time>
      </trkpt>
      <trkpt lat="49.3644" lon="1.19158">
        <ele>130.1</ele>
        <time>2012-10-09T13:32:36Z</time>
      </trkpt>
      <trkpt lat="49.36443" lon="1.19143">
        <ele>130.5</ele>
        <time>2012-10-09T13:32:45Z</time>
      </trkpt>
      <trkpt lat="49.36445" lon="1.19135">
        <ele>130.3</ele>
        <time>2012-10-09T13:32:49Z</time>
      </trkpt>
      <trkpt lat="49.36445" lon="1.19128">
        <ele>130.3</ele>
        <time>2012-10-09T13:32:53Z</time>
      </trkpt>
      <trkpt lat="49.36445" lon="1.19119">
        <ele>130.8</ele>
        <time>2012-10-09T13:32:57Z</time>
      </trkpt>
      <trkpt lat="49.36447" lon="1.1911">
        <ele>130.8</ele>
        <time>2012-10-09T13:33:02Z</time>
      </trkpt>
      <trkpt lat="49.36447" lon="1.19102">
        <ele>131</ele>
        <time>2012-10-09T13:33:06Z</time>
      </trkpt>
      <trkpt lat="49.36447" lon="1.19093">
        <ele>131</ele>
        <time>2012-10-09T13:33:12Z</time>
      </trkpt>
      <trkpt lat="49.36446" lon="1.19084">
        <ele>130.6</ele>
        <time>2012-10-09T13:33:17Z</time>
      </trkpt>
      <trkpt lat="49.36445" lon="1.19075">
        <ele>130.3</ele>
        <time>2012-10-09T13:33:22Z</time>
      </trkpt>
      <trkpt lat="49.36444" lon="1.19068">
        <ele>130.3</ele>
        <time>2012-10-09T13:33:25Z</time>
      </trkpt>
      <trkpt lat="49.36443" lon="1.1906">
        <ele>131.1</ele>
        <time>2012-10-09T13:33:28Z</time>
      </trkpt>
      <trkpt lat="49.36443" lon="1.19052">
        <ele>131</ele>
        <time>2012-10-09T13:33:32Z</time>
      </trkpt>
      <trkpt lat="49.36443" lon="1.19043">
        <ele>131.5</ele>
        <time>2012-10-09T13:33:36Z</time>
      </trkpt>
      <trkpt lat="49.36444" lon="1.19041">
        <ele>131.8</ele>
        <time>2012-10-09T13:33:37Z</time>
      </trkpt>
      <trkpt lat="49.36446" lon="1.19028">
        <ele>132.3</ele>
        <time>2012-10-09T13:33:44Z</time>
      </trkpt>
      <trkpt lat="49.36449" lon="1.19021">
        <ele>131.8</ele>
        <time>2012-10-09T13:33:48Z</time>
      </trkpt>
      <trkpt lat="49.36451" lon="1.19014">
        <ele>132.3</ele>
        <time>2012-10-09T13:33:52Z</time>
      </trkpt>
      <trkpt lat="49.36454" lon="1.19005">
        <ele>131.5</ele>
        <time>2012-10-09T13:33:57Z</time>
      </trkpt>
      <trkpt lat="49.36455" lon="1.18996">
        <ele>132.6</ele>
        <time>2012-10-09T13:34:01Z</time>
      </trkpt>
      <trkpt lat="49.36457" lon="1.18989">
        <ele>132.8</ele>
        <time>2012-10-09T13:34:05Z</time>
      </trkpt>
      <trkpt lat="49.36457" lon="1.18979">
        <ele>133</ele>
        <time>2012-10-09T13:34:10Z</time>
      </trkpt>
      <trkpt lat="49.36453" lon="1.18972">
        <ele>133.3</ele>
        <time>2012-10-09T13:34:16Z</time>
      </trkpt>
      <trkpt lat="49.36448" lon="1.18968">
        <ele>133.3</ele>
        <time>2012-10-09T13:35:11Z</time>
      </trkpt>
      <trkpt lat="49.36447" lon="1.18967">
        <ele>133.6</ele>
        <time>2012-10-09T13:35:12Z</time>
      </trkpt>
      <trkpt lat="49.36438" lon="1.1896">
        <ele>134.1</ele>
        <time>2012-10-09T13:35:21Z</time>
      </trkpt>
      <trkpt lat="49.36432" lon="1.18957">
        <ele>134.1</ele>
        <time>2012-10-09T13:35:26Z</time>
      </trkpt>
      <trkpt lat="49.36427" lon="1.18955">
        <ele>134.3</ele>
        <time>2012-10-09T13:35:30Z</time>
      </trkpt>
      <trkpt lat="49.36422" lon="1.18954">
        <ele>135.1</ele>
        <time>2012-10-09T13:35:34Z</time>
      </trkpt>
      <trkpt lat="49.36417" lon="1.18954">
        <ele>135.6</ele>
        <time>2012-10-09T13:35:38Z</time>
      </trkpt>
      <trkpt lat="49.36411" lon="1.18953">
        <ele>136.6</ele>
        <time>2012-10-09T13:35:42Z</time>
      </trkpt>
      <trkpt lat="49.36405" lon="1.18954">
        <ele>135.6</ele>
        <time>2012-10-09T13:35:47Z</time>
      </trkpt>
      <trkpt lat="49.364" lon="1.18953">
        <ele>135.8</ele>
        <time>2012-10-09T13:35:50Z</time>
      </trkpt>
      <trkpt lat="49.36394" lon="1.18953">
        <ele>134.6</ele>
        <time>2012-10-09T13:35:54Z</time>
      </trkpt>
      <trkpt lat="49.36389" lon="1.18954">
        <ele>133.8</ele>
        <time>2012-10-09T13:36:00Z</time>
      </trkpt>
      <trkpt lat="49.36383" lon="1.18957">
        <ele>133.6</ele>
        <time>2012-10-09T13:36:05Z</time>
      </trkpt>
      <trkpt lat="49.36377" lon="1.18959">
        <ele>133.3</ele>
        <time>2012-10-09T13:36:09Z</time>
      </trkpt>
      <trkpt lat="49.36372" lon="1.18958">
        <ele>132.8</ele>
        <time>2012-10-09T13:36:12Z</time>
      </trkpt>
      <trkpt lat="49.36367" lon="1.18959">
        <ele>131</ele>
        <time>2012-10-09T13:36:16Z</time>
      </trkpt>
      <trkpt lat="49.36365" lon="1.18959">
        <ele>130.6</ele>
        <time>2012-10-09T13:36:17Z</time>
      </trkpt>
      <trkpt lat="49.36355" lon="1.18961">
        <ele>129.3</ele>
        <time>2012-10-09T13:36:25Z</time>
      </trkpt>
      <trkpt lat="49.36349" lon="1.18963">
        <ele>129.3</ele>
        <time>2012-10-09T13:36:30Z</time>
      </trkpt>
      <trkpt lat="49.36344" lon="1.18962">
        <ele>129.5</ele>
        <time>2012-10-09T13:36:34Z</time>
      </trkpt>
      <trkpt lat="49.36338" lon="1.18963">
        <ele>128.5</ele>
        <time>2012-10-09T13:36:39Z</time>
      </trkpt>
      <trkpt lat="49.36333" lon="1.18963">
        <ele>128.3</ele>
        <time>2012-10-09T13:36:44Z</time>
      </trkpt>
      <trkpt lat="49.36328" lon="1.18963">
        <ele>127.4</ele>
        <time>2012-10-09T13:36:48Z</time>
      </trkpt>
      <trkpt lat="49.36323" lon="1.18963">
        <ele>126.9</ele>
        <time>2012-10-09T13:36:51Z</time>
      </trkpt>
      <trkpt lat="49.36317" lon="1.18964">
        <ele>126.8</ele>
        <time>2012-10-09T13:36:56Z</time>
      </trkpt>
      <trkpt lat="49.36311" lon="1.18965">
        <ele>125.9</ele>
        <time>2012-10-09T13:37:02Z</time>
      </trkpt>
      <trkpt lat="49.36305" lon="1.18965">
        <ele>124.5</ele>
        <time>2012-10-09T13:37:09Z</time>
      </trkpt>
      <trkpt lat="49.36299" lon="1.18964">
        <ele>123.8</ele>
        <time>2012-10-09T13:37:13Z</time>
      </trkpt>
      <trkpt lat="49.36294" lon="1.18961">
        <ele>123.1</ele>
        <time>2012-10-09T13:37:18Z</time>
      </trkpt>
      <trkpt lat="49.36292" lon="1.1896">
        <ele>123.1</ele>
        <time>2012-10-09T13:37:19Z</time>
      </trkpt>
      <trkpt lat="49.36284" lon="1.18961">
        <ele>122.4</ele>
        <time>2012-10-09T13:37:25Z</time>
      </trkpt>
      <trkpt lat="49.36279" lon="1.18961">
        <ele>122</ele>
        <time>2012-10-09T13:37:29Z</time>
      </trkpt>
      <trkpt lat="49.36273" lon="1.18961">
        <ele>121.9</ele>
        <time>2012-10-09T13:37:33Z</time>
      </trkpt>
      <trkpt lat="49.36268" lon="1.18959">
        <ele>121.8</ele>
        <time>2012-10-09T13:37:38Z</time>
      </trkpt>
      <trkpt lat="49.36263" lon="1.18956">
        <ele>121.6</ele>
        <time>2012-10-09T13:37:42Z</time>
      </trkpt>
      <trkpt lat="49.36259" lon="1.18951">
        <ele>121</ele>
        <time>2012-10-09T13:37:45Z</time>
      </trkpt>
      <trkpt lat="49.36255" lon="1.18946">
        <ele>120</ele>
        <time>2012-10-09T13:37:50Z</time>
      </trkpt>
      <trkpt lat="49.36252" lon="1.18939">
        <ele>119.3</ele>
        <time>2012-10-09T13:37:55Z</time>
      </trkpt>
      <trkpt lat="49.36248" lon="1.18932">
        <ele>119.1</ele>
        <time>2012-10-09T13:38:00Z</time>
      </trkpt>
      <trkpt lat="49.36245" lon="1.18925">
        <ele>118.5</ele>
        <time>2012-10-09T13:38:05Z</time>
      </trkpt>
      <trkpt lat="49.36242" lon="1.18917">
        <ele>117.8</ele>
        <time>2012-10-09T13:38:10Z</time>
      </trkpt>
      <trkpt lat="49.36239" lon="1.18909">
        <ele>116.5</ele>
        <time>2012-10-09T13:38:15Z</time>
      </trkpt>
      <trkpt lat="49.36235" lon="1.18904">
        <ele>117</ele>
        <time>2012-10-09T13:38:19Z</time>
      </trkpt>
      <trkpt lat="49.36231" lon="1.18898">
        <ele>116.9</ele>
        <time>2012-10-09T13:38:23Z</time>
      </trkpt>
      <trkpt lat="49.3623" lon="1.18897">
        <ele>116.5</ele>
        <time>2012-10-09T13:38:24Z</time>
      </trkpt>
      <trkpt lat="49.36221" lon="1.18891">
        <ele>117.5</ele>
        <time>2012-10-09T13:38:31Z</time>
      </trkpt>
      <trkpt lat="49.36216" lon="1.18889">
        <ele>117.9</ele>
        <time>2012-10-09T13:38:35Z</time>
      </trkpt>
      <trkpt lat="49.3621" lon="1.18888">
        <ele>117.5</ele>
        <time>2012-10-09T13:38:39Z</time>
      </trkpt>
      <trkpt lat="49.36205" lon="1.18885">
        <ele>117.5</ele>
        <time>2012-10-09T13:38:43Z</time>
      </trkpt>
      <trkpt lat="49.36199" lon="1.18885">
        <ele>117.5</ele>
        <time>2012-10-09T13:38:47Z</time>
      </trkpt>
      <trkpt lat="49.36194" lon="1.18886">
        <ele>118</ele>
        <time>2012-10-09T13:38:51Z</time>
      </trkpt>
      <trkpt lat="49.36189" lon="1.18888">
        <ele>118.4</ele>
        <time>2012-10-09T13:38:55Z</time>
      </trkpt>
      <trkpt lat="49.36186" lon="1.18895">
        <ele>117.5</ele>
        <time>2012-10-09T13:38:59Z</time>
      </trkpt>
      <trkpt lat="49.36182" lon="1.18903">
        <ele>117.6</ele>
        <time>2012-10-09T13:39:04Z</time>
      </trkpt>
      <trkpt lat="49.36181" lon="1.18911">
        <ele>117.1</ele>
        <time>2012-10-09T13:39:08Z</time>
      </trkpt>
      <trkpt lat="49.36178" lon="1.18918">
        <ele>116.6</ele>
        <time>2012-10-09T13:39:13Z</time>
      </trkpt>
      <trkpt lat="49.36176" lon="1.18926">
        <ele>116.5</ele>
        <time>2012-10-09T13:39:17Z</time>
      </trkpt>
      <trkpt lat="49.36173" lon="1.18934">
        <ele>115.8</ele>
        <time>2012-10-09T13:39:22Z</time>
      </trkpt>
      <trkpt lat="49.3617" lon="1.18941">
        <ele>116</ele>
        <time>2012-10-09T13:39:26Z</time>
      </trkpt>
      <trkpt lat="49.36168" lon="1.18942">
        <ele>115.9</ele>
        <time>2012-10-09T13:39:27Z</time>
      </trkpt>
      <trkpt lat="49.36164" lon="1.18956">
        <ele>115.1</ele>
        <time>2012-10-09T13:39:35Z</time>
      </trkpt>
      <trkpt lat="49.36162" lon="1.18964">
        <ele>114.9</ele>
        <time>2012-10-09T13:39:40Z</time>
      </trkpt>
      <trkpt lat="49.36159" lon="1.18972">
        <ele>115.5</ele>
        <time>2012-10-09T13:39:45Z</time>
      </trkpt>
      <trkpt lat="49.36156" lon="1.18978">
        <ele>115.5</ele>
        <time>2012-10-09T13:39:48Z</time>
      </trkpt>
      <trkpt lat="49.36153" lon="1.18983">
        <ele>115.5</ele>
        <time>2012-10-09T13:39:51Z</time>
      </trkpt>
      <trkpt lat="49.36148" lon="1.18989">
        <ele>115.8</ele>
        <time>2012-10-09T13:39:57Z</time>
      </trkpt>
      <trkpt lat="49.36142" lon="1.18993">
        <ele>115.6</ele>
        <time>2012-10-09T13:40:00Z</time>
      </trkpt>
      <trkpt lat="49.36137" lon="1.18997">
        <ele>115.6</ele>
        <time>2012-10-09T13:40:05Z</time>
      </trkpt>
      <trkpt lat="49.36132" lon="1.19">
        <ele>115.1</ele>
        <time>2012-10-09T13:40:09Z</time>
      </trkpt>
      <trkpt lat="49.36127" lon="1.19004">
        <ele>115.9</ele>
        <time>2012-10-09T13:40:14Z</time>
      </trkpt>
      <trkpt lat="49.36121" lon="1.19007">
        <ele>116.3</ele>
        <time>2012-10-09T13:40:19Z</time>
      </trkpt>
      <trkpt lat="49.36116" lon="1.19008">
        <ele>117.4</ele>
        <time>2012-10-09T13:40:24Z</time>
      </trkpt>
      <trkpt lat="49.36111" lon="1.19011">
        <ele>118.1</ele>
        <time>2012-10-09T13:40:28Z</time>
      </trkpt>
      <trkpt lat="49.3611" lon="1.19013">
        <ele>118</ele>
        <time>2012-10-09T13:40:29Z</time>
      </trkpt>
      <trkpt lat="49.36101" lon="1.19018">
        <ele>118.9</ele>
        <time>2012-10-09T13:40:37Z</time>
      </trkpt>
      <trkpt lat="49.36096" lon="1.19022">
        <ele>119.3</ele>
        <time>2012-10-09T13:40:42Z</time>
      </trkpt>
      <trkpt lat="49.3609" lon="1.19024">
        <ele>120</ele>
        <time>2012-10-09T13:40:48Z</time>
      </trkpt>
      <trkpt lat="49.36086" lon="1.19028">
        <ele>120.8</ele>
        <time>2012-10-09T13:40:52Z</time>
      </trkpt>
      <trkpt lat="49.3608" lon="1.1903">
        <ele>121.5</ele>
        <time>2012-10-09T13:40:56Z</time>
      </trkpt>
      <trkpt lat="49.36075" lon="1.19032">
        <ele>122.1</ele>
        <time>2012-10-09T13:41:01Z</time>
      </trkpt>
      <trkpt lat="49.36069" lon="1.19033">
        <ele>123</ele>
        <time>2012-10-09T13:41:06Z</time>
      </trkpt>
      <trkpt lat="49.36064" lon="1.19036">
        <ele>122.9</ele>
        <time>2012-10-09T13:41:11Z</time>
      </trkpt>
      <trkpt lat="49.36059" lon="1.1904">
        <ele>123.3</ele>
        <time>2012-10-09T13:41:22Z</time>
      </trkpt>
      <trkpt lat="49.36053" lon="1.19042">
        <ele>123.5</ele>
        <time>2012-10-09T13:41:27Z</time>
      </trkpt>
      <trkpt lat="49.36048" lon="1.19045">
        <ele>123.9</ele>
        <time>2012-10-09T13:41:31Z</time>
      </trkpt>
      <trkpt lat="49.36047" lon="1.19046">
        <ele>123.6</ele>
        <time>2012-10-09T13:41:32Z</time>
      </trkpt>
      <trkpt lat="49.36038" lon="1.1905">
        <ele>124.5</ele>
        <time>2012-10-09T13:41:39Z</time>
      </trkpt>
      <trkpt lat="49.36032" lon="1.19054">
        <ele>124.5</ele>
        <time>2012-10-09T13:41:43Z</time>
      </trkpt>
      <trkpt lat="49.36027" lon="1.19055">
        <ele>124.5</ele>
        <time>2012-10-09T13:41:47Z</time>
      </trkpt>
      <trkpt lat="49.36022" lon="1.19056">
        <ele>124</ele>
        <time>2012-10-09T13:41:51Z</time>
      </trkpt>
      <trkpt lat="49.36017" lon="1.19059">
        <ele>124.5</ele>
        <time>2012-10-09T13:41:55Z</time>
      </trkpt>
      <trkpt lat="49.36011" lon="1.19061">
        <ele>124.5</ele>
        <time>2012-10-09T13:41:59Z</time>
      </trkpt>
      <trkpt lat="49.36006" lon="1.19063">
        <ele>123.8</ele>
        <time>2012-10-09T13:42:04Z</time>
      </trkpt>
      <trkpt lat="49.36" lon="1.19063">
        <ele>124</ele>
        <time>2012-10-09T13:42:09Z</time>
      </trkpt>
      <trkpt lat="49.35994" lon="1.19063">
        <ele>123.8</ele>
        <time>2012-10-09T13:42:13Z</time>
      </trkpt>
      <trkpt lat="49.35988" lon="1.19061">
        <ele>123.5</ele>
        <time>2012-10-09T13:42:18Z</time>
      </trkpt>
      <trkpt lat="49.35983" lon="1.19061">
        <ele>124.9</ele>
        <time>2012-10-09T13:42:22Z</time>
      </trkpt>
      <trkpt lat="49.35978" lon="1.19062">
        <ele>125</ele>
        <time>2012-10-09T13:42:26Z</time>
      </trkpt>
      <trkpt lat="49.35972" lon="1.19063">
        <ele>124.9</ele>
        <time>2012-10-09T13:42:30Z</time>
      </trkpt>
      <trkpt lat="49.35967" lon="1.19062">
        <ele>124.4</ele>
        <time>2012-10-09T13:42:35Z</time>
      </trkpt>
      <trkpt lat="49.35965" lon="1.19062">
        <ele>124.4</ele>
        <time>2012-10-09T13:42:36Z</time>
      </trkpt>
      <trkpt lat="49.35955" lon="1.1906">
        <ele>124.1</ele>
        <time>2012-10-09T13:42:43Z</time>
      </trkpt>
      <trkpt lat="49.3595" lon="1.19057">
        <ele>124.1</ele>
        <time>2012-10-09T13:42:47Z</time>
      </trkpt>
      <trkpt lat="49.35944" lon="1.19055">
        <ele>124.6</ele>
        <time>2012-10-09T13:42:51Z</time>
      </trkpt>
      <trkpt lat="49.35939" lon="1.19053">
        <ele>124</ele>
        <time>2012-10-09T13:42:55Z</time>
      </trkpt>
      <trkpt lat="49.35933" lon="1.19051">
        <ele>124.5</ele>
        <time>2012-10-09T13:43:00Z</time>
      </trkpt>
      <trkpt lat="49.35928" lon="1.19049">
        <ele>124.8</ele>
        <time>2012-10-09T13:43:04Z</time>
      </trkpt>
      <trkpt lat="49.35922" lon="1.19046">
        <ele>124.5</ele>
        <time>2012-10-09T13:43:15Z</time>
      </trkpt>
      <trkpt lat="49.35917" lon="1.19042">
        <ele>125.9</ele>
        <time>2012-10-09T13:43:19Z</time>
      </trkpt>
      <trkpt lat="49.35913" lon="1.19038">
        <ele>126.8</ele>
        <time>2012-10-09T13:43:23Z</time>
      </trkpt>
      <trkpt lat="49.35908" lon="1.19035">
        <ele>126.4</ele>
        <time>2012-10-09T13:43:27Z</time>
      </trkpt>
      <trkpt lat="49.35903" lon="1.19032">
        <ele>127</ele>
        <time>2012-10-09T13:43:31Z</time>
      </trkpt>
      <trkpt lat="49.35898" lon="1.19029">
        <ele>127</ele>
        <time>2012-10-09T13:43:36Z</time>
      </trkpt>
      <trkpt lat="49.35892" lon="1.19026">
        <ele>127.8</ele>
        <time>2012-10-09T13:43:41Z</time>
      </trkpt>
      <trkpt lat="49.35891" lon="1.19026">
        <ele>127.9</ele>
        <time>2012-10-09T13:43:42Z</time>
      </trkpt>
      <trkpt lat="49.35881" lon="1.1902">
        <ele>128.1</ele>
        <time>2012-10-09T13:43:50Z</time>
      </trkpt>
      <trkpt lat="49.35877" lon="1.19016">
        <ele>128.5</ele>
        <time>2012-10-09T13:43:54Z</time>
      </trkpt>
      <trkpt lat="49.35872" lon="1.19014">
        <ele>129.1</ele>
        <time>2012-10-09T13:43:57Z</time>
      </trkpt>
      <trkpt lat="49.35867" lon="1.19011">
        <ele>129</ele>
        <time>2012-10-09T13:44:01Z</time>
      </trkpt>
      <trkpt lat="49.35862" lon="1.19005">
        <ele>129</ele>
        <time>2012-10-09T13:44:06Z</time>
      </trkpt>
      <trkpt lat="49.35857" lon="1.19002">
        <ele>129.1</ele>
        <time>2012-10-09T13:44:10Z</time>
      </trkpt>
      <trkpt lat="49.35852" lon="1.19">
        <ele>129.6</ele>
        <time>2012-10-09T13:44:14Z</time>
      </trkpt>
      <trkpt lat="49.35847" lon="1.18996">
        <ele>129.6</ele>
        <time>2012-10-09T13:44:18Z</time>
      </trkpt>
      <trkpt lat="49.35842" lon="1.1899">
        <ele>129.3</ele>
        <time>2012-10-09T13:44:23Z</time>
      </trkpt>
      <trkpt lat="49.35838" lon="1.18984">
        <ele>129.3</ele>
        <time>2012-10-09T13:44:27Z</time>
      </trkpt>
      <trkpt lat="49.35835" lon="1.18977">
        <ele>129.3</ele>
        <time>2012-10-09T13:44:31Z</time>
      </trkpt>
      <trkpt lat="49.35831" lon="1.18971">
        <ele>129</ele>
        <time>2012-10-09T13:44:35Z</time>
      </trkpt>
      <trkpt lat="49.35827" lon="1.18965">
        <ele>128.3</ele>
        <time>2012-10-09T13:44:40Z</time>
      </trkpt>
      <trkpt lat="49.35825" lon="1.18959">
        <ele>128.1</ele>
        <time>2012-10-09T13:44:43Z</time>
      </trkpt>
      <trkpt lat="49.35824" lon="1.18957">
        <ele>128.1</ele>
        <time>2012-10-09T13:44:44Z</time>
      </trkpt>
      <trkpt lat="49.35819" lon="1.18943">
        <ele>127.4</ele>
        <time>2012-10-09T13:44:52Z</time>
      </trkpt>
      <trkpt lat="49.35815" lon="1.18938">
        <ele>126.4</ele>
        <time>2012-10-09T13:44:55Z</time>
      </trkpt>
      <trkpt lat="49.35812" lon="1.18932">
        <ele>125.6</ele>
        <time>2012-10-09T13:44:59Z</time>
      </trkpt>
      <trkpt lat="49.35807" lon="1.18925">
        <ele>124.4</ele>
        <time>2012-10-09T13:45:04Z</time>
      </trkpt>
      <trkpt lat="49.35804" lon="1.18919">
        <ele>123.3</ele>
        <time>2012-10-09T13:45:08Z</time>
      </trkpt>
      <trkpt lat="49.35801" lon="1.18912">
        <ele>123.5</ele>
        <time>2012-10-09T13:45:13Z</time>
      </trkpt>
      <trkpt lat="49.35797" lon="1.18905">
        <ele>122.5</ele>
        <time>2012-10-09T13:45:18Z</time>
      </trkpt>
      <trkpt lat="49.35793" lon="1.18901">
        <ele>122.1</ele>
        <time>2012-10-09T13:45:22Z</time>
      </trkpt>
      <trkpt lat="49.35788" lon="1.18896">
        <ele>121.9</ele>
        <time>2012-10-09T13:45:28Z</time>
      </trkpt>
      <trkpt lat="49.35784" lon="1.18892">
        <ele>121.5</ele>
        <time>2012-10-09T13:45:32Z</time>
      </trkpt>
      <trkpt lat="49.35779" lon="1.18889">
        <ele>121.8</ele>
        <time>2012-10-09T13:45:35Z</time>
      </trkpt>
      <trkpt lat="49.35774" lon="1.18885">
        <ele>121</ele>
        <time>2012-10-09T13:45:39Z</time>
      </trkpt>
      <trkpt lat="49.35769" lon="1.18882">
        <ele>120.8</ele>
        <time>2012-10-09T13:45:43Z</time>
      </trkpt>
      <trkpt lat="49.35764" lon="1.18877">
        <ele>121</ele>
        <time>2012-10-09T13:45:47Z</time>
      </trkpt>
      <trkpt lat="49.35762" lon="1.18877">
        <ele>120.9</ele>
        <time>2012-10-09T13:45:48Z</time>
      </trkpt>
      <trkpt lat="49.35753" lon="1.18874">
        <ele>120.3</ele>
        <time>2012-10-09T13:45:56Z</time>
      </trkpt>
      <trkpt lat="49.35748" lon="1.18874">
        <ele>120.1</ele>
        <time>2012-10-09T13:45:59Z</time>
      </trkpt>
      <trkpt lat="49.35743" lon="1.18875">
        <ele>119.6</ele>
        <time>2012-10-09T13:46:05Z</time>
      </trkpt>
      <trkpt lat="49.35738" lon="1.18879">
        <ele>119.8</ele>
        <time>2012-10-09T13:46:09Z</time>
      </trkpt>
      <trkpt lat="49.35732" lon="1.18883">
        <ele>120</ele>
        <time>2012-10-09T13:46:14Z</time>
      </trkpt>
      <trkpt lat="49.35727" lon="1.18887">
        <ele>120.1</ele>
        <time>2012-10-09T13:46:18Z</time>
      </trkpt>
      <trkpt lat="49.35722" lon="1.18893">
        <ele>120.5</ele>
        <time>2012-10-09T13:46:23Z</time>
      </trkpt>
      <trkpt lat="49.35719" lon="1.18901">
        <ele>120.5</ele>
        <time>2012-10-09T13:46:28Z</time>
      </trkpt>
      <trkpt lat="49.35717" lon="1.18908">
        <ele>120.6</ele>
        <time>2012-10-09T13:46:33Z</time>
      </trkpt>
      <trkpt lat="49.35713" lon="1.18913">
        <ele>121</ele>
        <time>2012-10-09T13:46:37Z</time>
      </trkpt>
      <trkpt lat="49.35709" lon="1.1892">
        <ele>122.4</ele>
        <time>2012-10-09T13:46:42Z</time>
      </trkpt>
      <trkpt lat="49.35705" lon="1.18928">
        <ele>122.3</ele>
        <time>2012-10-09T13:46:47Z</time>
      </trkpt>
      <trkpt lat="49.35702" lon="1.18936">
        <ele>122.5</ele>
        <time>2012-10-09T13:46:52Z</time>
      </trkpt>
      <trkpt lat="49.35701" lon="1.18938">
        <ele>122.5</ele>
        <time>2012-10-09T13:46:53Z</time>
      </trkpt>
      <trkpt lat="49.35696" lon="1.1895">
        <ele>122.8</ele>
        <time>2012-10-09T13:47:00Z</time>
      </trkpt>
      <trkpt lat="49.35693" lon="1.18958">
        <ele>123.5</ele>
        <time>2012-10-09T13:47:05Z</time>
      </trkpt>
      <trkpt lat="49.35691" lon="1.18966">
        <ele>123.4</ele>
        <time>2012-10-09T13:47:09Z</time>
      </trkpt>
      <trkpt lat="49.35687" lon="1.18973">
        <ele>123.9</ele>
        <time>2012-10-09T13:47:14Z</time>
      </trkpt>
      <trkpt lat="49.35684" lon="1.1898">
        <ele>124.4</ele>
        <time>2012-10-09T13:47:18Z</time>
      </trkpt>
      <trkpt lat="49.3568" lon="1.18986">
        <ele>124</ele>
        <time>2012-10-09T13:47:22Z</time>
      </trkpt>
      <trkpt lat="49.35677" lon="1.18992">
        <ele>124.3</ele>
        <time>2012-10-09T13:47:26Z</time>
      </trkpt>
      <trkpt lat="49.35674" lon="1.18998">
        <ele>124.5</ele>
        <time>2012-10-09T13:47:30Z</time>
      </trkpt>
      <trkpt lat="49.3567" lon="1.19004">
        <ele>125.6</ele>
        <time>2012-10-09T13:47:34Z</time>
      </trkpt>
      <trkpt lat="49.35665" lon="1.19008">
        <ele>126.3</ele>
        <time>2012-10-09T13:47:38Z</time>
      </trkpt>
      <trkpt lat="49.35659" lon="1.19012">
        <ele>126.1</ele>
        <time>2012-10-09T13:47:42Z</time>
      </trkpt>
      <trkpt lat="49.35653" lon="1.19015">
        <ele>125.5</ele>
        <time>2012-10-09T13:47:47Z</time>
      </trkpt>
      <trkpt lat="49.35647" lon="1.19017">
        <ele>125</ele>
        <time>2012-10-09T13:47:52Z</time>
      </trkpt>
      <trkpt lat="49.35642" lon="1.19019">
        <ele>125.6</ele>
        <time>2012-10-09T13:47:56Z</time>
      </trkpt>
      <trkpt lat="49.35641" lon="1.19019">
        <ele>125.4</ele>
        <time>2012-10-09T13:47:57Z</time>
      </trkpt>
      <trkpt lat="49.35632" lon="1.19019">
        <ele>126.5</ele>
        <time>2012-10-09T13:48:04Z</time>
      </trkpt>
      <trkpt lat="49.35626" lon="1.1902">
        <ele>126.9</ele>
        <time>2012-10-09T13:48:08Z</time>
      </trkpt>
      <trkpt lat="49.3562" lon="1.19018">
        <ele>127.1</ele>
        <time>2012-10-09T13:48:13Z</time>
      </trkpt>
      <trkpt lat="49.35615" lon="1.19016">
        <ele>127.3</ele>
        <time>2012-10-09T13:48:17Z</time>
      </trkpt>
      <trkpt lat="49.35609" lon="1.19014">
        <ele>127.5</ele>
        <time>2012-10-09T13:48:21Z</time>
      </trkpt>
      <trkpt lat="49.35603" lon="1.19011">
        <ele>127.9</ele>
        <time>2012-10-09T13:48:26Z</time>
      </trkpt>
      <trkpt lat="49.35598" lon="1.19007">
        <ele>128.1</ele>
        <time>2012-10-09T13:48:31Z</time>
      </trkpt>
      <trkpt lat="49.35593" lon="1.19005">
        <ele>127.8</ele>
        <time>2012-10-09T13:48:35Z</time>
      </trkpt>
      <trkpt lat="49.35588" lon="1.19003">
        <ele>127.6</ele>
        <time>2012-10-09T13:48:39Z</time>
      </trkpt>
      <trkpt lat="49.35582" lon="1.19001">
        <ele>126.5</ele>
        <time>2012-10-09T13:48:44Z</time>
      </trkpt>
      <trkpt lat="49.35577" lon="1.18998">
        <ele>126.3</ele>
        <time>2012-10-09T13:48:48Z</time>
      </trkpt>
      <trkpt lat="49.35572" lon="1.18995">
        <ele>126.5</ele>
        <time>2012-10-09T13:48:55Z</time>
      </trkpt>
      <trkpt lat="49.35566" lon="1.18993">
        <ele>126.8</ele>
        <time>2012-10-09T13:48:59Z</time>
      </trkpt>
      <trkpt lat="49.35565" lon="1.18992">
        <ele>126.5</ele>
        <time>2012-10-09T13:49:00Z</time>
      </trkpt>
      <trkpt lat="49.35556" lon="1.18988">
        <ele>126.4</ele>
        <time>2012-10-09T13:49:07Z</time>
      </trkpt>
      <trkpt lat="49.35551" lon="1.18984">
        <ele>126</ele>
        <time>2012-10-09T13:49:11Z</time>
      </trkpt>
      <trkpt lat="49.35546" lon="1.18982">
        <ele>125.1</ele>
        <time>2012-10-09T13:49:15Z</time>
      </trkpt>
      <trkpt lat="49.3554" lon="1.1898">
        <ele>124.5</ele>
        <time>2012-10-09T13:49:20Z</time>
      </trkpt>
      <trkpt lat="49.35535" lon="1.18979">
        <ele>124.4</ele>
        <time>2012-10-09T13:49:25Z</time>
      </trkpt>
      <trkpt lat="49.35529" lon="1.18979">
        <ele>124.3</ele>
        <time>2012-10-09T13:49:29Z</time>
      </trkpt>
      <trkpt lat="49.35523" lon="1.18981">
        <ele>125.1</ele>
        <time>2012-10-09T13:49:41Z</time>
      </trkpt>
      <trkpt lat="49.35518" lon="1.18982">
        <ele>125.4</ele>
        <time>2012-10-09T13:49:47Z</time>
      </trkpt>
      <trkpt lat="49.35513" lon="1.18976">
        <ele>124.6</ele>
        <time>2012-10-09T13:52:03Z</time>
      </trkpt>
      <trkpt lat="49.35512" lon="1.18975">
        <ele>124.1</ele>
        <time>2012-10-09T13:52:04Z</time>
      </trkpt>
      <trkpt lat="49.35503" lon="1.18971">
        <ele>123.8</ele>
        <time>2012-10-09T13:52:11Z</time>
      </trkpt>
      <trkpt lat="49.35498" lon="1.1897">
        <ele>122.5</ele>
        <time>2012-10-09T13:52:16Z</time>
      </trkpt>
      <trkpt lat="49.35492" lon="1.18967">
        <ele>121.3</ele>
        <time>2012-10-09T13:52:21Z</time>
      </trkpt>
      <trkpt lat="49.35486" lon="1.18965">
        <ele>120.5</ele>
        <time>2012-10-09T13:52:26Z</time>
      </trkpt>
      <trkpt lat="49.3548" lon="1.18966">
        <ele>119.9</ele>
        <time>2012-10-09T13:52:30Z</time>
      </trkpt>
      <trkpt lat="49.35475" lon="1.18963">
        <ele>118.9</ele>
        <time>2012-10-09T13:52:35Z</time>
      </trkpt>
      <trkpt lat="49.35469" lon="1.18967">
        <ele>118.8</ele>
        <time>2012-10-09T13:52:40Z</time>
      </trkpt>
      <trkpt lat="49.35463" lon="1.18968">
        <ele>118.5</ele>
        <time>2012-10-09T13:52:45Z</time>
      </trkpt>
      <trkpt lat="49.35458" lon="1.18969">
        <ele>118.4</ele>
        <time>2012-10-09T13:52:50Z</time>
      </trkpt>
      <trkpt lat="49.35452" lon="1.18973">
        <ele>118</ele>
        <time>2012-10-09T13:52:55Z</time>
      </trkpt>
      <trkpt lat="49.35448" lon="1.18978">
        <ele>117.9</ele>
        <time>2012-10-09T13:52:59Z</time>
      </trkpt>
      <trkpt lat="49.35443" lon="1.18982">
        <ele>117.6</ele>
        <time>2012-10-09T13:53:03Z</time>
      </trkpt>
      <trkpt lat="49.35439" lon="1.18985">
        <ele>117.6</ele>
        <time>2012-10-09T13:53:06Z</time>
      </trkpt>
      <trkpt lat="49.35438" lon="1.18986">
        <ele>117.8</ele>
        <time>2012-10-09T13:53:07Z</time>
      </trkpt>
      <trkpt lat="49.35431" lon="1.18994">
        <ele>118.1</ele>
        <time>2012-10-09T13:53:14Z</time>
      </trkpt>
      <trkpt lat="49.35426" lon="1.18996">
        <ele>118.3</ele>
        <time>2012-10-09T13:53:18Z</time>
      </trkpt>
      <trkpt lat="49.3542" lon="1.18997">
        <ele>118.8</ele>
        <time>2012-10-09T13:53:23Z</time>
      </trkpt>
      <trkpt lat="49.35414" lon="1.18997">
        <ele>117.9</ele>
        <time>2012-10-09T13:53:28Z</time>
      </trkpt>
      <trkpt lat="49.35408" lon="1.18995">
        <ele>117.3</ele>
        <time>2012-10-09T13:53:33Z</time>
      </trkpt>
      <trkpt lat="49.35402" lon="1.18994">
        <ele>117.5</ele>
        <time>2012-10-09T13:53:38Z</time>
      </trkpt>
      <trkpt lat="49.35397" lon="1.1899">
        <ele>117.4</ele>
        <time>2012-10-09T13:53:43Z</time>
      </trkpt>
      <trkpt lat="49.35392" lon="1.18988">
        <ele>117.8</ele>
        <time>2012-10-09T13:53:47Z</time>
      </trkpt>
      <trkpt lat="49.35386" lon="1.18986">
        <ele>118</ele>
        <time>2012-10-09T13:53:52Z</time>
      </trkpt>
      <trkpt lat="49.35381" lon="1.18986">
        <ele>116.5</ele>
        <time>2012-10-09T13:53:56Z</time>
      </trkpt>
      <trkpt lat="49.35376" lon="1.18986">
        <ele>115.9</ele>
        <time>2012-10-09T13:54:00Z</time>
      </trkpt>
      <trkpt lat="49.35371" lon="1.18988">
        <ele>115.5</ele>
        <time>2012-10-09T13:54:03Z</time>
      </trkpt>
      <trkpt lat="49.35366" lon="1.1899">
        <ele>115.9</ele>
        <time>2012-10-09T13:54:06Z</time>
      </trkpt>
      <trkpt lat="49.35361" lon="1.18991">
        <ele>115.9</ele>
        <time>2012-10-09T13:54:10Z</time>
      </trkpt>
      <trkpt lat="49.35359" lon="1.18992">
        <ele>115.9</ele>
        <time>2012-10-09T13:54:11Z</time>
      </trkpt>
      <trkpt lat="49.35351" lon="1.19">
        <ele>115.4</ele>
        <time>2012-10-09T13:54:18Z</time>
      </trkpt>
      <trkpt lat="49.35345" lon="1.19005">
        <ele>115</ele>
        <time>2012-10-09T13:54:23Z</time>
      </trkpt>
      <trkpt lat="49.35341" lon="1.19008">
        <ele>113.8</ele>
        <time>2012-10-09T13:54:28Z</time>
      </trkpt>
      <trkpt lat="49.35336" lon="1.19012">
        <ele>113</ele>
        <time>2012-10-09T13:54:33Z</time>
      </trkpt>
      <trkpt lat="49.3533" lon="1.19015">
        <ele>112.3</ele>
        <time>2012-10-09T13:54:38Z</time>
      </trkpt>
      <trkpt lat="49.35325" lon="1.19018">
        <ele>112.5</ele>
        <time>2012-10-09T13:54:42Z</time>
      </trkpt>
      <trkpt lat="49.35319" lon="1.19021">
        <ele>112.3</ele>
        <time>2012-10-09T13:54:46Z</time>
      </trkpt>
      <trkpt lat="49.35315" lon="1.19024">
        <ele>111.8</ele>
        <time>2012-10-09T13:54:50Z</time>
      </trkpt>
      <trkpt lat="49.3531" lon="1.19027">
        <ele>111.3</ele>
        <time>2012-10-09T13:54:54Z</time>
      </trkpt>
      <trkpt lat="49.35304" lon="1.1903">
        <ele>110.8</ele>
        <time>2012-10-09T13:54:59Z</time>
      </trkpt>
      <trkpt lat="49.353" lon="1.19033">
        <ele>111</ele>
        <time>2012-10-09T13:55:03Z</time>
      </trkpt>
      <trkpt lat="49.35295" lon="1.19038">
        <ele>111</ele>
        <time>2012-10-09T13:55:07Z</time>
      </trkpt>
      <trkpt lat="49.3529" lon="1.19041">
        <ele>111.3</ele>
        <time>2012-10-09T13:55:11Z</time>
      </trkpt>
      <trkpt lat="49.35285" lon="1.19046">
        <ele>112.4</ele>
        <time>2012-10-09T13:55:15Z</time>
      </trkpt>
      <trkpt lat="49.35284" lon="1.19046">
        <ele>112.5</ele>
        <time>2012-10-09T13:55:16Z</time>
      </trkpt>
      <trkpt lat="49.35274" lon="1.19051">
        <ele>112</ele>
        <time>2012-10-09T13:55:23Z</time>
      </trkpt>
      <trkpt lat="49.35269" lon="1.19053">
        <ele>112</ele>
        <time>2012-10-09T13:55:29Z</time>
      </trkpt>
      <trkpt lat="49.35264" lon="1.19058">
        <ele>111</ele>
        <time>2012-10-09T13:55:34Z</time>
      </trkpt>
      <trkpt lat="49.35259" lon="1.19061">
        <ele>109.9</ele>
        <time>2012-10-09T13:55:38Z</time>
      </trkpt>
      <trkpt lat="49.35254" lon="1.19065">
        <ele>109</ele>
        <time>2012-10-09T13:55:42Z</time>
      </trkpt>
      <trkpt lat="49.35249" lon="1.19069">
        <ele>109.1</ele>
        <time>2012-10-09T13:55:45Z</time>
      </trkpt>
      <trkpt lat="49.35244" lon="1.19072">
        <ele>108.5</ele>
        <time>2012-10-09T13:55:49Z</time>
      </trkpt>
      <trkpt lat="49.35239" lon="1.19075">
        <ele>108</ele>
        <time>2012-10-09T13:55:54Z</time>
      </trkpt>
      <trkpt lat="49.35234" lon="1.1908">
        <ele>107</ele>
        <time>2012-10-09T13:55:59Z</time>
      </trkpt>
      <trkpt lat="49.3523" lon="1.19084">
        <ele>105.4</ele>
        <time>2012-10-09T13:56:02Z</time>
      </trkpt>
      <trkpt lat="49.35224" lon="1.19085">
        <ele>105.9</ele>
        <time>2012-10-09T13:56:05Z</time>
      </trkpt>
      <trkpt lat="49.35219" lon="1.19089">
        <ele>105.4</ele>
        <time>2012-10-09T13:56:09Z</time>
      </trkpt>
      <trkpt lat="49.35214" lon="1.19088">
        <ele>104.9</ele>
        <time>2012-10-09T13:56:13Z</time>
      </trkpt>
      <trkpt lat="49.35209" lon="1.19092">
        <ele>103.5</ele>
        <time>2012-10-09T13:56:17Z</time>
      </trkpt>
      <trkpt lat="49.35208" lon="1.19093">
        <ele>103.5</ele>
        <time>2012-10-09T13:56:18Z</time>
      </trkpt>
      <trkpt lat="49.35198" lon="1.191">
        <ele>101.9</ele>
        <time>2012-10-09T13:56:27Z</time>
      </trkpt>
      <trkpt lat="49.35195" lon="1.19104">
        <ele>101.5</ele>
        <time>2012-10-09T13:56:30Z</time>
      </trkpt>
      <trkpt lat="49.35189" lon="1.19107">
        <ele>101.3</ele>
        <time>2012-10-09T13:56:35Z</time>
      </trkpt>
      <trkpt lat="49.35183" lon="1.19109">
        <ele>101.5</ele>
        <time>2012-10-09T13:56:39Z</time>
      </trkpt>
      <trkpt lat="49.35177" lon="1.19111">
        <ele>100.4</ele>
        <time>2012-10-09T13:56:44Z</time>
      </trkpt>
      <trkpt lat="49.35172" lon="1.19112">
        <ele>100</ele>
        <time>2012-10-09T13:56:50Z</time>
      </trkpt>
      <trkpt lat="49.35167" lon="1.19115">
        <ele>100.3</ele>
        <time>2012-10-09T13:56:55Z</time>
      </trkpt>
      <trkpt lat="49.35162" lon="1.19118">
        <ele>100.8</ele>
        <time>2012-10-09T13:56:59Z</time>
      </trkpt>
      <trkpt lat="49.35157" lon="1.19121">
        <ele>101</ele>
        <time>2012-10-09T13:57:03Z</time>
      </trkpt>
      <trkpt lat="49.35151" lon="1.19125">
        <ele>101.5</ele>
        <time>2012-10-09T13:57:08Z</time>
      </trkpt>
      <trkpt lat="49.35147" lon="1.19131">
        <ele>100.8</ele>
        <time>2012-10-09T13:57:12Z</time>
      </trkpt>
      <trkpt lat="49.35143" lon="1.19137">
        <ele>99.9</ele>
        <time>2012-10-09T13:57:16Z</time>
      </trkpt>
      <trkpt lat="49.3514" lon="1.19144">
        <ele>99.5</ele>
        <time>2012-10-09T13:57:21Z</time>
      </trkpt>
      <trkpt lat="49.35139" lon="1.19144">
        <ele>99</ele>
        <time>2012-10-09T13:57:22Z</time>
      </trkpt>
      <trkpt lat="49.35135" lon="1.19159">
        <ele>98.5</ele>
        <time>2012-10-09T13:57:31Z</time>
      </trkpt>
      <trkpt lat="49.35133" lon="1.19167">
        <ele>98</ele>
        <time>2012-10-09T13:57:36Z</time>
      </trkpt>
      <trkpt lat="49.35131" lon="1.19175">
        <ele>98.4</ele>
        <time>2012-10-09T13:57:40Z</time>
      </trkpt>
      <trkpt lat="49.35128" lon="1.19181">
        <ele>98</ele>
        <time>2012-10-09T13:57:43Z</time>
      </trkpt>
      <trkpt lat="49.35126" lon="1.19188">
        <ele>97.6</ele>
        <time>2012-10-09T13:57:47Z</time>
      </trkpt>
      <trkpt lat="49.35123" lon="1.19195">
        <ele>97</ele>
        <time>2012-10-09T13:57:51Z</time>
      </trkpt>
      <trkpt lat="49.35122" lon="1.19205">
        <ele>96.6</ele>
        <time>2012-10-09T13:57:56Z</time>
      </trkpt>
      <trkpt lat="49.3512" lon="1.19212">
        <ele>96.4</ele>
        <time>2012-10-09T13:58:00Z</time>
      </trkpt>
      <trkpt lat="49.35117" lon="1.1922">
        <ele>95.5</ele>
        <time>2012-10-09T13:58:04Z</time>
      </trkpt>
      <trkpt lat="49.35117" lon="1.19229">
        <ele>94</ele>
        <time>2012-10-09T13:58:10Z</time>
      </trkpt>
      <trkpt lat="49.35115" lon="1.19236">
        <ele>92.6</ele>
        <time>2012-10-09T13:58:14Z</time>
      </trkpt>
      <trkpt lat="49.35111" lon="1.19242">
        <ele>92.5</ele>
        <time>2012-10-09T13:58:18Z</time>
      </trkpt>
      <trkpt lat="49.35108" lon="1.19249">
        <ele>91.4</ele>
        <time>2012-10-09T13:58:22Z</time>
      </trkpt>
      <trkpt lat="49.35107" lon="1.19251">
        <ele>91.5</ele>
        <time>2012-10-09T13:58:23Z</time>
      </trkpt>
      <trkpt lat="49.35104" lon="1.19266">
        <ele>90.8</ele>
        <time>2012-10-09T13:58:30Z</time>
      </trkpt>
      <trkpt lat="49.35103" lon="1.19275">
        <ele>89.9</ele>
        <time>2012-10-09T13:58:35Z</time>
      </trkpt>
      <trkpt lat="49.351" lon="1.19283">
        <ele>89.4</ele>
        <time>2012-10-09T13:58:40Z</time>
      </trkpt>
      <trkpt lat="49.35099" lon="1.19291">
        <ele>89.8</ele>
        <time>2012-10-09T13:58:44Z</time>
      </trkpt>
      <trkpt lat="49.35096" lon="1.19298">
        <ele>88</ele>
        <time>2012-10-09T13:58:48Z</time>
      </trkpt>
      <trkpt lat="49.35093" lon="1.19306">
        <ele>88</ele>
        <time>2012-10-09T13:58:52Z</time>
      </trkpt>
      <trkpt lat="49.35089" lon="1.19314">
        <ele>87.8</ele>
        <time>2012-10-09T13:58:57Z</time>
      </trkpt>
      <trkpt lat="49.35086" lon="1.19321">
        <ele>87</ele>
        <time>2012-10-09T13:59:02Z</time>
      </trkpt>
      <trkpt lat="49.35082" lon="1.19326">
        <ele>87</ele>
        <time>2012-10-09T13:59:06Z</time>
      </trkpt>
      <trkpt lat="49.35077" lon="1.1933">
        <ele>86.5</ele>
        <time>2012-10-09T13:59:12Z</time>
      </trkpt>
      <trkpt lat="49.35072" lon="1.19336">
        <ele>85.8</ele>
        <time>2012-10-09T13:59:17Z</time>
      </trkpt>
      <trkpt lat="49.35066" lon="1.1934">
        <ele>85.4</ele>
        <time>2012-10-09T13:59:21Z</time>
      </trkpt>
      <trkpt lat="49.35062" lon="1.19347">
        <ele>85.5</ele>
        <time>2012-10-09T13:59:26Z</time>
      </trkpt>
      <trkpt lat="49.35061" lon="1.19348">
        <ele>85.5</ele>
        <time>2012-10-09T13:59:27Z</time>
      </trkpt>
      <trkpt lat="49.35054" lon="1.19357">
        <ele>85</ele>
        <time>2012-10-09T13:59:34Z</time>
      </trkpt>
      <trkpt lat="49.35049" lon="1.19363">
        <ele>84.3</ele>
        <time>2012-10-09T13:59:38Z</time>
      </trkpt>
      <trkpt lat="49.35045" lon="1.19368">
        <ele>84.8</ele>
        <time>2012-10-09T13:59:43Z</time>
      </trkpt>
      <trkpt lat="49.35041" lon="1.19374">
        <ele>84</ele>
        <time>2012-10-09T13:59:48Z</time>
      </trkpt>
      <trkpt lat="49.35035" lon="1.19378">
        <ele>83</ele>
        <time>2012-10-09T13:59:53Z</time>
      </trkpt>
      <trkpt lat="49.35032" lon="1.19384">
        <ele>83</ele>
        <time>2012-10-09T13:59:58Z</time>
      </trkpt>
      <trkpt lat="49.35028" lon="1.19391">
        <ele>83.8</ele>
        <time>2012-10-09T14:00:03Z</time>
      </trkpt>
      <trkpt lat="49.35024" lon="1.19397">
        <ele>82.8</ele>
        <time>2012-10-09T14:00:07Z</time>
      </trkpt>
      <trkpt lat="49.35019" lon="1.19404">
        <ele>81.8</ele>
        <time>2012-10-09T14:00:12Z</time>
      </trkpt>
      <trkpt lat="49.35014" lon="1.19408">
        <ele>81</ele>
        <time>2012-10-09T14:00:17Z</time>
      </trkpt>
      <trkpt lat="49.3501" lon="1.19414">
        <ele>81.5</ele>
        <time>2012-10-09T14:00:21Z</time>
      </trkpt>
      <trkpt lat="49.35005" lon="1.19419">
        <ele>81</ele>
        <time>2012-10-09T14:00:26Z</time>
      </trkpt>
      <trkpt lat="49.35002" lon="1.19426">
        <ele>82</ele>
        <time>2012-10-09T14:00:31Z</time>
      </trkpt>
      <trkpt lat="49.35001" lon="1.19428">
        <ele>81.9</ele>
        <time>2012-10-09T14:00:32Z</time>
      </trkpt>
      <trkpt lat="49.34997" lon="1.19443">
        <ele>81</ele>
        <time>2012-10-09T14:00:39Z</time>
      </trkpt>
      <trkpt lat="49.34996" lon="1.19451">
        <ele>80.5</ele>
        <time>2012-10-09T14:00:44Z</time>
      </trkpt>
      <trkpt lat="49.34995" lon="1.19461">
        <ele>79.8</ele>
        <time>2012-10-09T14:00:50Z</time>
      </trkpt>
      <trkpt lat="49.34994" lon="1.1947">
        <ele>78.8</ele>
        <time>2012-10-09T14:00:55Z</time>
      </trkpt>
      <trkpt lat="49.34994" lon="1.19479">
        <ele>78.5</ele>
        <time>2012-10-09T14:01:00Z</time>
      </trkpt>
      <trkpt lat="49.34993" lon="1.19488">
        <ele>77.3</ele>
        <time>2012-10-09T14:01:05Z</time>
      </trkpt>
      <trkpt lat="49.34991" lon="1.19497">
        <ele>76.5</ele>
        <time>2012-10-09T14:01:09Z</time>
      </trkpt>
      <trkpt lat="49.3499" lon="1.19505">
        <ele>75.3</ele>
        <time>2012-10-09T14:01:14Z</time>
      </trkpt>
      <trkpt lat="49.34988" lon="1.19513">
        <ele>74.5</ele>
        <time>2012-10-09T14:01:18Z</time>
      </trkpt>
      <trkpt lat="49.34987" lon="1.19522">
        <ele>73.6</ele>
        <time>2012-10-09T14:01:23Z</time>
      </trkpt>
      <trkpt lat="49.34986" lon="1.19531">
        <ele>71.5</ele>
        <time>2012-10-09T14:01:28Z</time>
      </trkpt>
      <trkpt lat="49.34984" lon="1.19538">
        <ele>70.9</ele>
        <time>2012-10-09T14:01:32Z</time>
      </trkpt>
      <trkpt lat="49.34983" lon="1.19547">
        <ele>69.5</ele>
        <time>2012-10-09T14:01:37Z</time>
      </trkpt>
      <trkpt lat="49.34983" lon="1.19548">
        <ele>68.6</ele>
        <time>2012-10-09T14:01:38Z</time>
      </trkpt>
      <trkpt lat="49.34983" lon="1.19564">
        <ele>68.5</ele>
        <time>2012-10-09T14:01:46Z</time>
      </trkpt>
      <trkpt lat="49.34985" lon="1.19574">
        <ele>68.8</ele>
        <time>2012-10-09T14:01:51Z</time>
      </trkpt>
      <trkpt lat="49.34985" lon="1.19582">
        <ele>68.3</ele>
        <time>2012-10-09T14:01:55Z</time>
      </trkpt>
      <trkpt lat="49.34983" lon="1.1959">
        <ele>67.9</ele>
        <time>2012-10-09T14:01:59Z</time>
      </trkpt>
      <trkpt lat="49.34981" lon="1.19599">
        <ele>68.8</ele>
        <time>2012-10-09T14:02:04Z</time>
      </trkpt>
      <trkpt lat="49.34981" lon="1.19607">
        <ele>69.4</ele>
        <time>2012-10-09T14:02:08Z</time>
      </trkpt>
      <trkpt lat="49.34981" lon="1.19616">
        <ele>70.5</ele>
        <time>2012-10-09T14:02:13Z</time>
      </trkpt>
      <trkpt lat="49.34979" lon="1.19623">
        <ele>70.6</ele>
        <time>2012-10-09T14:02:17Z</time>
      </trkpt>
      <trkpt lat="49.34977" lon="1.19631">
        <ele>71</ele>
        <time>2012-10-09T14:02:22Z</time>
      </trkpt>
      <trkpt lat="49.34976" lon="1.1964">
        <ele>70.6</ele>
        <time>2012-10-09T14:02:27Z</time>
      </trkpt>
      <trkpt lat="49.34974" lon="1.19647">
        <ele>70.4</ele>
        <time>2012-10-09T14:02:31Z</time>
      </trkpt>
      <trkpt lat="49.34973" lon="1.19655">
        <ele>70.3</ele>
        <time>2012-10-09T14:02:35Z</time>
      </trkpt>
      <trkpt lat="49.34972" lon="1.19663">
        <ele>70.4</ele>
        <time>2012-10-09T14:02:40Z</time>
      </trkpt>
      <trkpt lat="49.34973" lon="1.19665">
        <ele>70.4</ele>
        <time>2012-10-09T14:02:41Z</time>
      </trkpt>
      <trkpt lat="49.34972" lon="1.1968">
        <ele>70.5</ele>
        <time>2012-10-09T14:02:49Z</time>
      </trkpt>
      <trkpt lat="49.34974" lon="1.19688">
        <ele>70.5</ele>
        <time>2012-10-09T14:02:53Z</time>
      </trkpt>
      <trkpt lat="49.34977" lon="1.19696">
        <ele>70.1</ele>
        <time>2012-10-09T14:02:58Z</time>
      </trkpt>
      <trkpt lat="49.34977" lon="1.19705">
        <ele>70.3</ele>
        <time>2012-10-09T14:03:02Z</time>
      </trkpt>
      <trkpt lat="49.34979" lon="1.19712">
        <ele>71</ele>
        <time>2012-10-09T14:03:07Z</time>
      </trkpt>
      <trkpt lat="49.3498" lon="1.19722">
        <ele>71.1</ele>
        <time>2012-10-09T14:03:11Z</time>
      </trkpt>
      <trkpt lat="49.34979" lon="1.1973">
        <ele>70.1</ele>
        <time>2012-10-09T14:03:16Z</time>
      </trkpt>
      <trkpt lat="49.34981" lon="1.19739">
        <ele>71.8</ele>
        <time>2012-10-09T14:03:21Z</time>
      </trkpt>
      <trkpt lat="49.34981" lon="1.19747">
        <ele>71</ele>
        <time>2012-10-09T14:03:26Z</time>
      </trkpt>
      <trkpt lat="49.34982" lon="1.19756">
        <ele>71</ele>
        <time>2012-10-09T14:03:32Z</time>
      </trkpt>
      <trkpt lat="49.34982" lon="1.19764">
        <ele>71</ele>
        <time>2012-10-09T14:03:36Z</time>
      </trkpt>
      <trkpt lat="49.34981" lon="1.19772">
        <ele>70.4</ele>
        <time>2012-10-09T14:03:40Z</time>
      </trkpt>
      <trkpt lat="49.34977" lon="1.1978">
        <ele>71</ele>
        <time>2012-10-09T14:03:45Z</time>
      </trkpt>
      <trkpt lat="49.34976" lon="1.1978">
        <ele>70.8</ele>
        <time>2012-10-09T14:03:46Z</time>
      </trkpt>
      <trkpt lat="49.34965" lon="1.19776">
        <ele>68.5</ele>
        <time>2012-10-09T14:04:00Z</time>
      </trkpt>
      <trkpt lat="49.3496" lon="1.19773">
        <ele>68</ele>
        <time>2012-10-09T14:04:09Z</time>
      </trkpt>
      <trkpt lat="49.34955" lon="1.19774">
        <ele>67</ele>
        <time>2012-10-09T14:04:13Z</time>
      </trkpt>
      <trkpt lat="49.3495" lon="1.19776">
        <ele>65.5</ele>
        <time>2012-10-09T14:04:16Z</time>
      </trkpt>
      <trkpt lat="49.34944" lon="1.19777">
        <ele>64</ele>
        <time>2012-10-09T14:04:21Z</time>
      </trkpt>
      <trkpt lat="49.34939" lon="1.19779">
        <ele>63.2</ele>
        <time>2012-10-09T14:04:24Z</time>
      </trkpt>
      <trkpt lat="49.34934" lon="1.19781">
        <ele>63.2</ele>
        <time>2012-10-09T14:04:28Z</time>
      </trkpt>
      <trkpt lat="49.34929" lon="1.19779">
        <ele>63.4</ele>
        <time>2012-10-09T14:04:32Z</time>
      </trkpt>
      <trkpt lat="49.34923" lon="1.1978">
        <ele>64.9</ele>
        <time>2012-10-09T14:04:36Z</time>
      </trkpt>
      <trkpt lat="49.34917" lon="1.19782">
        <ele>64.5</ele>
        <time>2012-10-09T14:04:44Z</time>
      </trkpt>
      <trkpt lat="49.34912" lon="1.19782">
        <ele>64.9</ele>
        <time>2012-10-09T14:04:48Z</time>
      </trkpt>
      <trkpt lat="49.3491" lon="1.19783">
        <ele>65</ele>
        <time>2012-10-09T14:04:49Z</time>
      </trkpt>
      <trkpt lat="49.349" lon="1.19779">
        <ele>65.5</ele>
        <time>2012-10-09T14:05:02Z</time>
      </trkpt>
      <trkpt lat="49.34894" lon="1.19775">
        <ele>65.4</ele>
        <time>2012-10-09T14:05:07Z</time>
      </trkpt>
      <trkpt lat="49.34889" lon="1.19774">
        <ele>65.5</ele>
        <time>2012-10-09T14:05:14Z</time>
      </trkpt>
      <trkpt lat="49.34883" lon="1.19774">
        <ele>64.6</ele>
        <time>2012-10-09T14:05:19Z</time>
      </trkpt>
      <trkpt lat="49.34879" lon="1.19778">
        <ele>63.4</ele>
        <time>2012-10-09T14:05:21Z</time>
      </trkpt>
      <trkpt lat="49.34874" lon="1.19779">
        <ele>60.9</ele>
        <time>2012-10-09T14:05:26Z</time>
      </trkpt>
      <trkpt lat="49.34869" lon="1.19782">
        <ele>59.2</ele>
        <time>2012-10-09T14:05:31Z</time>
      </trkpt>
      <trkpt lat="49.34865" lon="1.19787">
        <ele>59</ele>
        <time>2012-10-09T14:05:36Z</time>
      </trkpt>
      <trkpt lat="49.3486" lon="1.19791">
        <ele>60.2</ele>
        <time>2012-10-09T14:05:41Z</time>
      </trkpt>
      <trkpt lat="49.34856" lon="1.19797">
        <ele>59.7</ele>
        <time>2012-10-09T14:05:45Z</time>
      </trkpt>
      <trkpt lat="49.34852" lon="1.19803">
        <ele>59.5</ele>
        <time>2012-10-09T14:05:52Z</time>
      </trkpt>
      <trkpt lat="49.3485" lon="1.19806">
        <ele>60</ele>
        <time>2012-10-09T14:05:53Z</time>
      </trkpt>
      <trkpt lat="49.3484" lon="1.19808">
        <ele>59.4</ele>
        <time>2012-10-09T14:06:01Z</time>
      </trkpt>
      <trkpt lat="49.34835" lon="1.19813">
        <ele>59.7</ele>
        <time>2012-10-09T14:06:04Z</time>
      </trkpt>
      <trkpt lat="49.34831" lon="1.19816">
        <ele>60</ele>
        <time>2012-10-09T14:06:08Z</time>
      </trkpt>
      <trkpt lat="49.34825" lon="1.19817">
        <ele>59.7</ele>
        <time>2012-10-09T14:06:13Z</time>
      </trkpt>
      <trkpt lat="49.3482" lon="1.19819">
        <ele>60.7</ele>
        <time>2012-10-09T14:06:18Z</time>
      </trkpt>
      <trkpt lat="49.34814" lon="1.1982">
        <ele>59.4</ele>
        <time>2012-10-09T14:06:25Z</time>
      </trkpt>
      <trkpt lat="49.34808" lon="1.19821">
        <ele>58.7</ele>
        <time>2012-10-09T14:06:31Z</time>
      </trkpt>
      <trkpt lat="49.34803" lon="1.19817">
        <ele>57.4</ele>
        <time>2012-10-09T14:06:37Z</time>
      </trkpt>
      <trkpt lat="49.34797" lon="1.19818">
        <ele>58.2</ele>
        <time>2012-10-09T14:06:41Z</time>
      </trkpt>
      <trkpt lat="49.34792" lon="1.19819">
        <ele>58</ele>
        <time>2012-10-09T14:06:45Z</time>
      </trkpt>
      <trkpt lat="49.34787" lon="1.19818">
        <ele>56.5</ele>
        <time>2012-10-09T14:06:48Z</time>
      </trkpt>
      <trkpt lat="49.34782" lon="1.19819">
        <ele>56.2</ele>
        <time>2012-10-09T14:06:52Z</time>
      </trkpt>
      <trkpt lat="49.34776" lon="1.19819">
        <ele>54.9</ele>
        <time>2012-10-09T14:06:57Z</time>
      </trkpt>
      <trkpt lat="49.34774" lon="1.1982">
        <ele>54.2</ele>
        <time>2012-10-09T14:06:58Z</time>
      </trkpt>
      <trkpt lat="49.34764" lon="1.19819">
        <ele>52.7</ele>
        <time>2012-10-09T14:07:13Z</time>
      </trkpt>
      <trkpt lat="49.34758" lon="1.19819">
        <ele>53.5</ele>
        <time>2012-10-09T14:07:17Z</time>
      </trkpt>
      <trkpt lat="49.34753" lon="1.19818">
        <ele>54</ele>
        <time>2012-10-09T14:07:21Z</time>
      </trkpt>
      <trkpt lat="49.34747" lon="1.19817">
        <ele>53.2</ele>
        <time>2012-10-09T14:07:25Z</time>
      </trkpt>
      <trkpt lat="49.34741" lon="1.19817">
        <ele>53.5</ele>
        <time>2012-10-09T14:07:30Z</time>
      </trkpt>
      <trkpt lat="49.34735" lon="1.19814">
        <ele>52.9</ele>
        <time>2012-10-09T14:07:37Z</time>
      </trkpt>
      <trkpt lat="49.34729" lon="1.19816">
        <ele>53.5</ele>
        <time>2012-10-09T14:07:41Z</time>
      </trkpt>
      <trkpt lat="49.34724" lon="1.19816">
        <ele>53.4</ele>
        <time>2012-10-09T14:07:47Z</time>
      </trkpt>
      <trkpt lat="49.34719" lon="1.19818">
        <ele>53.9</ele>
        <time>2012-10-09T14:07:52Z</time>
      </trkpt>
      <trkpt lat="49.34715" lon="1.19821">
        <ele>53.7</ele>
        <time>2012-10-09T14:07:55Z</time>
      </trkpt>
      <trkpt lat="49.3471" lon="1.19824">
        <ele>53.5</ele>
        <time>2012-10-09T14:07:59Z</time>
      </trkpt>
      <trkpt lat="49.34709" lon="1.19823">
        <ele>53.2</ele>
        <time>2012-10-09T14:08:00Z</time>
      </trkpt>
      <trkpt lat="49.347" lon="1.19823">
        <ele>54.2</ele>
        <time>2012-10-09T14:08:07Z</time>
      </trkpt>
      <trkpt lat="49.34695" lon="1.19825">
        <ele>54.2</ele>
        <time>2012-10-09T14:08:10Z</time>
      </trkpt>
      <trkpt lat="49.34689" lon="1.19825">
        <ele>55.2</ele>
        <time>2012-10-09T14:08:17Z</time>
      </trkpt>
      <trkpt lat="49.34684" lon="1.19829">
        <ele>55.7</ele>
        <time>2012-10-09T14:08:21Z</time>
      </trkpt>
      <trkpt lat="49.34688" lon="1.19836">
        <ele>57.2</ele>
        <time>2012-10-09T14:08:38Z</time>
      </trkpt>
      <trkpt lat="49.34682" lon="1.19838">
        <ele>57.4</ele>
        <time>2012-10-09T14:16:00Z</time>
      </trkpt>
      <trkpt lat="49.34682" lon="1.19839">
        <ele>57</ele>
        <time>2012-10-09T14:16:01Z</time>
      </trkpt>
      <trkpt lat="49.34683" lon="1.19856">
        <ele>56.4</ele>
        <time>2012-10-09T14:16:11Z</time>
      </trkpt>
      <trkpt lat="49.3468" lon="1.19863">
        <ele>57</ele>
        <time>2012-10-09T14:16:21Z</time>
      </trkpt>
      <trkpt lat="49.34679" lon="1.19872">
        <ele>56.4</ele>
        <time>2012-10-09T14:16:26Z</time>
      </trkpt>
      <trkpt lat="49.3468" lon="1.1988">
        <ele>54.2</ele>
        <time>2012-10-09T14:16:32Z</time>
      </trkpt>
      <trkpt lat="49.34681" lon="1.19888">
        <ele>54.9</ele>
        <time>2012-10-09T14:16:35Z</time>
      </trkpt>
      <trkpt lat="49.34686" lon="1.1989">
        <ele>55.4</ele>
        <time>2012-10-09T14:16:44Z</time>
      </trkpt>
      <trkpt lat="49.34692" lon="1.1989">
        <ele>52.5</ele>
        <time>2012-10-09T14:16:58Z</time>
      </trkpt>
      <trkpt lat="49.34697" lon="1.19889">
        <ele>50.9</ele>
        <time>2012-10-09T14:17:05Z</time>
      </trkpt>
      <trkpt lat="49.34698" lon="1.1989">
        <ele>51</ele>
        <time>2012-10-09T14:17:06Z</time>
      </trkpt>
      <trkpt lat="49.34708" lon="1.19895">
        <ele>50</ele>
        <time>2012-10-09T14:18:00Z</time>
      </trkpt>
      <trkpt lat="49.34713" lon="1.19896">
        <ele>50.2</ele>
        <time>2012-10-09T14:18:03Z</time>
      </trkpt>
      <trkpt lat="49.34719" lon="1.19897">
        <ele>50.5</ele>
        <time>2012-10-09T14:18:12Z</time>
      </trkpt>
      <trkpt lat="49.3472" lon="1.19897">
        <ele>50.2</ele>
        <time>2012-10-09T14:18:13Z</time>
      </trkpt>
      <trkpt lat="49.3473" lon="1.199">
        <ele>50.9</ele>
        <time>2012-10-09T14:18:22Z</time>
      </trkpt>
      <trkpt lat="49.34736" lon="1.19904">
        <ele>49.7</ele>
        <time>2012-10-09T14:18:27Z</time>
      </trkpt>
      <trkpt lat="49.3474" lon="1.19911">
        <ele>49.9</ele>
        <time>2012-10-09T14:18:31Z</time>
      </trkpt>
      <trkpt lat="49.34744" lon="1.19914">
        <ele>48.7</ele>
        <time>2012-10-09T14:18:35Z</time>
      </trkpt>
      <trkpt lat="49.34749" lon="1.19918">
        <ele>50.9</ele>
        <time>2012-10-09T14:18:46Z</time>
      </trkpt>
      <trkpt lat="49.34754" lon="1.1992">
        <ele>49.2</ele>
        <time>2012-10-09T14:18:49Z</time>
      </trkpt>
      <trkpt lat="49.3476" lon="1.19924">
        <ele>48.7</ele>
        <time>2012-10-09T14:18:53Z</time>
      </trkpt>
      <trkpt lat="49.34764" lon="1.1993">
        <ele>48.5</ele>
        <time>2012-10-09T14:19:13Z</time>
      </trkpt>
      <trkpt lat="49.34769" lon="1.19935">
        <ele>48.2</ele>
        <time>2012-10-09T14:19:16Z</time>
      </trkpt>
      <trkpt lat="49.3477" lon="1.19936">
        <ele>48.2</ele>
        <time>2012-10-09T14:19:17Z</time>
      </trkpt>
      <trkpt lat="49.3478" lon="1.19941">
        <ele>50.7</ele>
        <time>2012-10-09T14:19:29Z</time>
      </trkpt>
      <trkpt lat="49.34784" lon="1.19943">
        <ele>49.4</ele>
        <time>2012-10-09T14:19:33Z</time>
      </trkpt>
      <trkpt lat="49.34789" lon="1.19945">
        <ele>49</ele>
        <time>2012-10-09T14:19:35Z</time>
      </trkpt>
      <trkpt lat="49.34794" lon="1.19947">
        <ele>50.5</ele>
        <time>2012-10-09T14:19:38Z</time>
      </trkpt>
      <trkpt lat="49.34798" lon="1.19951">
        <ele>48.7</ele>
        <time>2012-10-09T14:19:44Z</time>
      </trkpt>
      <trkpt lat="49.34802" lon="1.19952">
        <ele>48</ele>
        <time>2012-10-09T14:19:46Z</time>
      </trkpt>
      <trkpt lat="49.34808" lon="1.19955">
        <ele>46.9</ele>
        <time>2012-10-09T14:19:50Z</time>
      </trkpt>
      <trkpt lat="49.34814" lon="1.19957">
        <ele>46.2</ele>
        <time>2012-10-09T14:19:54Z</time>
      </trkpt>
      <trkpt lat="49.3482" lon="1.1996">
        <ele>45.2</ele>
        <time>2012-10-09T14:20:00Z</time>
      </trkpt>
      <trkpt lat="49.34824" lon="1.19963">
        <ele>46.2</ele>
        <time>2012-10-09T14:20:07Z</time>
      </trkpt>
      <trkpt lat="49.34829" lon="1.19965">
        <ele>47.5</ele>
        <time>2012-10-09T14:20:10Z</time>
      </trkpt>
      <trkpt lat="49.34834" lon="1.19969">
        <ele>47.4</ele>
        <time>2012-10-09T14:20:14Z</time>
      </trkpt>
      <trkpt lat="49.34839" lon="1.19972">
        <ele>46.2</ele>
        <time>2012-10-09T14:20:17Z</time>
      </trkpt>
      <trkpt lat="49.34841" lon="1.19972">
        <ele>46.5</ele>
        <time>2012-10-09T14:20:18Z</time>
      </trkpt>
      <trkpt lat="49.3485" lon="1.19976">
        <ele>48.4</ele>
        <time>2012-10-09T14:20:25Z</time>
      </trkpt>
      <trkpt lat="49.34854" lon="1.19976">
        <ele>50.5</ele>
        <time>2012-10-09T14:20:28Z</time>
      </trkpt>
      <trkpt lat="49.34859" lon="1.19977">
        <ele>51</ele>
        <time>2012-10-09T14:20:33Z</time>
      </trkpt>
      <trkpt lat="49.34863" lon="1.19979">
        <ele>50.9</ele>
        <time>2012-10-09T14:20:35Z</time>
      </trkpt>
      <trkpt lat="49.34867" lon="1.19982">
        <ele>50</ele>
        <time>2012-10-09T14:20:37Z</time>
      </trkpt>
      <trkpt lat="49.34872" lon="1.19985">
        <ele>50</ele>
        <time>2012-10-09T14:20:40Z</time>
      </trkpt>
      <trkpt lat="49.34877" lon="1.19987">
        <ele>51.5</ele>
        <time>2012-10-09T14:20:44Z</time>
      </trkpt>
      <trkpt lat="49.34883" lon="1.19989">
        <ele>51.9</ele>
        <time>2012-10-09T14:20:47Z</time>
      </trkpt>
      <trkpt lat="49.34888" lon="1.19993">
        <ele>48.2</ele>
        <time>2012-10-09T14:20:51Z</time>
      </trkpt>
      <trkpt lat="49.34893" lon="1.19997">
        <ele>47</ele>
        <time>2012-10-09T14:20:54Z</time>
      </trkpt>
      <trkpt lat="49.34898" lon="1.20001">
        <ele>46.2</ele>
        <time>2012-10-09T14:20:57Z</time>
      </trkpt>
      <trkpt lat="49.34903" lon="1.20005">
        <ele>47</ele>
        <time>2012-10-09T14:21:01Z</time>
      </trkpt>
      <trkpt lat="49.34908" lon="1.2001">
        <ele>46</ele>
        <time>2012-10-09T14:21:07Z</time>
      </trkpt>
      <trkpt lat="49.34914" lon="1.20015">
        <ele>46.5</ele>
        <time>2012-10-09T14:21:11Z</time>
      </trkpt>
      <trkpt lat="49.34918" lon="1.20019">
        <ele>45.9</ele>
        <time>2012-10-09T14:21:14Z</time>
      </trkpt>
      <trkpt lat="49.34922" lon="1.20025">
        <ele>45.9</ele>
        <time>2012-10-09T14:21:19Z</time>
      </trkpt>
      <trkpt lat="49.34923" lon="1.20027">
        <ele>45.7</ele>
        <time>2012-10-09T14:21:20Z</time>
      </trkpt>
      <trkpt lat="49.34929" lon="1.20039">
        <ele>49.2</ele>
        <time>2012-10-09T14:21:32Z</time>
      </trkpt>
      <trkpt lat="49.34933" lon="1.20046">
        <ele>52.2</ele>
        <time>2012-10-09T14:21:39Z</time>
      </trkpt>
      <trkpt lat="49.34938" lon="1.20052">
        <ele>50.5</ele>
        <time>2012-10-09T14:21:51Z</time>
      </trkpt>
      <trkpt lat="49.34942" lon="1.20051">
        <ele>49.9</ele>
        <time>2012-10-09T14:21:55Z</time>
      </trkpt>
      <trkpt lat="49.34948" lon="1.20055">
        <ele>50.9</ele>
        <time>2012-10-09T14:21:59Z</time>
      </trkpt>
      <trkpt lat="49.34953" lon="1.20057">
        <ele>51.2</ele>
        <time>2012-10-09T14:22:04Z</time>
      </trkpt>
      <trkpt lat="49.34957" lon="1.20064">
        <ele>49.7</ele>
        <time>2012-10-09T14:22:09Z</time>
      </trkpt>
      <trkpt lat="49.34962" lon="1.20068">
        <ele>48.5</ele>
        <time>2012-10-09T14:22:13Z</time>
      </trkpt>
      <trkpt lat="49.34968" lon="1.20071">
        <ele>47.7</ele>
        <time>2012-10-09T14:22:18Z</time>
      </trkpt>
      <trkpt lat="49.34968" lon="1.20081">
        <ele>48</ele>
        <time>2012-10-09T14:22:24Z</time>
      </trkpt>
      <trkpt lat="49.34966" lon="1.20083">
        <ele>47.9</ele>
        <time>2012-10-09T14:22:25Z</time>
      </trkpt>
      <trkpt lat="49.34965" lon="1.20098">
        <ele>52.2</ele>
        <time>2012-10-09T14:22:37Z</time>
      </trkpt>
      <trkpt lat="49.3497" lon="1.20103">
        <ele>53.2</ele>
        <time>2012-10-09T14:22:42Z</time>
      </trkpt>
      <trkpt lat="49.34976" lon="1.20106">
        <ele>53</ele>
        <time>2012-10-09T14:22:46Z</time>
      </trkpt>
      <trkpt lat="49.34981" lon="1.20111">
        <ele>53.9</ele>
        <time>2012-10-09T14:22:52Z</time>
      </trkpt>
      <trkpt lat="49.34986" lon="1.20111">
        <ele>55.2</ele>
        <time>2012-10-09T14:22:57Z</time>
      </trkpt>
      <trkpt lat="49.34992" lon="1.20114">
        <ele>53.2</ele>
        <time>2012-10-09T14:23:02Z</time>
      </trkpt>
      <trkpt lat="49.34997" lon="1.20116">
        <ele>52.5</ele>
        <time>2012-10-09T14:23:05Z</time>
      </trkpt>
      <trkpt lat="49.35003" lon="1.20116">
        <ele>52.7</ele>
        <time>2012-10-09T14:23:10Z</time>
      </trkpt>
      <trkpt lat="49.35009" lon="1.20118">
        <ele>52.9</ele>
        <time>2012-10-09T14:23:13Z</time>
      </trkpt>
      <trkpt lat="49.35013" lon="1.20119">
        <ele>52.2</ele>
        <time>2012-10-09T14:23:18Z</time>
      </trkpt>
      <trkpt lat="49.35019" lon="1.20115">
        <ele>54</ele>
        <time>2012-10-09T14:23:21Z</time>
      </trkpt>
      <trkpt lat="49.35024" lon="1.20114">
        <ele>55</ele>
        <time>2012-10-09T14:23:26Z</time>
      </trkpt>
      <trkpt lat="49.35026" lon="1.20114">
        <ele>55.5</ele>
        <time>2012-10-09T14:23:27Z</time>
      </trkpt>
      <trkpt lat="49.35036" lon="1.20115">
        <ele>57.7</ele>
        <time>2012-10-09T14:23:39Z</time>
      </trkpt>
      <trkpt lat="49.3504" lon="1.20115">
        <ele>58.5</ele>
        <time>2012-10-09T14:23:41Z</time>
      </trkpt>
      <trkpt lat="49.35045" lon="1.20114">
        <ele>59.4</ele>
        <time>2012-10-09T14:23:51Z</time>
      </trkpt>
      <trkpt lat="49.35051" lon="1.2011">
        <ele>61.9</ele>
        <time>2012-10-09T14:23:56Z</time>
      </trkpt>
      <trkpt lat="49.35055" lon="1.20109">
        <ele>63</ele>
        <time>2012-10-09T14:23:59Z</time>
      </trkpt>
      <trkpt lat="49.35061" lon="1.20107">
        <ele>63.4</ele>
        <time>2012-10-09T14:24:02Z</time>
      </trkpt>
      <trkpt lat="49.35066" lon="1.20102">
        <ele>64.4</ele>
        <time>2012-10-09T14:24:09Z</time>
      </trkpt>
      <trkpt lat="49.35071" lon="1.20097">
        <ele>63.2</ele>
        <time>2012-10-09T14:24:18Z</time>
      </trkpt>
      <trkpt lat="49.35074" lon="1.20094">
        <ele>63.9</ele>
        <time>2012-10-09T14:24:20Z</time>
      </trkpt>
      <trkpt lat="49.35078" lon="1.20086">
        <ele>64.5</ele>
        <time>2012-10-09T14:24:23Z</time>
      </trkpt>
      <trkpt lat="49.35083" lon="1.20081">
        <ele>65.1</ele>
        <time>2012-10-09T14:24:30Z</time>
      </trkpt>
      <trkpt lat="49.35084" lon="1.2008">
        <ele>66</ele>
        <time>2012-10-09T14:24:31Z</time>
      </trkpt>
      <trkpt lat="49.35089" lon="1.20068">
        <ele>66.8</ele>
        <time>2012-10-09T14:24:37Z</time>
      </trkpt>
      <trkpt lat="49.35093" lon="1.20061">
        <ele>64.9</ele>
        <time>2012-10-09T14:24:44Z</time>
      </trkpt>
      <trkpt lat="49.35096" lon="1.20054">
        <ele>65.9</ele>
        <time>2012-10-09T14:24:50Z</time>
      </trkpt>
      <trkpt lat="49.351" lon="1.20047">
        <ele>66.5</ele>
        <time>2012-10-09T14:24:54Z</time>
      </trkpt>
      <trkpt lat="49.35104" lon="1.20041">
        <ele>66.6</ele>
        <time>2012-10-09T14:24:58Z</time>
      </trkpt>
      <trkpt lat="49.35108" lon="1.20036">
        <ele>66.6</ele>
        <time>2012-10-09T14:25:03Z</time>
      </trkpt>
      <trkpt lat="49.3511" lon="1.20026">
        <ele>68</ele>
        <time>2012-10-09T14:25:08Z</time>
      </trkpt>
      <trkpt lat="49.35114" lon="1.2002">
        <ele>67.9</ele>
        <time>2012-10-09T14:25:12Z</time>
      </trkpt>
      <trkpt lat="49.35116" lon="1.20012">
        <ele>68.4</ele>
        <time>2012-10-09T14:25:16Z</time>
      </trkpt>
      <trkpt lat="49.35114" lon="1.20003">
        <ele>68</ele>
        <time>2012-10-09T14:25:22Z</time>
      </trkpt>
      <trkpt lat="49.35108" lon="1.19999">
        <ele>66</ele>
        <time>2012-10-09T14:25:28Z</time>
      </trkpt>
      <trkpt lat="49.35107" lon="1.1999">
        <ele>65.5</ele>
        <time>2012-10-09T14:25:32Z</time>
      </trkpt>
      <trkpt lat="49.35107" lon="1.19988">
        <ele>65</ele>
        <time>2012-10-09T14:25:33Z</time>
      </trkpt>
      <trkpt lat="49.35114" lon="1.19977">
        <ele>62.4</ele>
        <time>2012-10-09T14:25:41Z</time>
      </trkpt>
      <trkpt lat="49.35118" lon="1.19971">
        <ele>60.7</ele>
        <time>2012-10-09T14:25:50Z</time>
      </trkpt>
      <trkpt lat="49.35122" lon="1.19963">
        <ele>59.7</ele>
        <time>2012-10-09T14:25:59Z</time>
      </trkpt>
      <trkpt lat="49.35127" lon="1.19959">
        <ele>58.9</ele>
        <time>2012-10-09T14:26:12Z</time>
      </trkpt>
      <trkpt lat="49.35132" lon="1.19955">
        <ele>59.4</ele>
        <time>2012-10-09T14:26:18Z</time>
      </trkpt>
      <trkpt lat="49.35138" lon="1.19956">
        <ele>59.2</ele>
        <time>2012-10-09T14:26:29Z</time>
      </trkpt>
      <trkpt lat="49.35144" lon="1.19954">
        <ele>59.2</ele>
        <time>2012-10-09T14:26:35Z</time>
      </trkpt>
      <trkpt lat="49.35145" lon="1.19954">
        <ele>59.9</ele>
        <time>2012-10-09T14:26:36Z</time>
      </trkpt>
      <trkpt lat="49.35154" lon="1.19946">
        <ele>61</ele>
        <time>2012-10-09T14:26:51Z</time>
      </trkpt>
      <trkpt lat="49.35159" lon="1.1994">
        <ele>60.4</ele>
        <time>2012-10-09T14:26:56Z</time>
      </trkpt>
      <trkpt lat="49.35165" lon="1.19938">
        <ele>60.2</ele>
        <time>2012-10-09T14:27:04Z</time>
      </trkpt>
      <trkpt lat="49.3517" lon="1.19937">
        <ele>61.5</ele>
        <time>2012-10-09T14:27:15Z</time>
      </trkpt>
      <trkpt lat="49.35175" lon="1.19934">
        <ele>62</ele>
        <time>2012-10-09T14:27:21Z</time>
      </trkpt>
      <trkpt lat="49.35181" lon="1.19931">
        <ele>61.2</ele>
        <time>2012-10-09T14:27:29Z</time>
      </trkpt>
      <trkpt lat="49.35185" lon="1.19926">
        <ele>59.2</ele>
        <time>2012-10-09T14:27:40Z</time>
      </trkpt>
      <trkpt lat="49.35187" lon="1.19925">
        <ele>58.5</ele>
        <time>2012-10-09T14:27:41Z</time>
      </trkpt>
      <trkpt lat="49.35194" lon="1.19919">
        <ele>60.7</ele>
        <time>2012-10-09T14:27:48Z</time>
      </trkpt>
      <trkpt lat="49.352" lon="1.19916">
        <ele>60.9</ele>
        <time>2012-10-09T14:27:55Z</time>
      </trkpt>
      <trkpt lat="49.35206" lon="1.19915">
        <ele>60</ele>
        <time>2012-10-09T14:28:02Z</time>
      </trkpt>
      <trkpt lat="49.3521" lon="1.19915">
        <ele>59.5</ele>
        <time>2012-10-09T14:28:05Z</time>
      </trkpt>
      <trkpt lat="49.35215" lon="1.19911">
        <ele>61</ele>
        <time>2012-10-09T14:28:10Z</time>
      </trkpt>
      <trkpt lat="49.3522" lon="1.19909">
        <ele>61.7</ele>
        <time>2012-10-09T14:28:13Z</time>
      </trkpt>
      <trkpt lat="49.35226" lon="1.19908">
        <ele>63</ele>
        <time>2012-10-09T14:28:17Z</time>
      </trkpt>
      <trkpt lat="49.35231" lon="1.19906">
        <ele>63.9</ele>
        <time>2012-10-09T14:28:21Z</time>
      </trkpt>
      <trkpt lat="49.35237" lon="1.19905">
        <ele>64.3</ele>
        <time>2012-10-09T14:28:24Z</time>
      </trkpt>
      <trkpt lat="49.35241" lon="1.19905">
        <ele>64.1</ele>
        <time>2012-10-09T14:28:27Z</time>
      </trkpt>
      <trkpt lat="49.35245" lon="1.19901">
        <ele>62.7</ele>
        <time>2012-10-09T14:28:32Z</time>
      </trkpt>
      <trkpt lat="49.3525" lon="1.19904">
        <ele>63.4</ele>
        <time>2012-10-09T14:28:34Z</time>
      </trkpt>
      <trkpt lat="49.35254" lon="1.19907">
        <ele>62.7</ele>
        <time>2012-10-09T14:28:40Z</time>
      </trkpt>
      <trkpt lat="49.35259" lon="1.19906">
        <ele>63</ele>
        <time>2012-10-09T14:28:45Z</time>
      </trkpt>
      <trkpt lat="49.35261" lon="1.19906">
        <ele>63.5</ele>
        <time>2012-10-09T14:28:46Z</time>
      </trkpt>
      <trkpt lat="49.35269" lon="1.19902">
        <ele>65.5</ele>
        <time>2012-10-09T14:28:56Z</time>
      </trkpt>
      <trkpt lat="49.35275" lon="1.19901">
        <ele>64.8</ele>
        <time>2012-10-09T14:29:02Z</time>
      </trkpt>
      <trkpt lat="49.35281" lon="1.19902">
        <ele>64.3</ele>
        <time>2012-10-09T14:29:07Z</time>
      </trkpt>
      <trkpt lat="49.35286" lon="1.19895">
        <ele>66</ele>
        <time>2012-10-09T14:29:11Z</time>
      </trkpt>
      <trkpt lat="49.35291" lon="1.19893">
        <ele>69.6</ele>
        <time>2012-10-09T14:29:37Z</time>
      </trkpt>
      <trkpt lat="49.35296" lon="1.19891">
        <ele>69.3</ele>
        <time>2012-10-09T14:29:46Z</time>
      </trkpt>
      <trkpt lat="49.35298" lon="1.19891">
        <ele>68.1</ele>
        <time>2012-10-09T14:29:47Z</time>
      </trkpt>
      <trkpt lat="49.35308" lon="1.19893">
        <ele>63.5</ele>
        <time>2012-10-09T14:29:58Z</time>
      </trkpt>
      <trkpt lat="49.35313" lon="1.19894">
        <ele>62.7</ele>
        <time>2012-10-09T14:30:02Z</time>
      </trkpt>
      <trkpt lat="49.35319" lon="1.19896">
        <ele>60.9</ele>
        <time>2012-10-09T14:30:12Z</time>
      </trkpt>
      <trkpt lat="49.35324" lon="1.19901">
        <ele>62</ele>
        <time>2012-10-09T14:30:16Z</time>
      </trkpt>
      <trkpt lat="49.35329" lon="1.19902">
        <ele>63</ele>
        <time>2012-10-09T14:30:21Z</time>
      </trkpt>
      <trkpt lat="49.35335" lon="1.19904">
        <ele>63</ele>
        <time>2012-10-09T14:30:27Z</time>
      </trkpt>
      <trkpt lat="49.3534" lon="1.19905">
        <ele>62.7</ele>
        <time>2012-10-09T14:30:31Z</time>
      </trkpt>
      <trkpt lat="49.35346" lon="1.19909">
        <ele>62.5</ele>
        <time>2012-10-09T14:30:36Z</time>
      </trkpt>
      <trkpt lat="49.35351" lon="1.19913">
        <ele>63.5</ele>
        <time>2012-10-09T14:30:46Z</time>
      </trkpt>
      <trkpt lat="49.35356" lon="1.19917">
        <ele>63.5</ele>
        <time>2012-10-09T14:30:49Z</time>
      </trkpt>
      <trkpt lat="49.35357" lon="1.19917">
        <ele>64.5</ele>
        <time>2012-10-09T14:30:50Z</time>
      </trkpt>
      <trkpt lat="49.35365" lon="1.19924">
        <ele>65.3</ele>
        <time>2012-10-09T14:30:56Z</time>
      </trkpt>
      <trkpt lat="49.35371" lon="1.19928">
        <ele>62.5</ele>
        <time>2012-10-09T14:30:59Z</time>
      </trkpt>
      <trkpt lat="49.35376" lon="1.19932">
        <ele>61.9</ele>
        <time>2012-10-09T14:31:03Z</time>
      </trkpt>
      <trkpt lat="49.35381" lon="1.19933">
        <ele>63.2</ele>
        <time>2012-10-09T14:31:11Z</time>
      </trkpt>
      <trkpt lat="49.35387" lon="1.19936">
        <ele>62.5</ele>
        <time>2012-10-09T14:31:15Z</time>
      </trkpt>
      <trkpt lat="49.35391" lon="1.1994">
        <ele>61.7</ele>
        <time>2012-10-09T14:31:18Z</time>
      </trkpt>
      <trkpt lat="49.35396" lon="1.19943">
        <ele>61.2</ele>
        <time>2012-10-09T14:31:20Z</time>
      </trkpt>
      <trkpt lat="49.354" lon="1.19947">
        <ele>61.2</ele>
        <time>2012-10-09T14:31:23Z</time>
      </trkpt>
      <trkpt lat="49.35404" lon="1.19953">
        <ele>61.5</ele>
        <time>2012-10-09T14:31:28Z</time>
      </trkpt>
      <trkpt lat="49.35408" lon="1.19957">
        <ele>61.5</ele>
        <time>2012-10-09T14:31:31Z</time>
      </trkpt>
      <trkpt lat="49.35412" lon="1.19959">
        <ele>61.7</ele>
        <time>2012-10-09T14:31:33Z</time>
      </trkpt>
      <trkpt lat="49.35416" lon="1.19962">
        <ele>60</ele>
        <time>2012-10-09T14:31:35Z</time>
      </trkpt>
      <trkpt lat="49.35421" lon="1.19967">
        <ele>58</ele>
        <time>2012-10-09T14:31:38Z</time>
      </trkpt>
      <trkpt lat="49.35426" lon="1.19972">
        <ele>57.2</ele>
        <time>2012-10-09T14:31:45Z</time>
      </trkpt>
      <trkpt lat="49.35431" lon="1.19978">
        <ele>57.5</ele>
        <time>2012-10-09T14:31:49Z</time>
      </trkpt>
      <trkpt lat="49.35434" lon="1.19984">
        <ele>57.9</ele>
        <time>2012-10-09T14:31:53Z</time>
      </trkpt>
      <trkpt lat="49.35436" lon="1.19985">
        <ele>57.5</ele>
        <time>2012-10-09T14:31:54Z</time>
      </trkpt>
      <trkpt lat="49.35444" lon="1.19991">
        <ele>55</ele>
        <time>2012-10-09T14:31:59Z</time>
      </trkpt>
      <trkpt lat="49.35449" lon="1.19995">
        <ele>55</ele>
        <time>2012-10-09T14:32:03Z</time>
      </trkpt>
      <trkpt lat="49.35454" lon="1.19999">
        <ele>55.7</ele>
        <time>2012-10-09T14:32:11Z</time>
      </trkpt>
      <trkpt lat="49.35459" lon="1.2">
        <ele>58.5</ele>
        <time>2012-10-09T14:32:16Z</time>
      </trkpt>
      <trkpt lat="49.35464" lon="1.20002">
        <ele>59.9</ele>
        <time>2012-10-09T14:32:25Z</time>
      </trkpt>
      <trkpt lat="49.3547" lon="1.20005">
        <ele>59.7</ele>
        <time>2012-10-09T14:32:31Z</time>
      </trkpt>
      <trkpt lat="49.35475" lon="1.20003">
        <ele>61.5</ele>
        <time>2012-10-09T14:32:39Z</time>
      </trkpt>
      <trkpt lat="49.35481" lon="1.20004">
        <ele>63</ele>
        <time>2012-10-09T14:32:45Z</time>
      </trkpt>
      <trkpt lat="49.35486" lon="1.20007">
        <ele>65.5</ele>
        <time>2012-10-09T14:32:53Z</time>
      </trkpt>
      <trkpt lat="49.35492" lon="1.2001">
        <ele>65.1</ele>
        <time>2012-10-09T14:32:56Z</time>
      </trkpt>
      <trkpt lat="49.35493" lon="1.20011">
        <ele>65.5</ele>
        <time>2012-10-09T14:32:57Z</time>
      </trkpt>
      <trkpt lat="49.355" lon="1.20021">
        <ele>64.5</ele>
        <time>2012-10-09T14:33:05Z</time>
      </trkpt>
      <trkpt lat="49.35503" lon="1.20025">
        <ele>62.9</ele>
        <time>2012-10-09T14:33:07Z</time>
      </trkpt>
      <trkpt lat="49.35508" lon="1.20031">
        <ele>61</ele>
        <time>2012-10-09T14:33:10Z</time>
      </trkpt>
      <trkpt lat="49.35512" lon="1.20036">
        <ele>60.7</ele>
        <time>2012-10-09T14:33:14Z</time>
      </trkpt>
      <trkpt lat="49.35518" lon="1.2004">
        <ele>60.9</ele>
        <time>2012-10-09T14:33:19Z</time>
      </trkpt>
      <trkpt lat="49.35522" lon="1.20045">
        <ele>61</ele>
        <time>2012-10-09T14:33:26Z</time>
      </trkpt>
      <trkpt lat="49.35527" lon="1.20051">
        <ele>60.7</ele>
        <time>2012-10-09T14:33:35Z</time>
      </trkpt>
      <trkpt lat="49.35531" lon="1.20054">
        <ele>61.2</ele>
        <time>2012-10-09T14:33:38Z</time>
      </trkpt>
      <trkpt lat="49.35536" lon="1.20058">
        <ele>60.7</ele>
        <time>2012-10-09T14:33:41Z</time>
      </trkpt>
      <trkpt lat="49.3554" lon="1.20062">
        <ele>61.2</ele>
        <time>2012-10-09T14:33:45Z</time>
      </trkpt>
      <trkpt lat="49.35545" lon="1.20066">
        <ele>61.9</ele>
        <time>2012-10-09T14:33:49Z</time>
      </trkpt>
      <trkpt lat="49.3555" lon="1.2007">
        <ele>62.7</ele>
        <time>2012-10-09T14:33:54Z</time>
      </trkpt>
      <trkpt lat="49.35551" lon="1.2008">
        <ele>64.3</ele>
        <time>2012-10-09T14:34:01Z</time>
      </trkpt>
      <trkpt lat="49.35551" lon="1.20081">
        <ele>65</ele>
        <time>2012-10-09T14:34:02Z</time>
      </trkpt>
      <trkpt lat="49.35559" lon="1.20092">
        <ele>65</ele>
        <time>2012-10-09T14:34:11Z</time>
      </trkpt>
      <trkpt lat="49.35564" lon="1.20097">
        <ele>65.5</ele>
        <time>2012-10-09T14:34:17Z</time>
      </trkpt>
      <trkpt lat="49.35568" lon="1.20105">
        <ele>64.5</ele>
        <time>2012-10-09T14:34:22Z</time>
      </trkpt>
      <trkpt lat="49.35572" lon="1.20111">
        <ele>64.5</ele>
        <time>2012-10-09T14:34:26Z</time>
      </trkpt>
      <trkpt lat="49.35577" lon="1.20115">
        <ele>63.7</ele>
        <time>2012-10-09T14:34:29Z</time>
      </trkpt>
      <trkpt lat="49.35581" lon="1.20122">
        <ele>62</ele>
        <time>2012-10-09T14:34:35Z</time>
      </trkpt>
      <trkpt lat="49.35582" lon="1.2013">
        <ele>63.2</ele>
        <time>2012-10-09T14:34:47Z</time>
      </trkpt>
      <trkpt lat="49.35586" lon="1.20136">
        <ele>64.6</ele>
        <time>2012-10-09T14:34:54Z</time>
      </trkpt>
      <trkpt lat="49.3559" lon="1.20139">
        <ele>64.9</ele>
        <time>2012-10-09T14:34:57Z</time>
      </trkpt>
      <trkpt lat="49.35595" lon="1.20146">
        <ele>64</ele>
        <time>2012-10-09T14:35:03Z</time>
      </trkpt>
      <trkpt lat="49.35595" lon="1.20146">
        <ele>64.4</ele>
        <time>2012-10-09T14:35:04Z</time>
      </trkpt>
      <trkpt lat="49.35604" lon="1.20156">
        <ele>67</ele>
        <time>2012-10-09T14:35:13Z</time>
      </trkpt>
      <trkpt lat="49.35608" lon="1.20161">
        <ele>67.6</ele>
        <time>2012-10-09T14:35:23Z</time>
      </trkpt>
      <trkpt lat="49.35614" lon="1.20164">
        <ele>67.4</ele>
        <time>2012-10-09T14:35:26Z</time>
      </trkpt>
      <trkpt lat="49.35619" lon="1.20167">
        <ele>68.3</ele>
        <time>2012-10-09T14:35:29Z</time>
      </trkpt>
      <trkpt lat="49.35624" lon="1.20171">
        <ele>69</ele>
        <time>2012-10-09T14:35:33Z</time>
      </trkpt>
      <trkpt lat="49.35626" lon="1.20178">
        <ele>68.4</ele>
        <time>2012-10-09T14:35:46Z</time>
      </trkpt>
      <trkpt lat="49.3563" lon="1.20181">
        <ele>69.3</ele>
        <time>2012-10-09T14:35:51Z</time>
      </trkpt>
      <trkpt lat="49.35636" lon="1.20183">
        <ele>69</ele>
        <time>2012-10-09T14:35:54Z</time>
      </trkpt>
      <trkpt lat="49.35641" lon="1.20184">
        <ele>68.3</ele>
        <time>2012-10-09T14:35:56Z</time>
      </trkpt>
      <trkpt lat="49.35647" lon="1.20186">
        <ele>69.9</ele>
        <time>2012-10-09T14:36:10Z</time>
      </trkpt>
      <trkpt lat="49.35648" lon="1.20186">
        <ele>70.4</ele>
        <time>2012-10-09T14:36:11Z</time>
      </trkpt>
      <trkpt lat="49.35657" lon="1.2019">
        <ele>70.1</ele>
        <time>2012-10-09T14:36:17Z</time>
      </trkpt>
      <trkpt lat="49.35662" lon="1.20194">
        <ele>70.5</ele>
        <time>2012-10-09T14:36:22Z</time>
      </trkpt>
      <trkpt lat="49.35668" lon="1.20199">
        <ele>69.9</ele>
        <time>2012-10-09T14:36:31Z</time>
      </trkpt>
      <trkpt lat="49.35671" lon="1.20201">
        <ele>70.1</ele>
        <time>2012-10-09T14:36:38Z</time>
      </trkpt>
      <trkpt lat="49.35676" lon="1.20204">
        <ele>70.5</ele>
        <time>2012-10-09T14:36:41Z</time>
      </trkpt>
      <trkpt lat="49.35679" lon="1.20207">
        <ele>69.6</ele>
        <time>2012-10-09T14:36:43Z</time>
      </trkpt>
      <trkpt lat="49.35683" lon="1.20212">
        <ele>69.5</ele>
        <time>2012-10-09T14:36:45Z</time>
      </trkpt>
      <trkpt lat="49.35688" lon="1.20217">
        <ele>72.1</ele>
        <time>2012-10-09T14:36:56Z</time>
      </trkpt>
      <trkpt lat="49.35693" lon="1.20219">
        <ele>77.6</ele>
        <time>2012-10-09T14:37:00Z</time>
      </trkpt>
      <trkpt lat="49.35697" lon="1.20221">
        <ele>77</ele>
        <time>2012-10-09T14:37:02Z</time>
      </trkpt>
      <trkpt lat="49.35703" lon="1.20224">
        <ele>77</ele>
        <time>2012-10-09T14:37:05Z</time>
      </trkpt>
      <trkpt lat="49.35708" lon="1.20225">
        <ele>77.6</ele>
        <time>2012-10-09T14:37:10Z</time>
      </trkpt>
      <trkpt lat="49.35714" lon="1.20227">
        <ele>77.3</ele>
        <time>2012-10-09T14:37:13Z</time>
      </trkpt>
      <trkpt lat="49.35716" lon="1.20227">
        <ele>77.1</ele>
        <time>2012-10-09T14:37:14Z</time>
      </trkpt>
      <trkpt lat="49.35725" lon="1.20229">
        <ele>77.5</ele>
        <time>2012-10-09T14:37:21Z</time>
      </trkpt>
      <trkpt lat="49.35731" lon="1.20228">
        <ele>79.1</ele>
        <time>2012-10-09T14:37:30Z</time>
      </trkpt>
      <trkpt lat="49.35736" lon="1.20229">
        <ele>77.5</ele>
        <time>2012-10-09T14:37:35Z</time>
      </trkpt>
      <trkpt lat="49.35742" lon="1.20233">
        <ele>78.4</ele>
        <time>2012-10-09T14:37:42Z</time>
      </trkpt>
      <trkpt lat="49.35748" lon="1.20234">
        <ele>77.9</ele>
        <time>2012-10-09T14:37:45Z</time>
      </trkpt>
      <trkpt lat="49.35753" lon="1.20236">
        <ele>77</ele>
        <time>2012-10-09T14:37:47Z</time>
      </trkpt>
      <trkpt lat="49.35758" lon="1.20235">
        <ele>76.8</ele>
        <time>2012-10-09T14:37:51Z</time>
      </trkpt>
      <trkpt lat="49.35764" lon="1.20233">
        <ele>76.9</ele>
        <time>2012-10-09T14:37:55Z</time>
      </trkpt>
      <trkpt lat="49.35769" lon="1.20231">
        <ele>78.1</ele>
        <time>2012-10-09T14:37:58Z</time>
      </trkpt>
      <trkpt lat="49.35774" lon="1.2023">
        <ele>78</ele>
        <time>2012-10-09T14:38:01Z</time>
      </trkpt>
      <trkpt lat="49.3578" lon="1.20229">
        <ele>76.8</ele>
        <time>2012-10-09T14:38:05Z</time>
      </trkpt>
      <trkpt lat="49.35785" lon="1.20231">
        <ele>75</ele>
        <time>2012-10-09T14:38:08Z</time>
      </trkpt>
      <trkpt lat="49.35791" lon="1.20233">
        <ele>74.5</ele>
        <time>2012-10-09T14:38:12Z</time>
      </trkpt>
      <trkpt lat="49.35796" lon="1.20232">
        <ele>75.5</ele>
        <time>2012-10-09T14:38:22Z</time>
      </trkpt>
      <trkpt lat="49.35797" lon="1.20231">
        <ele>75.5</ele>
        <time>2012-10-09T14:38:23Z</time>
      </trkpt>
      <trkpt lat="49.35806" lon="1.20224">
        <ele>76</ele>
        <time>2012-10-09T14:38:29Z</time>
      </trkpt>
      <trkpt lat="49.3581" lon="1.2022">
        <ele>77</ele>
        <time>2012-10-09T14:38:32Z</time>
      </trkpt>
      <trkpt lat="49.35816" lon="1.20221">
        <ele>78</ele>
        <time>2012-10-09T14:38:40Z</time>
      </trkpt>
      <trkpt lat="49.35822" lon="1.20224">
        <ele>80.5</ele>
        <time>2012-10-09T14:38:46Z</time>
      </trkpt>
      <trkpt lat="49.35827" lon="1.20222">
        <ele>81.5</ele>
        <time>2012-10-09T14:38:55Z</time>
      </trkpt>
      <trkpt lat="49.35833" lon="1.2022">
        <ele>80.3</ele>
        <time>2012-10-09T14:38:59Z</time>
      </trkpt>
      <trkpt lat="49.35839" lon="1.20218">
        <ele>81.1</ele>
        <time>2012-10-09T14:39:04Z</time>
      </trkpt>
      <trkpt lat="49.35843" lon="1.20215">
        <ele>80</ele>
        <time>2012-10-09T14:39:16Z</time>
      </trkpt>
      <trkpt lat="49.35849" lon="1.20213">
        <ele>80.8</ele>
        <time>2012-10-09T14:39:20Z</time>
      </trkpt>
      <trkpt lat="49.35854" lon="1.20214">
        <ele>80.4</ele>
        <time>2012-10-09T14:39:23Z</time>
      </trkpt>
      <trkpt lat="49.35855" lon="1.20214">
        <ele>80</ele>
        <time>2012-10-09T14:39:24Z</time>
      </trkpt>
      <trkpt lat="49.35865" lon="1.20211">
        <ele>79.5</ele>
        <time>2012-10-09T14:39:34Z</time>
      </trkpt>
      <trkpt lat="49.3587" lon="1.20213">
        <ele>78</ele>
        <time>2012-10-09T14:39:37Z</time>
      </trkpt>
      <trkpt lat="49.35876" lon="1.20215">
        <ele>77.9</ele>
        <time>2012-10-09T14:39:42Z</time>
      </trkpt>
      <trkpt lat="49.35881" lon="1.20212">
        <ele>77.6</ele>
        <time>2012-10-09T14:39:48Z</time>
      </trkpt>
      <trkpt lat="49.35886" lon="1.20211">
        <ele>77</ele>
        <time>2012-10-09T14:39:54Z</time>
      </trkpt>
      <trkpt lat="49.35891" lon="1.20212">
        <ele>76.5</ele>
        <time>2012-10-09T14:40:00Z</time>
      </trkpt>
      <trkpt lat="49.35896" lon="1.20214">
        <ele>76.9</ele>
        <time>2012-10-09T14:40:04Z</time>
      </trkpt>
      <trkpt lat="49.35902" lon="1.20215">
        <ele>75.4</ele>
        <time>2012-10-09T14:40:12Z</time>
      </trkpt>
      <trkpt lat="49.35907" lon="1.20217">
        <ele>75.6</ele>
        <time>2012-10-09T14:40:21Z</time>
      </trkpt>
      <trkpt lat="49.35913" lon="1.2022">
        <ele>74.8</ele>
        <time>2012-10-09T14:40:25Z</time>
      </trkpt>
      <trkpt lat="49.35915" lon="1.2022">
        <ele>74.8</ele>
        <time>2012-10-09T14:40:26Z</time>
      </trkpt>
      <trkpt lat="49.35922" lon="1.20223">
        <ele>73.1</ele>
        <time>2012-10-09T14:40:30Z</time>
      </trkpt>
      <trkpt lat="49.35927" lon="1.20225">
        <ele>72.6</ele>
        <time>2012-10-09T14:40:33Z</time>
      </trkpt>
      <trkpt lat="49.35933" lon="1.20227">
        <ele>72.5</ele>
        <time>2012-10-09T14:40:36Z</time>
      </trkpt>
      <trkpt lat="49.35937" lon="1.20228">
        <ele>72</ele>
        <time>2012-10-09T14:40:38Z</time>
      </trkpt>
      <trkpt lat="49.35943" lon="1.20227">
        <ele>73.3</ele>
        <time>2012-10-09T14:40:46Z</time>
      </trkpt>
      <trkpt lat="49.35948" lon="1.2023">
        <ele>72.8</ele>
        <time>2012-10-09T14:40:50Z</time>
      </trkpt>
      <trkpt lat="49.35953" lon="1.20229">
        <ele>72</ele>
        <time>2012-10-09T14:40:54Z</time>
      </trkpt>
      <trkpt lat="49.35958" lon="1.20229">
        <ele>72.5</ele>
        <time>2012-10-09T14:41:00Z</time>
      </trkpt>
      <trkpt lat="49.35962" lon="1.20229">
        <ele>73</ele>
        <time>2012-10-09T14:41:03Z</time>
      </trkpt>
      <trkpt lat="49.35968" lon="1.20232">
        <ele>71.5</ele>
        <time>2012-10-09T14:41:06Z</time>
      </trkpt>
      <trkpt lat="49.35973" lon="1.20235">
        <ele>71</ele>
        <time>2012-10-09T14:41:11Z</time>
      </trkpt>
      <trkpt lat="49.35979" lon="1.20235">
        <ele>71.1</ele>
        <time>2012-10-09T14:41:15Z</time>
      </trkpt>
      <trkpt lat="49.35984" lon="1.20237">
        <ele>69.5</ele>
        <time>2012-10-09T14:41:19Z</time>
      </trkpt>
      <trkpt lat="49.3599" lon="1.2024">
        <ele>69</ele>
        <time>2012-10-09T14:41:23Z</time>
      </trkpt>
      <trkpt lat="49.35995" lon="1.2024">
        <ele>69.6</ele>
        <time>2012-10-09T14:41:34Z</time>
      </trkpt>
      <trkpt lat="49.35997" lon="1.2024">
        <ele>69.4</ele>
        <time>2012-10-09T14:41:35Z</time>
      </trkpt>
      <trkpt lat="49.36006" lon="1.20245">
        <ele>70</ele>
        <time>2012-10-09T14:41:40Z</time>
      </trkpt>
      <trkpt lat="49.36012" lon="1.20249">
        <ele>70.5</ele>
        <time>2012-10-09T14:41:44Z</time>
      </trkpt>
      <trkpt lat="49.36017" lon="1.2025">
        <ele>71</ele>
        <time>2012-10-09T14:41:47Z</time>
      </trkpt>
      <trkpt lat="49.36022" lon="1.20253">
        <ele>71</ele>
        <time>2012-10-09T14:41:53Z</time>
      </trkpt>
      <trkpt lat="49.36027" lon="1.20258">
        <ele>69.9</ele>
        <time>2012-10-09T14:42:02Z</time>
      </trkpt>
      <trkpt lat="49.36032" lon="1.20262">
        <ele>68.1</ele>
        <time>2012-10-09T14:42:07Z</time>
      </trkpt>
      <trkpt lat="49.36037" lon="1.20266">
        <ele>66.5</ele>
        <time>2012-10-09T14:42:13Z</time>
      </trkpt>
      <trkpt lat="49.36042" lon="1.20268">
        <ele>68</ele>
        <time>2012-10-09T14:42:17Z</time>
      </trkpt>
      <trkpt lat="49.36046" lon="1.20271">
        <ele>67.9</ele>
        <time>2012-10-09T14:42:19Z</time>
      </trkpt>
      <trkpt lat="49.36052" lon="1.20275">
        <ele>68.4</ele>
        <time>2012-10-09T14:42:23Z</time>
      </trkpt>
      <trkpt lat="49.36057" lon="1.2028">
        <ele>68.5</ele>
        <time>2012-10-09T14:42:29Z</time>
      </trkpt>
      <trkpt lat="49.36062" lon="1.20281">
        <ele>69.4</ele>
        <time>2012-10-09T14:42:32Z</time>
      </trkpt>
      <trkpt lat="49.36066" lon="1.20284">
        <ele>69.5</ele>
        <time>2012-10-09T14:42:35Z</time>
      </trkpt>
      <trkpt lat="49.36071" lon="1.20287">
        <ele>69.1</ele>
        <time>2012-10-09T14:42:38Z</time>
      </trkpt>
      <trkpt lat="49.36073" lon="1.20288">
        <ele>69.4</ele>
        <time>2012-10-09T14:42:39Z</time>
      </trkpt>
      <trkpt lat="49.36081" lon="1.20296">
        <ele>69.5</ele>
        <time>2012-10-09T14:42:47Z</time>
      </trkpt>
      <trkpt lat="49.36085" lon="1.20299">
        <ele>72</ele>
        <time>2012-10-09T14:42:54Z</time>
      </trkpt>
      <trkpt lat="49.3609" lon="1.20305">
        <ele>72.1</ele>
        <time>2012-10-09T14:43:01Z</time>
      </trkpt>
      <trkpt lat="49.36094" lon="1.2031">
        <ele>72.4</ele>
        <time>2012-10-09T14:43:05Z</time>
      </trkpt>
      <trkpt lat="49.36099" lon="1.20315">
        <ele>72.4</ele>
        <time>2012-10-09T14:43:09Z</time>
      </trkpt>
      <trkpt lat="49.36104" lon="1.20317">
        <ele>71.9</ele>
        <time>2012-10-09T14:43:13Z</time>
      </trkpt>
      <trkpt lat="49.36109" lon="1.2032">
        <ele>72.1</ele>
        <time>2012-10-09T14:43:18Z</time>
      </trkpt>
      <trkpt lat="49.36114" lon="1.20324">
        <ele>72.6</ele>
        <time>2012-10-09T14:43:22Z</time>
      </trkpt>
      <trkpt lat="49.36118" lon="1.20329">
        <ele>73.5</ele>
        <time>2012-10-09T14:43:28Z</time>
      </trkpt>
      <trkpt lat="49.36123" lon="1.20333">
        <ele>74.1</ele>
        <time>2012-10-09T14:43:33Z</time>
      </trkpt>
      <trkpt lat="49.36128" lon="1.20337">
        <ele>72.6</ele>
        <time>2012-10-09T14:43:37Z</time>
      </trkpt>
      <trkpt lat="49.36133" lon="1.20342">
        <ele>72.9</ele>
        <time>2012-10-09T14:43:46Z</time>
      </trkpt>
      <trkpt lat="49.36134" lon="1.20343">
        <ele>72.6</ele>
        <time>2012-10-09T14:43:47Z</time>
      </trkpt>
      <trkpt lat="49.36139" lon="1.20346">
        <ele>74.5</ele>
        <time>2012-10-09T14:44:59Z</time>
      </trkpt>
      <trkpt lat="49.36148" lon="1.20355">
        <ele>73.6</ele>
        <time>2012-10-09T14:45:15Z</time>
      </trkpt>
      <trkpt lat="49.36153" lon="1.2036">
        <ele>73.9</ele>
        <time>2012-10-09T14:45:21Z</time>
      </trkpt>
      <trkpt lat="49.36157" lon="1.20366">
        <ele>73</ele>
        <time>2012-10-09T14:45:28Z</time>
      </trkpt>
      <trkpt lat="49.36163" lon="1.20369">
        <ele>73.6</ele>
        <time>2012-10-09T14:45:33Z</time>
      </trkpt>
      <trkpt lat="49.36168" lon="1.20371">
        <ele>73.4</ele>
        <time>2012-10-09T14:45:36Z</time>
      </trkpt>
      <trkpt lat="49.36173" lon="1.20372">
        <ele>72.5</ele>
        <time>2012-10-09T14:45:38Z</time>
      </trkpt>
      <trkpt lat="49.36179" lon="1.20373">
        <ele>72.4</ele>
        <time>2012-10-09T14:45:41Z</time>
      </trkpt>
      <trkpt lat="49.36183" lon="1.20376">
        <ele>71.9</ele>
        <time>2012-10-09T14:45:45Z</time>
      </trkpt>
      <trkpt lat="49.36189" lon="1.20378">
        <ele>70.8</ele>
        <time>2012-10-09T14:45:48Z</time>
      </trkpt>
      <trkpt lat="49.36195" lon="1.20381">
        <ele>71.4</ele>
        <time>2012-10-09T14:45:51Z</time>
      </trkpt>
      <trkpt lat="49.362" lon="1.20384">
        <ele>72.3</ele>
        <time>2012-10-09T14:45:54Z</time>
      </trkpt>
      <trkpt lat="49.36205" lon="1.20387">
        <ele>73.1</ele>
        <time>2012-10-09T14:45:58Z</time>
      </trkpt>
      <trkpt lat="49.36211" lon="1.2039">
        <ele>75.1</ele>
        <time>2012-10-09T14:46:02Z</time>
      </trkpt>
      <trkpt lat="49.36212" lon="1.20391">
        <ele>76</ele>
        <time>2012-10-09T14:46:03Z</time>
      </trkpt>
      <trkpt lat="49.36221" lon="1.20397">
        <ele>76.1</ele>
        <time>2012-10-09T14:46:10Z</time>
      </trkpt>
      <trkpt lat="49.36227" lon="1.204">
        <ele>79</ele>
        <time>2012-10-09T14:46:20Z</time>
      </trkpt>
      <trkpt lat="49.36231" lon="1.20406">
        <ele>80</ele>
        <time>2012-10-09T14:46:28Z</time>
      </trkpt>
      <trkpt lat="49.36236" lon="1.20411">
        <ele>79.9</ele>
        <time>2012-10-09T14:46:32Z</time>
      </trkpt>
      <trkpt lat="49.36241" lon="1.20406">
        <ele>79.1</ele>
        <time>2012-10-09T14:46:37Z</time>
      </trkpt>
      <trkpt lat="49.36245" lon="1.20402">
        <ele>79</ele>
        <time>2012-10-09T14:46:41Z</time>
      </trkpt>
      <trkpt lat="49.36247" lon="1.20393">
        <ele>79.3</ele>
        <time>2012-10-09T14:46:45Z</time>
      </trkpt>
      <trkpt lat="49.3625" lon="1.20385">
        <ele>78</ele>
        <time>2012-10-09T14:46:52Z</time>
      </trkpt>
      <trkpt lat="49.36248" lon="1.20376">
        <ele>78.1</ele>
        <time>2012-10-09T14:46:57Z</time>
      </trkpt>
      <trkpt lat="49.36245" lon="1.20372">
        <ele>78.9</ele>
        <time>2012-10-09T14:47:05Z</time>
      </trkpt>
      <trkpt lat="49.36244" lon="1.2037">
        <ele>78.8</ele>
        <time>2012-10-09T14:47:06Z</time>
      </trkpt>
      <trkpt lat="49.36243" lon="1.20355">
        <ele>77.9</ele>
        <time>2012-10-09T14:47:15Z</time>
      </trkpt>
      <trkpt lat="49.36244" lon="1.20347">
        <ele>77.4</ele>
        <time>2012-10-09T14:47:18Z</time>
      </trkpt>
      <trkpt lat="49.36246" lon="1.20339">
        <ele>78.9</ele>
        <time>2012-10-09T14:47:21Z</time>
      </trkpt>
      <trkpt lat="49.36248" lon="1.2033">
        <ele>80</ele>
        <time>2012-10-09T14:47:25Z</time>
      </trkpt>
      <trkpt lat="49.36251" lon="1.20323">
        <ele>83</ele>
        <time>2012-10-09T14:47:30Z</time>
      </trkpt>
      <trkpt lat="49.36254" lon="1.20316">
        <ele>82</ele>
        <time>2012-10-09T14:47:34Z</time>
      </trkpt>
      <trkpt lat="49.36256" lon="1.20309">
        <ele>82.3</ele>
        <time>2012-10-09T14:47:37Z</time>
      </trkpt>
      <trkpt lat="49.36259" lon="1.20302">
        <ele>82</ele>
        <time>2012-10-09T14:47:40Z</time>
      </trkpt>
      <trkpt lat="49.36261" lon="1.20295">
        <ele>82</ele>
        <time>2012-10-09T14:47:44Z</time>
      </trkpt>
      <trkpt lat="49.36263" lon="1.20286">
        <ele>83.1</ele>
        <time>2012-10-09T14:47:50Z</time>
      </trkpt>
      <trkpt lat="49.36266" lon="1.20278">
        <ele>82</ele>
        <time>2012-10-09T14:47:54Z</time>
      </trkpt>
      <trkpt lat="49.36268" lon="1.20271">
        <ele>81</ele>
        <time>2012-10-09T14:47:58Z</time>
      </trkpt>
      <trkpt lat="49.36271" lon="1.20264">
        <ele>83.8</ele>
        <time>2012-10-09T14:48:03Z</time>
      </trkpt>
      <trkpt lat="49.36272" lon="1.20255">
        <ele>87.1</ele>
        <time>2012-10-09T14:48:14Z</time>
      </trkpt>
      <trkpt lat="49.36272" lon="1.20253">
        <ele>88</ele>
        <time>2012-10-09T14:48:15Z</time>
      </trkpt>
      <trkpt lat="49.36279" lon="1.20239">
        <ele>88.3</ele>
        <time>2012-10-09T14:48:27Z</time>
      </trkpt>
      <trkpt lat="49.36282" lon="1.20233">
        <ele>88.5</ele>
        <time>2012-10-09T14:48:31Z</time>
      </trkpt>
      <trkpt lat="49.36286" lon="1.20227">
        <ele>88.6</ele>
        <time>2012-10-09T14:48:35Z</time>
      </trkpt>
      <trkpt lat="49.36289" lon="1.2022">
        <ele>88</ele>
        <time>2012-10-09T14:48:39Z</time>
      </trkpt>
      <trkpt lat="49.36292" lon="1.20214">
        <ele>87.5</ele>
        <time>2012-10-09T14:48:44Z</time>
      </trkpt>
      <trkpt lat="49.36295" lon="1.20207">
        <ele>87.5</ele>
        <time>2012-10-09T14:48:47Z</time>
      </trkpt>
      <trkpt lat="49.36298" lon="1.20201">
        <ele>87.5</ele>
        <time>2012-10-09T14:48:53Z</time>
      </trkpt>
      <trkpt lat="49.36302" lon="1.20194">
        <ele>88</ele>
        <time>2012-10-09T14:48:58Z</time>
      </trkpt>
      <trkpt lat="49.36307" lon="1.20189">
        <ele>87</ele>
        <time>2012-10-09T14:49:03Z</time>
      </trkpt>
      <trkpt lat="49.36311" lon="1.20182">
        <ele>85.5</ele>
        <time>2012-10-09T14:49:09Z</time>
      </trkpt>
      <trkpt lat="49.36315" lon="1.20176">
        <ele>84.3</ele>
        <time>2012-10-09T14:49:14Z</time>
      </trkpt>
      <trkpt lat="49.36318" lon="1.20168">
        <ele>83</ele>
        <time>2012-10-09T14:49:18Z</time>
      </trkpt>
      <trkpt lat="49.36319" lon="1.20167">
        <ele>83.4</ele>
        <time>2012-10-09T14:49:19Z</time>
      </trkpt>
      <trkpt lat="49.36326" lon="1.20154">
        <ele>82.9</ele>
        <time>2012-10-09T14:49:28Z</time>
      </trkpt>
      <trkpt lat="49.36329" lon="1.20146">
        <ele>83.3</ele>
        <time>2012-10-09T14:49:33Z</time>
      </trkpt>
      <trkpt lat="49.36332" lon="1.20139">
        <ele>84.5</ele>
        <time>2012-10-09T14:49:40Z</time>
      </trkpt>
      <trkpt lat="49.36334" lon="1.20131">
        <ele>84.6</ele>
        <time>2012-10-09T14:49:44Z</time>
      </trkpt>
      <trkpt lat="49.36337" lon="1.20124">
        <ele>84</ele>
        <time>2012-10-09T14:49:48Z</time>
      </trkpt>
      <trkpt lat="49.36341" lon="1.20118">
        <ele>84.6</ele>
        <time>2012-10-09T14:49:53Z</time>
      </trkpt>
      <trkpt lat="49.36342" lon="1.20109">
        <ele>84.4</ele>
        <time>2012-10-09T14:49:57Z</time>
      </trkpt>
      <trkpt lat="49.36346" lon="1.20103">
        <ele>84</ele>
        <time>2012-10-09T14:50:00Z</time>
      </trkpt>
      <trkpt lat="49.36349" lon="1.20097">
        <ele>84.4</ele>
        <time>2012-10-09T14:50:04Z</time>
      </trkpt>
      <trkpt lat="49.36353" lon="1.20089">
        <ele>85.5</ele>
        <time>2012-10-09T14:50:14Z</time>
      </trkpt>
      <trkpt lat="49.36358" lon="1.20088">
        <ele>84.8</ele>
        <time>2012-10-09T14:50:20Z</time>
      </trkpt>
      <trkpt lat="49.36359" lon="1.20087">
        <ele>84.6</ele>
        <time>2012-10-09T14:50:21Z</time>
      </trkpt>
      <trkpt lat="49.36365" lon="1.20075">
        <ele>82.4</ele>
        <time>2012-10-09T14:50:26Z</time>
      </trkpt>
      <trkpt lat="49.36368" lon="1.20067">
        <ele>80.8</ele>
        <time>2012-10-09T14:50:31Z</time>
      </trkpt>
      <trkpt lat="49.36369" lon="1.2006">
        <ele>80.9</ele>
        <time>2012-10-09T14:50:34Z</time>
      </trkpt>
      <trkpt lat="49.36369" lon="1.20051">
        <ele>82</ele>
        <time>2012-10-09T14:50:40Z</time>
      </trkpt>
      <trkpt lat="49.3637" lon="1.20043">
        <ele>83</ele>
        <time>2012-10-09T14:50:45Z</time>
      </trkpt>
      <trkpt lat="49.36371" lon="1.20035">
        <ele>82.5</ele>
        <time>2012-10-09T14:50:48Z</time>
      </trkpt>
      <trkpt lat="49.36373" lon="1.20028">
        <ele>82</ele>
        <time>2012-10-09T14:50:51Z</time>
      </trkpt>
      <trkpt lat="49.36375" lon="1.20019">
        <ele>80.5</ele>
        <time>2012-10-09T14:50:56Z</time>
      </trkpt>
      <trkpt lat="49.36378" lon="1.20013">
        <ele>80.3</ele>
        <time>2012-10-09T14:50:59Z</time>
      </trkpt>
      <trkpt lat="49.36379" lon="1.20005">
        <ele>77.6</ele>
        <time>2012-10-09T14:51:03Z</time>
      </trkpt>
      <trkpt lat="49.36381" lon="1.19996">
        <ele>78</ele>
        <time>2012-10-09T14:51:11Z</time>
      </trkpt>
      <trkpt lat="49.36384" lon="1.19989">
        <ele>76.4</ele>
        <time>2012-10-09T14:51:14Z</time>
      </trkpt>
      <trkpt lat="49.36385" lon="1.1998">
        <ele>74.1</ele>
        <time>2012-10-09T14:51:17Z</time>
      </trkpt>
      <trkpt lat="49.36389" lon="1.19974">
        <ele>77</ele>
        <time>2012-10-09T14:51:23Z</time>
      </trkpt>
      <trkpt lat="49.3639" lon="1.19973">
        <ele>77.9</ele>
        <time>2012-10-09T14:51:24Z</time>
      </trkpt>
      <trkpt lat="49.36393" lon="1.1996">
        <ele>77.1</ele>
        <time>2012-10-09T14:51:30Z</time>
      </trkpt>
      <trkpt lat="49.36396" lon="1.19951">
        <ele>78</ele>
        <time>2012-10-09T14:51:34Z</time>
      </trkpt>
      <trkpt lat="49.36398" lon="1.19943">
        <ele>78.5</ele>
        <time>2012-10-09T14:51:40Z</time>
      </trkpt>
      <trkpt lat="49.36402" lon="1.19937">
        <ele>77.3</ele>
        <time>2012-10-09T14:51:45Z</time>
      </trkpt>
      <trkpt lat="49.36406" lon="1.19932">
        <ele>77.9</ele>
        <time>2012-10-09T14:51:48Z</time>
      </trkpt>
      <trkpt lat="49.3641" lon="1.19925">
        <ele>78.4</ele>
        <time>2012-10-09T14:51:52Z</time>
      </trkpt>
      <trkpt lat="49.36413" lon="1.19918">
        <ele>78.5</ele>
        <time>2012-10-09T14:51:58Z</time>
      </trkpt>
      <trkpt lat="49.36417" lon="1.19913">
        <ele>80.3</ele>
        <time>2012-10-09T14:52:02Z</time>
      </trkpt>
      <trkpt lat="49.36419" lon="1.19906">
        <ele>80.5</ele>
        <time>2012-10-09T14:52:06Z</time>
      </trkpt>
      <trkpt lat="49.36424" lon="1.199">
        <ele>81.9</ele>
        <time>2012-10-09T14:52:11Z</time>
      </trkpt>
      <trkpt lat="49.36429" lon="1.19895">
        <ele>79.9</ele>
        <time>2012-10-09T14:52:16Z</time>
      </trkpt>
      <trkpt lat="49.36434" lon="1.19893">
        <ele>79</ele>
        <time>2012-10-09T14:52:19Z</time>
      </trkpt>
      <trkpt lat="49.36438" lon="1.19888">
        <ele>78</ele>
        <time>2012-10-09T14:52:24Z</time>
      </trkpt>
      <trkpt lat="49.36439" lon="1.19886">
        <ele>78.1</ele>
        <time>2012-10-09T14:52:25Z</time>
      </trkpt>
      <trkpt lat="49.36447" lon="1.19882">
        <ele>77</ele>
        <time>2012-10-09T14:52:31Z</time>
      </trkpt>
      <trkpt lat="49.36452" lon="1.19879">
        <ele>76.6</ele>
        <time>2012-10-09T14:52:34Z</time>
      </trkpt>
      <trkpt lat="49.36457" lon="1.19877">
        <ele>75.3</ele>
        <time>2012-10-09T14:52:40Z</time>
      </trkpt>
      <trkpt lat="49.36462" lon="1.19872">
        <ele>75.5</ele>
        <time>2012-10-09T14:52:47Z</time>
      </trkpt>
      <trkpt lat="49.36468" lon="1.19872">
        <ele>76.5</ele>
        <time>2012-10-09T14:52:52Z</time>
      </trkpt>
      <trkpt lat="49.36473" lon="1.19873">
        <ele>75.5</ele>
        <time>2012-10-09T14:52:59Z</time>
      </trkpt>
      <trkpt lat="49.36479" lon="1.1987">
        <ele>76.1</ele>
        <time>2012-10-09T14:53:12Z</time>
      </trkpt>
      <trkpt lat="49.36484" lon="1.19872">
        <ele>74.5</ele>
        <time>2012-10-09T14:53:23Z</time>
      </trkpt>
      <trkpt lat="49.3649" lon="1.19874">
        <ele>72.9</ele>
        <time>2012-10-09T14:53:28Z</time>
      </trkpt>
      <trkpt lat="49.36492" lon="1.19874">
        <ele>72.6</ele>
        <time>2012-10-09T14:53:29Z</time>
      </trkpt>
      <trkpt lat="49.36501" lon="1.19876">
        <ele>74.3</ele>
        <time>2012-10-09T14:53:35Z</time>
      </trkpt>
      <trkpt lat="49.36507" lon="1.19875">
        <ele>74.4</ele>
        <time>2012-10-09T14:53:40Z</time>
      </trkpt>
      <trkpt lat="49.36512" lon="1.19875">
        <ele>75.8</ele>
        <time>2012-10-09T14:53:45Z</time>
      </trkpt>
      <trkpt lat="49.36517" lon="1.19874">
        <ele>76.4</ele>
        <time>2012-10-09T14:53:48Z</time>
      </trkpt>
      <trkpt lat="49.36523" lon="1.19875">
        <ele>77.4</ele>
        <time>2012-10-09T14:53:51Z</time>
      </trkpt>
      <trkpt lat="49.36529" lon="1.19875">
        <ele>76.8</ele>
        <time>2012-10-09T14:53:55Z</time>
      </trkpt>
      <trkpt lat="49.36534" lon="1.19875">
        <ele>76.1</ele>
        <time>2012-10-09T14:54:00Z</time>
      </trkpt>
      <trkpt lat="49.36539" lon="1.19871">
        <ele>76.1</ele>
        <time>2012-10-09T14:54:08Z</time>
      </trkpt>
      <trkpt lat="49.36545" lon="1.19868">
        <ele>76.5</ele>
        <time>2012-10-09T14:54:12Z</time>
      </trkpt>
      <trkpt lat="49.3655" lon="1.19865">
        <ele>75.3</ele>
        <time>2012-10-09T14:54:16Z</time>
      </trkpt>
      <trkpt lat="49.36556" lon="1.19863">
        <ele>76</ele>
        <time>2012-10-09T14:54:21Z</time>
      </trkpt>
      <trkpt lat="49.36562" lon="1.19862">
        <ele>76.9</ele>
        <time>2012-10-09T14:54:24Z</time>
      </trkpt>
      <trkpt lat="49.36567" lon="1.19858">
        <ele>76</ele>
        <time>2012-10-09T14:54:29Z</time>
      </trkpt>
      <trkpt lat="49.36569" lon="1.19858">
        <ele>76</ele>
        <time>2012-10-09T14:54:30Z</time>
      </trkpt>
      <trkpt lat="49.36578" lon="1.19855">
        <ele>76.8</ele>
        <time>2012-10-09T14:54:37Z</time>
      </trkpt>
      <trkpt lat="49.36584" lon="1.19851">
        <ele>77.5</ele>
        <time>2012-10-09T14:54:45Z</time>
      </trkpt>
      <trkpt lat="49.36588" lon="1.19847">
        <ele>77.8</ele>
        <time>2012-10-09T14:54:49Z</time>
      </trkpt>
      <trkpt lat="49.36594" lon="1.19843">
        <ele>77.6</ele>
        <time>2012-10-09T14:54:53Z</time>
      </trkpt>
      <trkpt lat="49.36599" lon="1.19845">
        <ele>77.9</ele>
        <time>2012-10-09T14:54:56Z</time>
      </trkpt>
      <trkpt lat="49.36605" lon="1.19843">
        <ele>78.4</ele>
        <time>2012-10-09T14:55:01Z</time>
      </trkpt>
      <trkpt lat="49.36611" lon="1.19841">
        <ele>78.8</ele>
        <time>2012-10-09T14:55:05Z</time>
      </trkpt>
      <trkpt lat="49.36616" lon="1.19839">
        <ele>78.8</ele>
        <time>2012-10-09T14:55:09Z</time>
      </trkpt>
      <trkpt lat="49.36622" lon="1.19835">
        <ele>78.9</ele>
        <time>2012-10-09T14:55:15Z</time>
      </trkpt>
      <trkpt lat="49.36627" lon="1.19833">
        <ele>79</ele>
        <time>2012-10-09T14:55:20Z</time>
      </trkpt>
      <trkpt lat="49.36633" lon="1.19828">
        <ele>79.9</ele>
        <time>2012-10-09T14:55:27Z</time>
      </trkpt>
      <trkpt lat="49.36637" lon="1.19823">
        <ele>79.5</ele>
        <time>2012-10-09T14:55:34Z</time>
      </trkpt>
      <trkpt lat="49.36639" lon="1.19822">
        <ele>79.3</ele>
        <time>2012-10-09T14:55:35Z</time>
      </trkpt>
      <trkpt lat="49.36646" lon="1.1981">
        <ele>80.5</ele>
        <time>2012-10-09T14:55:45Z</time>
      </trkpt>
      <trkpt lat="49.3665" lon="1.19805">
        <ele>81</ele>
        <time>2012-10-09T14:55:50Z</time>
      </trkpt>
      <trkpt lat="49.36653" lon="1.198">
        <ele>79.5</ele>
        <time>2012-10-09T14:55:53Z</time>
      </trkpt>
      <trkpt lat="49.36656" lon="1.19795">
        <ele>79.4</ele>
        <time>2012-10-09T14:55:55Z</time>
      </trkpt>
      <trkpt lat="49.36659" lon="1.1979">
        <ele>79.4</ele>
        <time>2012-10-09T14:55:57Z</time>
      </trkpt>
      <trkpt lat="49.36662" lon="1.19783">
        <ele>79</ele>
        <time>2012-10-09T14:56:00Z</time>
      </trkpt>
      <trkpt lat="49.36666" lon="1.19776">
        <ele>79</ele>
        <time>2012-10-09T14:56:05Z</time>
      </trkpt>
      <trkpt lat="49.36671" lon="1.19769">
        <ele>79</ele>
        <time>2012-10-09T14:56:10Z</time>
      </trkpt>
      <trkpt lat="49.36674" lon="1.19763">
        <ele>77.4</ele>
        <time>2012-10-09T14:56:13Z</time>
      </trkpt>
      <trkpt lat="49.36678" lon="1.19758">
        <ele>77.4</ele>
        <time>2012-10-09T14:56:17Z</time>
      </trkpt>
      <trkpt lat="49.36684" lon="1.19754">
        <ele>77</ele>
        <time>2012-10-09T14:56:24Z</time>
      </trkpt>
      <trkpt lat="49.36689" lon="1.19751">
        <ele>78</ele>
        <time>2012-10-09T14:56:28Z</time>
      </trkpt>
      <trkpt lat="49.36694" lon="1.19749">
        <ele>77.5</ele>
        <time>2012-10-09T14:56:47Z</time>
      </trkpt>
      <trkpt lat="49.36695" lon="1.19747">
        <ele>77</ele>
        <time>2012-10-09T14:56:48Z</time>
      </trkpt>
      <trkpt lat="49.36706" lon="1.19744">
        <ele>78</ele>
        <time>2012-10-09T14:57:06Z</time>
      </trkpt>
      <trkpt lat="49.36712" lon="1.19743">
        <ele>80.1</ele>
        <time>2012-10-09T14:57:14Z</time>
      </trkpt>
      <trkpt lat="49.36716" lon="1.19736">
        <ele>80.1</ele>
        <time>2012-10-09T14:57:29Z</time>
      </trkpt>
      <trkpt lat="49.3672" lon="1.19736">
        <ele>80.1</ele>
        <time>2012-10-09T14:57:34Z</time>
      </trkpt>
      <trkpt lat="49.36726" lon="1.19739">
        <ele>79.9</ele>
        <time>2012-10-09T14:57:42Z</time>
      </trkpt>
      <trkpt lat="49.36732" lon="1.1974">
        <ele>80.9</ele>
        <time>2012-10-09T14:57:46Z</time>
      </trkpt>
      <trkpt lat="49.36737" lon="1.19742">
        <ele>81.4</ele>
        <time>2012-10-09T14:57:53Z</time>
      </trkpt>
      <trkpt lat="49.36738" lon="1.19742">
        <ele>81.9</ele>
        <time>2012-10-09T14:57:54Z</time>
      </trkpt>
      <trkpt lat="49.36747" lon="1.19747">
        <ele>85.6</ele>
        <time>2012-10-09T14:58:02Z</time>
      </trkpt>
      <trkpt lat="49.36752" lon="1.1975">
        <ele>85.8</ele>
        <time>2012-10-09T14:58:10Z</time>
      </trkpt>
      <trkpt lat="49.36758" lon="1.19749">
        <ele>87.5</ele>
        <time>2012-10-09T14:58:16Z</time>
      </trkpt>
      <trkpt lat="49.36764" lon="1.19753">
        <ele>89.5</ele>
        <time>2012-10-09T14:58:22Z</time>
      </trkpt>
      <trkpt lat="49.3677" lon="1.19753">
        <ele>90</ele>
        <time>2012-10-09T14:58:26Z</time>
      </trkpt>
      <trkpt lat="49.36775" lon="1.19752">
        <ele>89.8</ele>
        <time>2012-10-09T14:58:30Z</time>
      </trkpt>
      <trkpt lat="49.36781" lon="1.19753">
        <ele>91.4</ele>
        <time>2012-10-09T14:58:35Z</time>
      </trkpt>
      <trkpt lat="49.36786" lon="1.1975">
        <ele>92.3</ele>
        <time>2012-10-09T14:58:41Z</time>
      </trkpt>
      <trkpt lat="49.36791" lon="1.19747">
        <ele>92</ele>
        <time>2012-10-09T14:58:45Z</time>
      </trkpt>
      <trkpt lat="49.36796" lon="1.19743">
        <ele>90.6</ele>
        <time>2012-10-09T14:58:48Z</time>
      </trkpt>
      <trkpt lat="49.368" lon="1.1974">
        <ele>90</ele>
        <time>2012-10-09T14:58:52Z</time>
      </trkpt>
      <trkpt lat="49.36804" lon="1.19735">
        <ele>91</ele>
        <time>2012-10-09T14:58:55Z</time>
      </trkpt>
      <trkpt lat="49.36806" lon="1.19734">
        <ele>91.3</ele>
        <time>2012-10-09T14:58:56Z</time>
      </trkpt>
      <trkpt lat="49.36813" lon="1.19725">
        <ele>92.5</ele>
        <time>2012-10-09T14:59:03Z</time>
      </trkpt>
      <trkpt lat="49.36818" lon="1.1972">
        <ele>94.1</ele>
        <time>2012-10-09T14:59:08Z</time>
      </trkpt>
      <trkpt lat="49.36823" lon="1.19718">
        <ele>95.1</ele>
        <time>2012-10-09T14:59:13Z</time>
      </trkpt>
      <trkpt lat="49.36828" lon="1.19714">
        <ele>96.8</ele>
        <time>2012-10-09T14:59:17Z</time>
      </trkpt>
      <trkpt lat="49.36833" lon="1.19708">
        <ele>97.6</ele>
        <time>2012-10-09T14:59:23Z</time>
      </trkpt>
      <trkpt lat="49.36838" lon="1.19705">
        <ele>99.5</ele>
        <time>2012-10-09T14:59:29Z</time>
      </trkpt>
      <trkpt lat="49.36841" lon="1.19699">
        <ele>101.4</ele>
        <time>2012-10-09T14:59:36Z</time>
      </trkpt>
      <trkpt lat="49.36846" lon="1.19695">
        <ele>101.5</ele>
        <time>2012-10-09T14:59:45Z</time>
      </trkpt>
      <trkpt lat="49.3685" lon="1.1969">
        <ele>100.6</ele>
        <time>2012-10-09T14:59:53Z</time>
      </trkpt>
      <trkpt lat="49.36855" lon="1.19684">
        <ele>102.4</ele>
        <time>2012-10-09T14:59:58Z</time>
      </trkpt>
      <trkpt lat="49.36857" lon="1.19683">
        <ele>102.9</ele>
        <time>2012-10-09T14:59:59Z</time>
      </trkpt>
      <trkpt lat="49.36865" lon="1.19675">
        <ele>104.5</ele>
        <time>2012-10-09T15:00:21Z</time>
      </trkpt>
      <trkpt lat="49.3687" lon="1.19672">
        <ele>107</ele>
        <time>2012-10-09T15:00:29Z</time>
      </trkpt>
      <trkpt lat="49.36876" lon="1.19667">
        <ele>108.5</ele>
        <time>2012-10-09T15:00:41Z</time>
      </trkpt>
      <trkpt lat="49.36881" lon="1.19665">
        <ele>109.1</ele>
        <time>2012-10-09T15:00:49Z</time>
      </trkpt>
      <trkpt lat="49.36888" lon="1.19663">
        <ele>109.4</ele>
        <time>2012-10-09T15:00:54Z</time>
      </trkpt>
      <trkpt lat="49.36894" lon="1.19662">
        <ele>111.3</ele>
        <time>2012-10-09T15:00:59Z</time>
      </trkpt>
      <trkpt lat="49.36895" lon="1.19661">
        <ele>111</ele>
        <time>2012-10-09T15:01:00Z</time>
      </trkpt>
      <trkpt lat="49.36904" lon="1.19656">
        <ele>117.8</ele>
        <time>2012-10-09T15:01:09Z</time>
      </trkpt>
      <trkpt lat="49.36909" lon="1.19654">
        <ele>118</ele>
        <time>2012-10-09T15:01:15Z</time>
      </trkpt>
      <trkpt lat="49.36914" lon="1.1965">
        <ele>119.4</ele>
        <time>2012-10-09T15:01:21Z</time>
      </trkpt>
      <trkpt lat="49.3692" lon="1.19648">
        <ele>119.3</ele>
        <time>2012-10-09T15:01:27Z</time>
      </trkpt>
      <trkpt lat="49.36926" lon="1.19646">
        <ele>119</ele>
        <time>2012-10-09T15:01:36Z</time>
      </trkpt>
      <trkpt lat="49.3693" lon="1.19642">
        <ele>118.9</ele>
        <time>2012-10-09T15:01:39Z</time>
      </trkpt>
      <trkpt lat="49.36936" lon="1.19641">
        <ele>121.5</ele>
        <time>2012-10-09T15:01:47Z</time>
      </trkpt>
      <trkpt lat="49.36942" lon="1.19639">
        <ele>122.6</ele>
        <time>2012-10-09T15:01:51Z</time>
      </trkpt>
      <trkpt lat="49.36947" lon="1.19634">
        <ele>124.5</ele>
        <time>2012-10-09T15:01:55Z</time>
      </trkpt>
      <trkpt lat="49.36952" lon="1.19628">
        <ele>126.3</ele>
        <time>2012-10-09T15:02:01Z</time>
      </trkpt>
      <trkpt lat="49.36952" lon="1.19627">
        <ele>126</ele>
        <time>2012-10-09T15:02:02Z</time>
      </trkpt>
      <trkpt lat="49.36961" lon="1.19616">
        <ele>125</ele>
        <time>2012-10-09T15:02:16Z</time>
      </trkpt>
      <trkpt lat="49.36967" lon="1.19615">
        <ele>125.1</ele>
        <time>2012-10-09T15:02:22Z</time>
      </trkpt>
      <trkpt lat="49.36972" lon="1.19613">
        <ele>124.9</ele>
        <time>2012-10-09T15:02:27Z</time>
      </trkpt>
      <trkpt lat="49.36977" lon="1.19609">
        <ele>123.8</ele>
        <time>2012-10-09T15:02:31Z</time>
      </trkpt>
      <trkpt lat="49.36983" lon="1.19604">
        <ele>123</ele>
        <time>2012-10-09T15:02:37Z</time>
      </trkpt>
      <trkpt lat="49.36989" lon="1.19603">
        <ele>121.4</ele>
        <time>2012-10-09T15:02:41Z</time>
      </trkpt>
      <trkpt lat="49.36995" lon="1.19603">
        <ele>121</ele>
        <time>2012-10-09T15:02:44Z</time>
      </trkpt>
      <trkpt lat="49.37" lon="1.19603">
        <ele>121.6</ele>
        <time>2012-10-09T15:02:49Z</time>
      </trkpt>
      <trkpt lat="49.37005" lon="1.19599">
        <ele>122.3</ele>
        <time>2012-10-09T15:02:53Z</time>
      </trkpt>
      <trkpt lat="49.37009" lon="1.19598">
        <ele>123.1</ele>
        <time>2012-10-09T15:02:58Z</time>
      </trkpt>
      <trkpt lat="49.37015" lon="1.19596">
        <ele>124.1</ele>
        <time>2012-10-09T15:03:02Z</time>
      </trkpt>
      <trkpt lat="49.37016" lon="1.19595">
        <ele>123.6</ele>
        <time>2012-10-09T15:03:03Z</time>
      </trkpt>
      <trkpt lat="49.37027" lon="1.19591">
        <ele>124.9</ele>
        <time>2012-10-09T15:03:11Z</time>
      </trkpt>
      <trkpt lat="49.37031" lon="1.19584">
        <ele>124.6</ele>
        <time>2012-10-09T15:03:16Z</time>
      </trkpt>
      <trkpt lat="49.37037" lon="1.19583">
        <ele>125.6</ele>
        <time>2012-10-09T15:03:21Z</time>
      </trkpt>
      <trkpt lat="49.37042" lon="1.1958">
        <ele>126.1</ele>
        <time>2012-10-09T15:03:26Z</time>
      </trkpt>
      <trkpt lat="49.37047" lon="1.1958">
        <ele>126.3</ele>
        <time>2012-10-09T15:03:30Z</time>
      </trkpt>
      <trkpt lat="49.37053" lon="1.19578">
        <ele>127.5</ele>
        <time>2012-10-09T15:03:36Z</time>
      </trkpt>
      <trkpt lat="49.37059" lon="1.19578">
        <ele>128.1</ele>
        <time>2012-10-09T15:03:40Z</time>
      </trkpt>
      <trkpt lat="49.37064" lon="1.19577">
        <ele>128</ele>
        <time>2012-10-09T15:03:46Z</time>
      </trkpt>
      <trkpt lat="49.3707" lon="1.19577">
        <ele>127.9</ele>
        <time>2012-10-09T15:03:53Z</time>
      </trkpt>
      <trkpt lat="49.37075" lon="1.19576">
        <ele>128.6</ele>
        <time>2012-10-09T15:04:00Z</time>
      </trkpt>
      <trkpt lat="49.37081" lon="1.19575">
        <ele>128.8</ele>
        <time>2012-10-09T15:04:06Z</time>
      </trkpt>
      <trkpt lat="49.37083" lon="1.19575">
        <ele>128.3</ele>
        <time>2012-10-09T15:04:07Z</time>
      </trkpt>
      <trkpt lat="49.37092" lon="1.19576">
        <ele>129</ele>
        <time>2012-10-09T15:04:14Z</time>
      </trkpt>
      <trkpt lat="49.37098" lon="1.19576">
        <ele>127.5</ele>
        <time>2012-10-09T15:04:17Z</time>
      </trkpt>
      <trkpt lat="49.37102" lon="1.19577">
        <ele>126.5</ele>
        <time>2012-10-09T15:04:20Z</time>
      </trkpt>
      <trkpt lat="49.37108" lon="1.19578">
        <ele>125.5</ele>
        <time>2012-10-09T15:04:24Z</time>
      </trkpt>
      <trkpt lat="49.37114" lon="1.19578">
        <ele>124.6</ele>
        <time>2012-10-09T15:04:27Z</time>
      </trkpt>
      <trkpt lat="49.3712" lon="1.19577">
        <ele>124.5</ele>
        <time>2012-10-09T15:04:31Z</time>
      </trkpt>
      <trkpt lat="49.37126" lon="1.19577">
        <ele>123.8</ele>
        <time>2012-10-09T15:04:35Z</time>
      </trkpt>
      <trkpt lat="49.37131" lon="1.19577">
        <ele>122.6</ele>
        <time>2012-10-09T15:04:39Z</time>
      </trkpt>
      <trkpt lat="49.37136" lon="1.19577">
        <ele>122.8</ele>
        <time>2012-10-09T15:04:43Z</time>
      </trkpt>
      <trkpt lat="49.37142" lon="1.19576">
        <ele>124.1</ele>
        <time>2012-10-09T15:04:48Z</time>
      </trkpt>
      <trkpt lat="49.37147" lon="1.19571">
        <ele>125.4</ele>
        <time>2012-10-09T15:09:55Z</time>
      </trkpt>
      <trkpt lat="49.37148" lon="1.19572">
        <ele>125.4</ele>
        <time>2012-10-09T15:09:56Z</time>
      </trkpt>
      <trkpt lat="49.37158" lon="1.19572">
        <ele>124.6</ele>
        <time>2012-10-09T15:10:04Z</time>
      </trkpt>
      <trkpt lat="49.37164" lon="1.19571">
        <ele>125</ele>
        <time>2012-10-09T15:10:09Z</time>
      </trkpt>
      <trkpt lat="49.37169" lon="1.1957">
        <ele>125.8</ele>
        <time>2012-10-09T15:10:13Z</time>
      </trkpt>
      <trkpt lat="49.37174" lon="1.19568">
        <ele>126.8</ele>
        <time>2012-10-09T15:10:17Z</time>
      </trkpt>
      <trkpt lat="49.37179" lon="1.19567">
        <ele>126.8</ele>
        <time>2012-10-09T15:10:21Z</time>
      </trkpt>
      <trkpt lat="49.37185" lon="1.19566">
        <ele>127.3</ele>
        <time>2012-10-09T15:10:25Z</time>
      </trkpt>
      <trkpt lat="49.37191" lon="1.19564">
        <ele>126.6</ele>
        <time>2012-10-09T15:10:30Z</time>
      </trkpt>
      <trkpt lat="49.37196" lon="1.19563">
        <ele>127</ele>
        <time>2012-10-09T15:10:38Z</time>
      </trkpt>
      <trkpt lat="49.37202" lon="1.19562">
        <ele>127.5</ele>
        <time>2012-10-09T15:10:43Z</time>
      </trkpt>
      <trkpt lat="49.37208" lon="1.1956">
        <ele>127.6</ele>
        <time>2012-10-09T15:10:48Z</time>
      </trkpt>
      <trkpt lat="49.37213" lon="1.19558">
        <ele>128.5</ele>
        <time>2012-10-09T15:10:52Z</time>
      </trkpt>
      <trkpt lat="49.37219" lon="1.19555">
        <ele>129.1</ele>
        <time>2012-10-09T15:10:57Z</time>
      </trkpt>
      <trkpt lat="49.3722" lon="1.19555">
        <ele>129.1</ele>
        <time>2012-10-09T15:10:58Z</time>
      </trkpt>
      <trkpt lat="49.3723" lon="1.1955">
        <ele>130.3</ele>
        <time>2012-10-09T15:11:07Z</time>
      </trkpt>
      <trkpt lat="49.37236" lon="1.19547">
        <ele>131.6</ele>
        <time>2012-10-09T15:11:12Z</time>
      </trkpt>
      <trkpt lat="49.37241" lon="1.19545">
        <ele>132.1</ele>
        <time>2012-10-09T15:11:17Z</time>
      </trkpt>
      <trkpt lat="49.37246" lon="1.19542">
        <ele>132.6</ele>
        <time>2012-10-09T15:11:21Z</time>
      </trkpt>
      <trkpt lat="49.37252" lon="1.19541">
        <ele>133.6</ele>
        <time>2012-10-09T15:11:26Z</time>
      </trkpt>
      <trkpt lat="49.37258" lon="1.1954">
        <ele>134.1</ele>
        <time>2012-10-09T15:11:31Z</time>
      </trkpt>
      <trkpt lat="49.37265" lon="1.19538">
        <ele>135.1</ele>
        <time>2012-10-09T15:11:36Z</time>
      </trkpt>
      <trkpt lat="49.37271" lon="1.19538">
        <ele>135.8</ele>
        <time>2012-10-09T15:11:41Z</time>
      </trkpt>
      <trkpt lat="49.37276" lon="1.19536">
        <ele>135.8</ele>
        <time>2012-10-09T15:11:46Z</time>
      </trkpt>
      <trkpt lat="49.37282" lon="1.19535">
        <ele>136.3</ele>
        <time>2012-10-09T15:11:50Z</time>
      </trkpt>
      <trkpt lat="49.37287" lon="1.19533">
        <ele>137</ele>
        <time>2012-10-09T15:11:55Z</time>
      </trkpt>
      <trkpt lat="49.37293" lon="1.19532">
        <ele>137.3</ele>
        <time>2012-10-09T15:12:00Z</time>
      </trkpt>
      <trkpt lat="49.37294" lon="1.19531">
        <ele>137.3</ele>
        <time>2012-10-09T15:12:01Z</time>
      </trkpt>
      <trkpt lat="49.37304" lon="1.19527">
        <ele>138.3</ele>
        <time>2012-10-09T15:12:11Z</time>
      </trkpt>
      <trkpt lat="49.3731" lon="1.19524">
        <ele>138.8</ele>
        <time>2012-10-09T15:12:16Z</time>
      </trkpt>
      <trkpt lat="49.37316" lon="1.19524">
        <ele>139.3</ele>
        <time>2012-10-09T15:12:22Z</time>
      </trkpt>
      <trkpt lat="49.37322" lon="1.19522">
        <ele>139.6</ele>
        <time>2012-10-09T15:12:26Z</time>
      </trkpt>
      <trkpt lat="49.37327" lon="1.1952">
        <ele>140.1</ele>
        <time>2012-10-09T15:12:31Z</time>
      </trkpt>
      <trkpt lat="49.37332" lon="1.19518">
        <ele>140.6</ele>
        <time>2012-10-09T15:12:36Z</time>
      </trkpt>
      <trkpt lat="49.37338" lon="1.19515">
        <ele>140.8</ele>
        <time>2012-10-09T15:12:41Z</time>
      </trkpt>
      <trkpt lat="49.37343" lon="1.19514">
        <ele>140.8</ele>
        <time>2012-10-09T15:12:46Z</time>
      </trkpt>
      <trkpt lat="49.37349" lon="1.19512">
        <ele>141.1</ele>
        <time>2012-10-09T15:12:51Z</time>
      </trkpt>
      <trkpt lat="49.37354" lon="1.19511">
        <ele>140.8</ele>
        <time>2012-10-09T15:12:56Z</time>
      </trkpt>
      <trkpt lat="49.37359" lon="1.19506">
        <ele>141.1</ele>
        <time>2012-10-09T15:13:05Z</time>
      </trkpt>
      <trkpt lat="49.3736" lon="1.19506">
        <ele>141.1</ele>
        <time>2012-10-09T15:13:06Z</time>
      </trkpt>
      <trkpt lat="49.37371" lon="1.19504">
        <ele>141.6</ele>
        <time>2012-10-09T15:13:15Z</time>
      </trkpt>
      <trkpt lat="49.37377" lon="1.19503">
        <ele>141.3</ele>
        <time>2012-10-09T15:13:20Z</time>
      </trkpt>
      <trkpt lat="49.37383" lon="1.19502">
        <ele>141.3</ele>
        <time>2012-10-09T15:13:25Z</time>
      </trkpt>
      <trkpt lat="49.37389" lon="1.19499">
        <ele>141.8</ele>
        <time>2012-10-09T15:13:30Z</time>
      </trkpt>
      <trkpt lat="49.37394" lon="1.19498">
        <ele>142.5</ele>
        <time>2012-10-09T15:13:34Z</time>
      </trkpt>
      <trkpt lat="49.374" lon="1.19498">
        <ele>143.1</ele>
        <time>2012-10-09T15:13:39Z</time>
      </trkpt>
      <trkpt lat="49.37405" lon="1.19496">
        <ele>143.3</ele>
        <time>2012-10-09T15:13:47Z</time>
      </trkpt>
      <trkpt lat="49.3741" lon="1.19495">
        <ele>143.1</ele>
        <time>2012-10-09T15:13:51Z</time>
      </trkpt>
      <trkpt lat="49.37417" lon="1.19494">
        <ele>143.3</ele>
        <time>2012-10-09T15:13:56Z</time>
      </trkpt>
      <trkpt lat="49.37423" lon="1.19492">
        <ele>143.8</ele>
        <time>2012-10-09T15:14:01Z</time>
      </trkpt>
      <trkpt lat="49.37428" lon="1.19491">
        <ele>144.3</ele>
        <time>2012-10-09T15:14:06Z</time>
      </trkpt>
      <trkpt lat="49.3743" lon="1.19491">
        <ele>144.1</ele>
        <time>2012-10-09T15:14:07Z</time>
      </trkpt>
      <trkpt lat="49.37439" lon="1.19487">
        <ele>144.5</ele>
        <time>2012-10-09T15:14:16Z</time>
      </trkpt>
      <trkpt lat="49.37445" lon="1.19486">
        <ele>144.1</ele>
        <time>2012-10-09T15:14:21Z</time>
      </trkpt>
      <trkpt lat="49.37451" lon="1.19485">
        <ele>144.3</ele>
        <time>2012-10-09T15:14:26Z</time>
      </trkpt>
      <trkpt lat="49.37457" lon="1.19485">
        <ele>144.8</ele>
        <time>2012-10-09T15:14:31Z</time>
      </trkpt>
      <trkpt lat="49.37462" lon="1.19484">
        <ele>145.3</ele>
        <time>2012-10-09T15:14:35Z</time>
      </trkpt>
      <trkpt lat="49.37468" lon="1.19485">
        <ele>145.3</ele>
        <time>2012-10-09T15:14:40Z</time>
      </trkpt>
      <trkpt lat="49.37474" lon="1.19485">
        <ele>145.6</ele>
        <time>2012-10-09T15:14:45Z</time>
      </trkpt>
      <trkpt lat="49.3748" lon="1.19484">
        <ele>145.6</ele>
        <time>2012-10-09T15:14:50Z</time>
      </trkpt>
      <trkpt lat="49.37486" lon="1.19484">
        <ele>145.3</ele>
        <time>2012-10-09T15:14:55Z</time>
      </trkpt>
      <trkpt lat="49.37491" lon="1.19483">
        <ele>144.8</ele>
        <time>2012-10-09T15:14:59Z</time>
      </trkpt>
      <trkpt lat="49.37497" lon="1.19484">
        <ele>144.8</ele>
        <time>2012-10-09T15:15:04Z</time>
      </trkpt>
      <trkpt lat="49.37502" lon="1.19485">
        <ele>144.8</ele>
        <time>2012-10-09T15:15:08Z</time>
      </trkpt>
      <trkpt lat="49.37504" lon="1.19485">
        <ele>144.8</ele>
        <time>2012-10-09T15:15:09Z</time>
      </trkpt>
      <trkpt lat="49.37513" lon="1.19485">
        <ele>144.8</ele>
        <time>2012-10-09T15:15:17Z</time>
      </trkpt>
      <trkpt lat="49.37518" lon="1.19485">
        <ele>144.8</ele>
        <time>2012-10-09T15:15:21Z</time>
      </trkpt>
      <trkpt lat="49.37524" lon="1.19487">
        <ele>145.1</ele>
        <time>2012-10-09T15:15:25Z</time>
      </trkpt>
      <trkpt lat="49.3753" lon="1.19487">
        <ele>145.1</ele>
        <time>2012-10-09T15:15:30Z</time>
      </trkpt>
      <trkpt lat="49.37535" lon="1.19487">
        <ele>145</ele>
        <time>2012-10-09T15:15:34Z</time>
      </trkpt>
      <trkpt lat="49.37541" lon="1.19488">
        <ele>144.3</ele>
        <time>2012-10-09T15:15:39Z</time>
      </trkpt>
      <trkpt lat="49.37546" lon="1.19489">
        <ele>144.5</ele>
        <time>2012-10-09T15:15:43Z</time>
      </trkpt>
      <trkpt lat="49.37551" lon="1.19489">
        <ele>144.1</ele>
        <time>2012-10-09T15:15:48Z</time>
      </trkpt>
      <trkpt lat="49.37557" lon="1.19489">
        <ele>144.3</ele>
        <time>2012-10-09T15:15:53Z</time>
      </trkpt>
      <trkpt lat="49.37563" lon="1.19489">
        <ele>144</ele>
        <time>2012-10-09T15:15:57Z</time>
      </trkpt>
      <trkpt lat="49.37568" lon="1.1949">
        <ele>144.3</ele>
        <time>2012-10-09T15:16:01Z</time>
      </trkpt>
      <trkpt lat="49.37573" lon="1.1949">
        <ele>144.1</ele>
        <time>2012-10-09T15:16:06Z</time>
      </trkpt>
      <trkpt lat="49.37579" lon="1.19491">
        <ele>143.3</ele>
        <time>2012-10-09T15:16:11Z</time>
      </trkpt>
      <trkpt lat="49.3758" lon="1.19491">
        <ele>143.3</ele>
        <time>2012-10-09T15:16:12Z</time>
      </trkpt>
      <trkpt lat="49.37591" lon="1.19492">
        <ele>143.6</ele>
        <time>2012-10-09T15:16:22Z</time>
      </trkpt>
      <trkpt lat="49.37597" lon="1.19492">
        <ele>143.1</ele>
        <time>2012-10-09T15:16:27Z</time>
      </trkpt>
      <trkpt lat="49.37603" lon="1.19493">
        <ele>142.8</ele>
        <time>2012-10-09T15:16:32Z</time>
      </trkpt>
      <trkpt lat="49.37609" lon="1.19493">
        <ele>143.3</ele>
        <time>2012-10-09T15:16:37Z</time>
      </trkpt>
      <trkpt lat="49.37614" lon="1.19494">
        <ele>143.1</ele>
        <time>2012-10-09T15:16:41Z</time>
      </trkpt>
      <trkpt lat="49.3762" lon="1.19495">
        <ele>143.3</ele>
        <time>2012-10-09T15:16:46Z</time>
      </trkpt>
      <trkpt lat="49.37626" lon="1.19496">
        <ele>142.8</ele>
        <time>2012-10-09T15:16:51Z</time>
      </trkpt>
      <trkpt lat="49.37631" lon="1.19496">
        <ele>143.3</ele>
        <time>2012-10-09T15:16:55Z</time>
      </trkpt>
      <trkpt lat="49.37636" lon="1.19496">
        <ele>143.3</ele>
        <time>2012-10-09T15:16:59Z</time>
      </trkpt>
      <trkpt lat="49.37643" lon="1.19497">
        <ele>143.1</ele>
        <time>2012-10-09T15:17:04Z</time>
      </trkpt>
      <trkpt lat="49.37648" lon="1.19497">
        <ele>142.8</ele>
        <time>2012-10-09T15:17:08Z</time>
      </trkpt>
      <trkpt lat="49.37653" lon="1.19497">
        <ele>142.5</ele>
        <time>2012-10-09T15:17:12Z</time>
      </trkpt>
      <trkpt lat="49.37654" lon="1.19497">
        <ele>142.3</ele>
        <time>2012-10-09T15:17:13Z</time>
      </trkpt>
      <trkpt lat="49.37664" lon="1.19498">
        <ele>142.3</ele>
        <time>2012-10-09T15:17:22Z</time>
      </trkpt>
      <trkpt lat="49.3767" lon="1.19499">
        <ele>142.6</ele>
        <time>2012-10-09T15:17:27Z</time>
      </trkpt>
      <trkpt lat="49.37676" lon="1.195">
        <ele>142.6</ele>
        <time>2012-10-09T15:17:33Z</time>
      </trkpt>
      <trkpt lat="49.37682" lon="1.195">
        <ele>142.6</ele>
        <time>2012-10-09T15:17:38Z</time>
      </trkpt>
      <trkpt lat="49.37688" lon="1.19501">
        <ele>143</ele>
        <time>2012-10-09T15:17:43Z</time>
      </trkpt>
      <trkpt lat="49.37694" lon="1.19502">
        <ele>143.3</ele>
        <time>2012-10-09T15:17:48Z</time>
      </trkpt>
      <trkpt lat="49.377" lon="1.19504">
        <ele>143.3</ele>
        <time>2012-10-09T15:17:53Z</time>
      </trkpt>
      <trkpt lat="49.37705" lon="1.19505">
        <ele>143.5</ele>
        <time>2012-10-09T15:17:57Z</time>
      </trkpt>
      <trkpt lat="49.37711" lon="1.19506">
        <ele>143.5</ele>
        <time>2012-10-09T15:18:02Z</time>
      </trkpt>
      <trkpt lat="49.37717" lon="1.19507">
        <ele>143.8</ele>
        <time>2012-10-09T15:18:07Z</time>
      </trkpt>
      <trkpt lat="49.37723" lon="1.19507">
        <ele>143.3</ele>
        <time>2012-10-09T15:18:11Z</time>
      </trkpt>
      <trkpt lat="49.37728" lon="1.19507">
        <ele>143.8</ele>
        <time>2012-10-09T15:18:15Z</time>
      </trkpt>
      <trkpt lat="49.37729" lon="1.19508">
        <ele>143.8</ele>
        <time>2012-10-09T15:18:16Z</time>
      </trkpt>
      <trkpt lat="49.3774" lon="1.19509">
        <ele>143.3</ele>
        <time>2012-10-09T15:18:24Z</time>
      </trkpt>
      <trkpt lat="49.37745" lon="1.19509">
        <ele>142.8</ele>
        <time>2012-10-09T15:18:29Z</time>
      </trkpt>
      <trkpt lat="49.37751" lon="1.19509">
        <ele>143.1</ele>
        <time>2012-10-09T15:18:34Z</time>
      </trkpt>
      <trkpt lat="49.37756" lon="1.19511">
        <ele>143.3</ele>
        <time>2012-10-09T15:18:38Z</time>
      </trkpt>
      <trkpt lat="49.37761" lon="1.19511">
        <ele>144.1</ele>
        <time>2012-10-09T15:18:42Z</time>
      </trkpt>
      <trkpt lat="49.37767" lon="1.19512">
        <ele>144.5</ele>
        <time>2012-10-09T15:18:46Z</time>
      </trkpt>
      <trkpt lat="49.37772" lon="1.19512">
        <ele>144.6</ele>
        <time>2012-10-09T15:18:50Z</time>
      </trkpt>
      <trkpt lat="49.37777" lon="1.19515">
        <ele>143.8</ele>
        <time>2012-10-09T15:18:55Z</time>
      </trkpt>
      <trkpt lat="49.37782" lon="1.19515">
        <ele>143.3</ele>
        <time>2012-10-09T15:18:59Z</time>
      </trkpt>
      <trkpt lat="49.37788" lon="1.19517">
        <ele>143</ele>
        <time>2012-10-09T15:19:03Z</time>
      </trkpt>
      <trkpt lat="49.37794" lon="1.19518">
        <ele>142.3</ele>
        <time>2012-10-09T15:19:08Z</time>
      </trkpt>
      <trkpt lat="49.37799" lon="1.1952">
        <ele>142.6</ele>
        <time>2012-10-09T15:19:12Z</time>
      </trkpt>
      <trkpt lat="49.37805" lon="1.19522">
        <ele>143</ele>
        <time>2012-10-09T15:19:17Z</time>
      </trkpt>
      <trkpt lat="49.37806" lon="1.19522">
        <ele>143.1</ele>
        <time>2012-10-09T15:19:18Z</time>
      </trkpt>
      <trkpt lat="49.37816" lon="1.19526">
        <ele>143.6</ele>
        <time>2012-10-09T15:19:27Z</time>
      </trkpt>
      <trkpt lat="49.37821" lon="1.19529">
        <ele>143.6</ele>
        <time>2012-10-09T15:19:31Z</time>
      </trkpt>
      <trkpt lat="49.37827" lon="1.19531">
        <ele>143.6</ele>
        <time>2012-10-09T15:19:36Z</time>
      </trkpt>
      <trkpt lat="49.37833" lon="1.19534">
        <ele>144.6</ele>
        <time>2012-10-09T15:19:41Z</time>
      </trkpt>
      <trkpt lat="49.37839" lon="1.19537">
        <ele>144.6</ele>
        <time>2012-10-09T15:19:46Z</time>
      </trkpt>
      <trkpt lat="49.37844" lon="1.1954">
        <ele>144.6</ele>
        <time>2012-10-09T15:19:51Z</time>
      </trkpt>
      <trkpt lat="49.3785" lon="1.19543">
        <ele>144.5</ele>
        <time>2012-10-09T15:19:56Z</time>
      </trkpt>
      <trkpt lat="49.37856" lon="1.19545">
        <ele>144.8</ele>
        <time>2012-10-09T15:20:01Z</time>
      </trkpt>
      <trkpt lat="49.37862" lon="1.19549">
        <ele>144.8</ele>
        <time>2012-10-09T15:20:06Z</time>
      </trkpt>
      <trkpt lat="49.37867" lon="1.1955">
        <ele>145.6</ele>
        <time>2012-10-09T15:20:11Z</time>
      </trkpt>
      <trkpt lat="49.37872" lon="1.19552">
        <ele>146.1</ele>
        <time>2012-10-09T15:20:15Z</time>
      </trkpt>
      <trkpt lat="49.37877" lon="1.19555">
        <ele>146.3</ele>
        <time>2012-10-09T15:20:19Z</time>
      </trkpt>
      <trkpt lat="49.37878" lon="1.19555">
        <ele>146</ele>
        <time>2012-10-09T15:20:20Z</time>
      </trkpt>
      <trkpt lat="49.37888" lon="1.19559">
        <ele>146.8</ele>
        <time>2012-10-09T15:20:28Z</time>
      </trkpt>
      <trkpt lat="49.37894" lon="1.19561">
        <ele>147.1</ele>
        <time>2012-10-09T15:20:33Z</time>
      </trkpt>
      <trkpt lat="49.37899" lon="1.19563">
        <ele>147.5</ele>
        <time>2012-10-09T15:20:38Z</time>
      </trkpt>
      <trkpt lat="49.37905" lon="1.19565">
        <ele>147.8</ele>
        <time>2012-10-09T15:20:43Z</time>
      </trkpt>
      <trkpt lat="49.3791" lon="1.19567">
        <ele>147.6</ele>
        <time>2012-10-09T15:20:47Z</time>
      </trkpt>
      <trkpt lat="49.37915" lon="1.19569">
        <ele>147.5</ele>
        <time>2012-10-09T15:20:51Z</time>
      </trkpt>
      <trkpt lat="49.3792" lon="1.1957">
        <ele>147.5</ele>
        <time>2012-10-09T15:20:56Z</time>
      </trkpt>
      <trkpt lat="49.37926" lon="1.19574">
        <ele>147.8</ele>
        <time>2012-10-09T15:21:01Z</time>
      </trkpt>
      <trkpt lat="49.37932" lon="1.19575">
        <ele>147.6</ele>
        <time>2012-10-09T15:21:06Z</time>
      </trkpt>
      <trkpt lat="49.37938" lon="1.19577">
        <ele>147.8</ele>
        <time>2012-10-09T15:21:11Z</time>
      </trkpt>
      <trkpt lat="49.37944" lon="1.1958">
        <ele>146.8</ele>
        <time>2012-10-09T15:21:16Z</time>
      </trkpt>
      <trkpt lat="49.37949" lon="1.19582">
        <ele>146.3</ele>
        <time>2012-10-09T15:21:21Z</time>
      </trkpt>
      <trkpt lat="49.3795" lon="1.19583">
        <ele>146.5</ele>
        <time>2012-10-09T15:21:22Z</time>
      </trkpt>
      <trkpt lat="49.3796" lon="1.19587">
        <ele>145.8</ele>
        <time>2012-10-09T15:21:30Z</time>
      </trkpt>
      <trkpt lat="49.37965" lon="1.1959">
        <ele>146.1</ele>
        <time>2012-10-09T15:21:34Z</time>
      </trkpt>
      <trkpt lat="49.3797" lon="1.19592">
        <ele>146.6</ele>
        <time>2012-10-09T15:21:38Z</time>
      </trkpt>
      <trkpt lat="49.37975" lon="1.19594">
        <ele>147</ele>
        <time>2012-10-09T15:21:42Z</time>
      </trkpt>
      <trkpt lat="49.3798" lon="1.19597">
        <ele>147</ele>
        <time>2012-10-09T15:21:46Z</time>
      </trkpt>
      <trkpt lat="49.37986" lon="1.19599">
        <ele>147.1</ele>
        <time>2012-10-09T15:21:51Z</time>
      </trkpt>
      <trkpt lat="49.37991" lon="1.19601">
        <ele>147</ele>
        <time>2012-10-09T15:21:55Z</time>
      </trkpt>
      <trkpt lat="49.37996" lon="1.19605">
        <ele>147.6</ele>
        <time>2012-10-09T15:21:59Z</time>
      </trkpt>
      <trkpt lat="49.38001" lon="1.19609">
        <ele>147.8</ele>
        <time>2012-10-09T15:22:04Z</time>
      </trkpt>
      <trkpt lat="49.38006" lon="1.19615">
        <ele>148</ele>
        <time>2012-10-09T15:22:09Z</time>
      </trkpt>
      <trkpt lat="49.38009" lon="1.19622">
        <ele>148.5</ele>
        <time>2012-10-09T15:22:14Z</time>
      </trkpt>
      <trkpt lat="49.38013" lon="1.19628">
        <ele>148.3</ele>
        <time>2012-10-09T15:22:19Z</time>
      </trkpt>
      <trkpt lat="49.38017" lon="1.19636">
        <ele>148.5</ele>
        <time>2012-10-09T15:22:24Z</time>
      </trkpt>
      <trkpt lat="49.38018" lon="1.19637">
        <ele>148.3</ele>
        <time>2012-10-09T15:22:25Z</time>
      </trkpt>
      <trkpt lat="49.38024" lon="1.19651">
        <ele>148.6</ele>
        <time>2012-10-09T15:22:34Z</time>
      </trkpt>
      <trkpt lat="49.38028" lon="1.19656">
        <ele>148.8</ele>
        <time>2012-10-09T15:22:38Z</time>
      </trkpt>
      <trkpt lat="49.38032" lon="1.19663">
        <ele>148.5</ele>
        <time>2012-10-09T15:22:43Z</time>
      </trkpt>
      <trkpt lat="49.38036" lon="1.19669">
        <ele>148.3</ele>
        <time>2012-10-09T15:22:48Z</time>
      </trkpt>
      <trkpt lat="49.3804" lon="1.19677">
        <ele>148.3</ele>
        <time>2012-10-09T15:22:53Z</time>
      </trkpt>
      <trkpt lat="49.38044" lon="1.19684">
        <ele>148.6</ele>
        <time>2012-10-09T15:22:58Z</time>
      </trkpt>
      <trkpt lat="49.38048" lon="1.1969">
        <ele>148</ele>
        <time>2012-10-09T15:23:02Z</time>
      </trkpt>
      <trkpt lat="49.38052" lon="1.19697">
        <ele>147.6</ele>
        <time>2012-10-09T15:23:07Z</time>
      </trkpt>
      <trkpt lat="49.38057" lon="1.19703">
        <ele>147.3</ele>
        <time>2012-10-09T15:23:12Z</time>
      </trkpt>
      <trkpt lat="49.3806" lon="1.19711">
        <ele>147.6</ele>
        <time>2012-10-09T15:23:17Z</time>
      </trkpt>
      <trkpt lat="49.38064" lon="1.19718">
        <ele>148.1</ele>
        <time>2012-10-09T15:23:22Z</time>
      </trkpt>
      <trkpt lat="49.38068" lon="1.19725">
        <ele>147.6</ele>
        <time>2012-10-09T15:23:27Z</time>
      </trkpt>
      <trkpt lat="49.38069" lon="1.19727">
        <ele>147.6</ele>
        <time>2012-10-09T15:23:28Z</time>
      </trkpt>
      <trkpt lat="49.38076" lon="1.19738">
        <ele>147.1</ele>
        <time>2012-10-09T15:23:36Z</time>
      </trkpt>
      <trkpt lat="49.3808" lon="1.19745">
        <ele>146.6</ele>
        <time>2012-10-09T15:23:41Z</time>
      </trkpt>
      <trkpt lat="49.38084" lon="1.19752">
        <ele>146.5</ele>
        <time>2012-10-09T15:23:46Z</time>
      </trkpt>
      <trkpt lat="49.38088" lon="1.19759">
        <ele>146.6</ele>
        <time>2012-10-09T15:23:51Z</time>
      </trkpt>
      <trkpt lat="49.38092" lon="1.19765">
        <ele>147</ele>
        <time>2012-10-09T15:23:56Z</time>
      </trkpt>
      <trkpt lat="49.38096" lon="1.19773">
        <ele>147.6</ele>
        <time>2012-10-09T15:24:01Z</time>
      </trkpt>
      <trkpt lat="49.38101" lon="1.19777">
        <ele>147.3</ele>
        <time>2012-10-09T15:24:09Z</time>
      </trkpt>
      <trkpt lat="49.38106" lon="1.19775">
        <ele>148.5</ele>
        <time>2012-10-09T15:24:50Z</time>
      </trkpt>
      <trkpt lat="49.38107" lon="1.19774">
        <ele>148.5</ele>
        <time>2012-10-09T15:24:51Z</time>
      </trkpt>
      <trkpt lat="49.38116" lon="1.19766">
        <ele>147.6</ele>
        <time>2012-10-09T15:24:59Z</time>
      </trkpt>
      <trkpt lat="49.38121" lon="1.19762">
        <ele>147.6</ele>
        <time>2012-10-09T15:25:04Z</time>
      </trkpt>
      <trkpt lat="49.38126" lon="1.19759">
        <ele>147.6</ele>
        <time>2012-10-09T15:25:08Z</time>
      </trkpt>
      <trkpt lat="49.3813" lon="1.19755">
        <ele>148.5</ele>
        <time>2012-10-09T15:25:12Z</time>
      </trkpt>
      <trkpt lat="49.38136" lon="1.19752">
        <ele>149.3</ele>
        <time>2012-10-09T15:25:17Z</time>
      </trkpt>
      <trkpt lat="49.38142" lon="1.19749">
        <ele>149.1</ele>
        <time>2012-10-09T15:25:22Z</time>
      </trkpt>
      <trkpt lat="49.38147" lon="1.19744">
        <ele>149.3</ele>
        <time>2012-10-09T15:25:27Z</time>
      </trkpt>
      <trkpt lat="49.38152" lon="1.1974">
        <ele>150.1</ele>
        <time>2012-10-09T15:25:32Z</time>
      </trkpt>
      <trkpt lat="49.38157" lon="1.19737">
        <ele>151.1</ele>
        <time>2012-10-09T15:25:36Z</time>
      </trkpt>
      <trkpt lat="49.38162" lon="1.19732">
        <ele>150.1</ele>
        <time>2012-10-09T15:25:41Z</time>
      </trkpt>
      <trkpt lat="49.38167" lon="1.19729">
        <ele>150.3</ele>
        <time>2012-10-09T15:25:46Z</time>
      </trkpt>
      <trkpt lat="49.38172" lon="1.19724">
        <ele>152</ele>
        <time>2012-10-09T15:25:51Z</time>
      </trkpt>
      <trkpt lat="49.38173" lon="1.19723">
        <ele>152.1</ele>
        <time>2012-10-09T15:25:52Z</time>
      </trkpt>
      <trkpt lat="49.38183" lon="1.19716">
        <ele>151.3</ele>
        <time>2012-10-09T15:26:03Z</time>
      </trkpt>
      <trkpt lat="49.38189" lon="1.19711">
        <ele>151.3</ele>
        <time>2012-10-09T15:26:08Z</time>
      </trkpt>
      <trkpt lat="49.38194" lon="1.19707">
        <ele>151</ele>
        <time>2012-10-09T15:26:13Z</time>
      </trkpt>
      <trkpt lat="49.382" lon="1.19703">
        <ele>150.1</ele>
        <time>2012-10-09T15:26:18Z</time>
      </trkpt>
      <trkpt lat="49.38204" lon="1.19699">
        <ele>149.3</ele>
        <time>2012-10-09T15:26:22Z</time>
      </trkpt>
      <trkpt lat="49.38209" lon="1.19697">
        <ele>150</ele>
        <time>2012-10-09T15:26:26Z</time>
      </trkpt>
      <trkpt lat="49.38214" lon="1.19692">
        <ele>151</ele>
        <time>2012-10-09T15:26:31Z</time>
      </trkpt>
      <trkpt lat="49.38219" lon="1.19688">
        <ele>151.1</ele>
        <time>2012-10-09T15:26:35Z</time>
      </trkpt>
      <trkpt lat="49.38223" lon="1.19685">
        <ele>151.3</ele>
        <time>2012-10-09T15:26:39Z</time>
      </trkpt>
      <trkpt lat="49.38229" lon="1.19681">
        <ele>151.3</ele>
        <time>2012-10-09T15:26:44Z</time>
      </trkpt>
      <trkpt lat="49.38234" lon="1.19677">
        <ele>151.6</ele>
        <time>2012-10-09T15:26:49Z</time>
      </trkpt>
      <trkpt lat="49.3824" lon="1.19674">
        <ele>151.3</ele>
        <time>2012-10-09T15:26:54Z</time>
      </trkpt>
      <trkpt lat="49.38241" lon="1.19673">
        <ele>151.3</ele>
        <time>2012-10-09T15:26:55Z</time>
      </trkpt>
      <trkpt lat="49.3825" lon="1.19666">
        <ele>151.1</ele>
        <time>2012-10-09T15:27:03Z</time>
      </trkpt>
      <trkpt lat="49.38255" lon="1.19662">
        <ele>150.6</ele>
        <time>2012-10-09T15:27:08Z</time>
      </trkpt>
      <trkpt lat="49.38261" lon="1.19657">
        <ele>150.6</ele>
        <time>2012-10-09T15:27:13Z</time>
      </trkpt>
      <trkpt lat="49.38266" lon="1.19653">
        <ele>150.1</ele>
        <time>2012-10-09T15:27:18Z</time>
      </trkpt>
      <trkpt lat="49.38271" lon="1.19649">
        <ele>150.5</ele>
        <time>2012-10-09T15:27:22Z</time>
      </trkpt>
      <trkpt lat="49.38276" lon="1.19645">
        <ele>149.8</ele>
        <time>2012-10-09T15:27:43Z</time>
      </trkpt>
      <trkpt lat="49.38279" lon="1.19639">
        <ele>150.1</ele>
        <time>2012-10-09T15:27:47Z</time>
      </trkpt>
      <trkpt lat="49.38282" lon="1.19633">
        <ele>150.3</ele>
        <time>2012-10-09T15:27:51Z</time>
      </trkpt>
      <trkpt lat="49.38285" lon="1.19624">
        <ele>151.6</ele>
        <time>2012-10-09T15:27:56Z</time>
      </trkpt>
      <trkpt lat="49.38285" lon="1.19623">
        <ele>151.5</ele>
        <time>2012-10-09T15:27:57Z</time>
      </trkpt>
      <trkpt lat="49.38288" lon="1.19607">
        <ele>152</ele>
        <time>2012-10-09T15:28:07Z</time>
      </trkpt>
      <trkpt lat="49.38289" lon="1.19598">
        <ele>151.1</ele>
        <time>2012-10-09T15:28:35Z</time>
      </trkpt>
      <trkpt lat="49.38911" lon="1.1997">
        <ele>139.6</ele>
        <time>2012-10-09T15:45:48Z</time>
      </trkpt>
      <trkpt lat="49.38911" lon="1.1997">
        <ele>139.6</ele>
        <time>2012-10-09T15:45:53Z</time>
      </trkpt>
      <trkpt lat="49.38911" lon="1.1997">
        <ele>139.6</ele>
        <time>2012-10-09T15:45:53Z</time>
      </trkpt>
    </trkseg>
  </trk>
</gpx>